Date StartTime U_cm/s V_cm/s W_cm/s Ustd_cm/s Vstd_cm/s Wstd_cm/s Uvar_(cm/s)^2 Vvar_(cm/s)^2 Wvar_(cm/s)^2 KE_(m/s)^2 TurbulentKE_(m/s)^2 HorizWindSpeed_cm/s FrictionSpeec_cm/s DragCoef SpeedOfSound_m/s SonicTemperature_C Pressure_mb 
10/24/2014  00:00:00     -103.247      -29.092       -1.615       20.762       16.195        9.518      431.057      262.266       90.601        0.615        0.039      107.268        8.178        0.006      337.792       10.005      861.873
10/24/2014  00:01:00     -102.070      -14.271       -3.658       31.668       19.266       17.285     1002.886      371.187      298.774        0.615        0.084      103.063       18.265        0.031      337.691        9.836      861.884
10/24/2014  00:02:00     -111.103      -28.058      -12.733       19.029       16.187       15.017      362.089      262.016      225.514        0.707        0.042      114.591       10.585        0.009      337.648        9.764      861.874
10/24/2014  00:03:00      -79.361      -24.897       -2.881       21.846       12.443        9.627      477.239      154.822       92.686        0.383        0.036       83.175       11.158        0.018      337.683        9.822      861.855
10/24/2014  00:04:00     -104.383      -27.019       -5.054       37.521       22.916       14.393     1407.798      525.144      207.163        0.690        0.107      107.823       18.055        0.028      337.597        9.679      861.875
10/24/2014  00:05:00     -124.837      -20.227       -8.738       27.438       22.858       16.576      752.839      522.487      274.747        0.881        0.078      126.465       15.679        0.015      337.585        9.659      861.881
10/24/2014  00:06:00      -98.871       -2.892      -15.012       30.684       17.442       14.341      941.508      304.221      205.659        0.573        0.073       98.913       17.817        0.032      337.454        9.438      861.848
10/24/2014  00:07:00       -2.335      -44.592       -2.901       22.047       15.408       14.157      486.074      237.412      200.409        0.146        0.046       44.653        5.482        0.015      337.429        9.396      861.864
10/24/2014  00:08:00        9.719      -38.959       -0.905       12.648       12.325       15.440      159.960      151.912      238.386        0.108        0.028       40.153        9.143        0.052      337.572        9.636      861.893
10/24/2014  00:09:00      -56.509      -32.420       -4.999       53.919       23.778       11.232     2907.305      565.391      126.167        0.393        0.180       65.149       16.187        0.062      337.592        9.672      861.933
10/24/2014  00:10:00     -149.109       -7.669      -16.314       35.111       28.493       16.415     1232.782      811.870      269.462        1.244        0.116      149.306       15.643        0.011      337.552        9.604      861.947
10/24/2014  00:11:00     -165.764       16.853      -20.844       21.562       19.053       14.582      464.900      363.020      212.647        1.462        0.052      166.619        6.362        0.001      337.441        9.418      861.920
10/24/2014  00:12:00     -121.216       40.487      -14.781       53.278       36.457       26.284     2838.597     1329.129      690.862        1.070        0.243      127.799       16.834        0.017      337.487        9.494      861.897
10/24/2014  00:13:00      -89.456       19.467      -14.380       40.400       28.494       21.009     1632.176      811.889      441.365        0.574        0.144       91.549       16.826        0.034      337.736        9.911      861.902
10/24/2014  00:14:00      -78.039       -1.996       -5.749       27.557       37.728       22.299      759.414     1423.397      497.262        0.440        0.134       78.065       15.563        0.040      337.676        9.809      861.886
10/24/2014  00:15:00        4.150      -25.788       -3.436       23.610       22.088       16.115      557.424      487.897      259.696        0.100        0.065       26.120       13.773        0.278      337.694        9.841      861.897
10/24/2014  00:16:00       -5.986      -60.704       -8.025       19.188       17.793       11.354      368.189      316.590      128.924        0.230        0.041       60.998        7.185        0.014      337.715        9.877      861.928
10/24/2014  00:17:00      -22.842      -16.224       -9.428       11.834       19.095        9.850      140.042      364.622       97.018        0.074        0.030       28.017        7.377        0.069      337.722        9.888      861.949
10/24/2014  00:18:00      -25.147       -3.876       -3.524       11.452       10.890        6.347      131.155      118.599       40.286        0.047        0.015       25.444        5.775        0.052      337.714        9.875      861.931
10/24/2014  00:19:00      -63.210       15.743      -11.908       22.628       12.926        8.083      512.031      167.076       65.330        0.256        0.037       65.141        6.572        0.010      337.631        9.736      861.898
10/24/2014  00:20:00     -105.549        4.132      -12.006       25.868       24.937       12.764      669.161      621.839      162.929        0.638        0.073      105.630       10.115        0.009      337.428        9.395      861.915
10/24/2014  00:21:00     -105.513      -30.316       -9.097       21.250       21.899       12.466      451.566      479.545      155.398        0.661        0.054      109.782       10.557        0.009      337.361        9.282      861.958
10/24/2014  00:22:00      -52.294       -1.809       -2.663       26.630       16.812       14.764      709.165      282.653      217.979        0.198        0.060       52.325       10.944        0.044      337.258        9.109      861.955
10/24/2014  00:23:00      -52.146      -14.800      -10.199       31.252       17.484       10.600      976.680      305.675      112.356        0.222        0.070       54.205       10.686        0.039      337.365        9.291      861.954
10/24/2014  00:24:00      -64.712      -40.900      -11.800       15.698       16.694       10.514      246.414      278.681      110.553        0.332        0.032       76.553        9.077        0.014      337.475        9.475      861.970
10/24/2014  00:25:00      -37.049      -26.529       -6.956       31.095       15.987       14.988      966.890      255.575      224.652        0.179        0.072       45.568       17.756        0.152      337.455        9.440      861.989
10/24/2014  00:26:00      -95.029      -27.469      -11.295       33.492       21.086       13.286     1121.739      444.635      176.512        0.583        0.087       98.919       17.364        0.031      337.369        9.296      862.013
10/24/2014  00:27:00     -120.411      -32.012      -18.116       11.135       17.636       10.911      123.990      311.024      119.055        0.820        0.028      124.593        9.085        0.005      337.351        9.266      862.033
10/24/2014  00:28:00     -113.117      -22.737      -20.208        9.011       13.497        8.041       81.195      182.168       64.660        0.702        0.016      115.380        5.736        0.002      337.396        9.342      862.038
10/24/2014  00:29:00      -82.608      -31.698      -10.937       13.099        7.869        7.987      171.587       61.916       63.797        0.412        0.015       88.481        5.706        0.004      337.362        9.284      862.035
10/24/2014  00:30:00      -46.806      -28.598       -2.770       11.994       13.680        5.169      143.851      187.148       26.714        0.169        0.018       54.851        4.578        0.007      337.467        9.461      862.026
10/24/2014  00:31:00      -31.353       -1.977       -4.502        6.794        5.272        4.492       46.157       27.799       20.182        0.055        0.005       31.415        4.410        0.020      337.524        9.555      862.005
10/24/2014  00:32:00      -52.789      -16.693       -9.755       14.930        7.245        6.842      222.893       52.485       46.814        0.174        0.016       55.365        5.969        0.012      337.738        9.913      862.006
10/24/2014  00:33:00      -90.298      -22.977      -20.642       20.227       10.723        9.482      409.150      114.987       89.914        0.486        0.031       93.176        9.106        0.010      337.551        9.601      862.038
10/24/2014  00:34:00     -101.538      -27.357      -17.574       12.615       11.571        8.510      159.138      133.894       72.419        0.587        0.018      105.159        3.106        0.001      337.359        9.279      862.058
10/24/2014  00:35:00      -98.810      -33.996      -11.670        9.436       10.672        9.631       89.030      113.897       92.751        0.568        0.015      104.495        4.810        0.002      337.324        9.222      862.080
10/24/2014  00:36:00     -130.103      -20.228      -12.746       24.155       16.876       14.309      583.466      284.805      204.758        0.929        0.054      131.666       12.617        0.009      337.239        9.078      862.091
10/24/2014  00:37:00     -118.715      -31.226      -13.779       19.745       14.078       14.519      389.858      198.186      210.802        0.803        0.040      122.753       12.230        0.010      337.333        9.236      862.081
10/24/2014  00:38:00     -108.478      -20.697      -16.479       12.696        8.688        7.396      161.180       75.487       54.696        0.638        0.015      110.435        7.165        0.004      337.376        9.308      862.082
10/24/2014  00:39:00      -77.501      -19.860       -9.204       15.380       13.502        9.162      236.530      182.300       83.943        0.349        0.025       80.005        7.258        0.008      337.432        9.402      862.066
10/24/2014  00:40:00      -46.661      -24.569      -10.607        8.257        5.439        5.331       68.186       29.582       28.419        0.151        0.006       52.734        2.242        0.002      337.460        9.447      862.060
10/24/2014  00:41:00      -46.543      -24.587       -7.668       11.283        7.656        6.071      127.295       58.617       36.859        0.153        0.011       52.638        5.877        0.012      337.543        9.588      862.088
10/24/2014  00:42:00      -67.860      -15.592       -9.176       14.498        7.544        7.678      210.193       56.912       58.954        0.263        0.016       69.628        7.304        0.011      337.481        9.482      862.114
10/24/2014  00:43:00      -91.563      -27.309      -11.404        6.105       10.054        6.258       37.266      101.084       39.157        0.472        0.009       95.549        4.517        0.002      337.328        9.229      862.118
10/24/2014  00:44:00     -104.736      -15.049      -13.812       13.436       16.002       13.383      180.522      256.065      179.111        0.600        0.031      105.811        6.002        0.003      337.232        9.065      862.144
10/24/2014  00:45:00     -107.916        1.769      -17.722       15.004       11.324        9.927      225.117      128.243       98.536        0.621        0.023      107.930        5.038        0.002      337.280        9.148      862.116
10/24/2014  00:46:00      -91.102       -1.086      -16.267       14.058        7.961        6.867      197.622       63.375       47.162        0.444        0.015       91.108        7.415        0.007      337.378        9.312      862.052
10/24/2014  00:47:00      -80.522      -29.926      -15.453       14.261       17.487        9.706      203.363      305.779       94.207        0.411        0.030       85.903        6.086        0.005      337.152        8.933      862.049
10/24/2014  00:48:00     -112.473      -54.514      -12.454       25.286       25.058       21.009      639.388      627.897      441.359        0.874        0.085      124.987        8.752        0.005      336.973        8.633      862.075
10/24/2014  00:49:00     -104.452      -63.610      -10.999       34.108       28.421       23.739     1163.349      807.729      563.525        0.881        0.127      122.297       17.891        0.021      336.903        8.516      862.071
10/24/2014  00:50:00     -125.222      -23.853       -8.931       43.942       26.567       20.686     1930.857      705.780      427.903        0.970        0.153      127.474       21.908        0.030      336.851        8.431      862.071
10/24/2014  00:51:00      -63.824       -2.086      -10.900       24.337       20.136       14.185      592.288      405.440      201.221        0.270        0.060       63.858        7.692        0.015      336.951        8.597      862.058
10/24/2014  00:52:00      -39.159       -1.548      -14.290       19.099       23.965       12.937      364.775      574.321      167.364        0.142        0.055       39.189       12.144        0.096      337.154        8.936      862.041
10/24/2014  00:53:00      -93.670      -40.846       -9.371       30.054       24.823       18.054      903.250      616.190      325.943        0.619        0.092      102.189       13.663        0.018      337.060        8.778      862.040
10/24/2014  00:54:00     -111.312      -44.830      -10.833       31.774       43.993       23.317     1009.573     1935.398      543.700        0.900        0.174      120.000       12.443        0.011      336.986        8.654      862.049
10/24/2014  00:55:00     -117.171        6.549      -19.114       28.095       34.413       22.131      789.356     1184.277      489.786        0.830        0.123      117.354       15.027        0.016      336.950        8.594      862.052
10/24/2014  00:56:00      -41.803      -24.708       -1.990       31.828       30.840       23.531     1013.033      951.128      553.699        0.244        0.126       48.559       19.624        0.163      336.922        8.548      862.067
10/24/2014  00:57:00      -90.911      -45.719      -11.813       27.455       33.842       15.196      753.757     1145.308      230.929        0.631        0.106      101.759        7.350        0.005      336.971        8.630      862.088
10/24/2014  00:58:00      -94.967      -60.589       -6.500       45.158       31.966       26.686     2039.216     1021.857      712.128        0.825        0.189      112.648       28.861        0.066      336.940        8.580      862.111
10/24/2014  00:59:00     -141.809      -36.172       -9.333       55.119       51.891       29.953     3038.068     2692.714      897.180        1.407        0.331      146.350       29.775        0.041      336.932        8.563      862.111
10/24/2014  01:00:00     -149.087      -18.927      -20.850       45.465       37.434       24.145     2067.106     1401.296      582.977        1.353        0.203      150.284       21.005        0.020      336.958        8.607      862.113
10/24/2014  01:01:00     -156.761       45.969      -16.518       54.651       40.711       32.739     2986.771     1657.352     1071.867        1.634        0.286      163.362       18.051        0.012      337.137        8.907      862.120
10/24/2014  01:02:00     -155.315       33.207      -10.599       47.998       33.659       26.177     2303.817     1132.934      685.257        1.473        0.206      158.826       27.024        0.029      337.203        9.019      862.148
10/24/2014  01:03:00     -143.667       20.967      -14.934       58.169       27.876       23.597     3383.665      777.058      556.821        1.301        0.236      145.189       27.923        0.037      337.397        9.342      862.145
10/24/2014  01:04:00     -154.157       44.400      -11.224       50.882       28.446       16.491     2588.962      809.187      271.967        1.477        0.184      160.424       12.074        0.006      337.382        9.318      862.132
10/24/2014  01:05:00     -179.044       40.144      -16.591       30.366       28.835       17.173      922.092      831.484      294.902        1.800        0.102      183.489       12.538        0.005      337.416        9.375      862.108
10/24/2014  01:06:00     -108.669       -2.551      -10.791       32.656       32.259       19.624     1066.393     1040.672      385.090        0.721        0.125      108.699       10.001        0.008      337.318        9.210      862.128
10/24/2014  01:07:00     -117.137       -2.637       -5.279       38.228       40.622       23.373     1461.398     1650.131      546.286        0.871        0.183      117.167       20.244        0.030      337.266        9.125      862.126
10/24/2014  01:08:00     -106.330       -1.948      -14.045       42.716       37.097       22.456     1824.618     1376.223      504.261        0.761        0.185      106.348       21.771        0.042      337.235        9.073      862.093
10/24/2014  01:09:00     -136.079      -10.956      -16.609       35.187       37.398       22.611     1238.130     1398.619      511.242        1.103        0.157      136.519       20.438        0.022      337.293        9.169      862.100
10/24/2014  01:10:00     -132.789      -30.111      -14.300       44.639       37.036       22.622     1992.623     1371.688      511.756        1.131        0.194      136.160       21.627        0.025      337.208        9.027      862.115
10/24/2014  01:11:00     -161.374       13.276      -11.847       31.612       36.800       21.410      999.295     1354.223      458.390        1.458        0.141      161.919       15.779        0.009      337.133        8.899      862.106
10/24/2014  01:12:00     -203.315       14.890      -20.212       47.620       42.750       35.027     2267.654     1827.533     1226.904        2.364        0.266      203.860       32.239        0.025      337.175        8.971      862.099
10/24/2014  01:13:00     -114.901       -8.982      -15.400       46.606       68.250       32.589     2172.079     4658.030     1062.051        1.070        0.395      115.252       30.120        0.068      337.193        9.001      862.091
10/24/2014  01:14:00     -149.620       45.102      -11.432       66.141       36.268       22.179     4374.686     1315.339      491.920        1.537        0.309      156.270       20.029        0.016      337.362        9.284      862.080
10/24/2014  01:15:00     -112.459       21.740       -8.147       46.398       47.378       28.067     2152.740     2244.663      787.767        0.918        0.259      114.541       23.109        0.041      337.231        9.066      862.063
10/24/2014  01:16:00     -117.250       16.800       -9.975       32.498       29.392       24.328     1056.103      863.887      591.865        0.832        0.126      118.447       14.525        0.015      337.270        9.131      862.037
10/24/2014  01:17:00     -170.088       16.415      -15.796       35.307       35.830       17.932     1246.593     1283.755      321.539        1.615        0.143      170.878        9.509        0.003      337.301        9.181      862.003
10/24/2014  01:18:00     -165.905        8.977      -17.615       33.323       56.728       23.879     1110.435     3218.051      570.230        1.641        0.245      166.147       18.393        0.012      337.231        9.067      862.022
10/24/2014  01:19:00     -156.201      -54.727      -16.340       38.173       57.329       27.548     1457.153     3286.663      758.905        1.658        0.275      165.511       18.936        0.013      337.130        8.897      862.061
10/24/2014  01:20:00     -133.844       -7.495      -19.834       29.203       37.243       20.021      852.844     1387.066      400.846        1.050        0.132      134.054       13.877        0.011      337.101        8.848      862.075
10/24/2014  01:21:00     -134.479      -17.093       -9.662       39.324       33.838       21.012     1546.361     1145.041      441.483        1.080        0.157      135.561       21.149        0.024      337.069        8.792      862.065
10/24/2014  01:22:00     -125.345      -41.808       -5.787       42.841       29.416       24.087     1835.333      865.328      580.160        1.039        0.164      132.134       21.225        0.026      337.076        8.807      862.061
10/24/2014  01:23:00     -146.543      -37.373       -6.878       30.610       22.493       18.661      936.944      505.915      348.240        1.235        0.090      151.234       17.072        0.013      337.097        8.840      862.078
10/24/2014  01:24:00     -160.171      -31.541      -15.460       24.367       22.689       17.188      593.729      514.786      295.438        1.415        0.070      163.247       10.461        0.004      337.106        8.856      862.091
10/24/2014  01:25:00     -142.548      -34.913       -8.420       21.014       21.564       15.428      441.600      465.002      238.037        1.138        0.057      146.762       12.231        0.007      337.105        8.854      862.122
10/24/2014  01:26:00     -114.368      -22.547       -5.545       26.553       24.387       15.274      705.043      594.735      233.290        0.758        0.077      116.569       14.490        0.015      337.150        8.930      862.153
10/24/2014  01:27:00      -94.879      -14.574       -5.817       31.950       14.675       14.614     1020.787      215.351      213.579        0.535        0.072       95.991       16.880        0.031      337.144        8.920      862.143
10/24/2014  01:28:00      -83.506      -31.682       -7.663       18.278       18.487       11.174      334.092      341.781      124.859        0.442        0.040       89.314        8.601        0.009      337.223        9.053      862.130
10/24/2014  01:29:00      -87.915      -35.057       -6.087       13.334       14.407       10.080      177.793      207.548      101.615        0.474        0.024       94.647        7.250        0.006      337.267        9.125      862.118
10/24/2014  01:30:00     -105.755      -13.516       -6.331       31.998       17.266       15.513     1023.885      298.115      240.662        0.648        0.078      106.615       13.832        0.017      337.148        8.925      862.077
10/24/2014  01:31:00     -123.200       -3.381       -8.455       49.533       30.396       24.490     2453.545      923.930      599.748        0.962        0.199      123.247       23.881        0.038      337.097        8.842      862.051
10/24/2014  01:32:00     -140.346      -70.253       -2.804       45.006       52.565       26.669     2025.505     2763.078      711.213        1.507        0.275      156.947       23.642        0.023      337.214        9.036      862.088
10/24/2014  01:33:00      -99.442      -57.842        2.705       34.653       27.562       22.449     1200.861      759.652      503.950        0.785        0.123      115.041       19.535        0.029      337.120        8.879      862.096
10/24/2014  01:34:00      -85.870      -29.899       -2.137       22.644       18.019       11.986      512.742      324.674      143.670        0.463        0.049       90.926        9.354        0.011      337.120        8.880      862.064
10/24/2014  01:35:00      -99.317      -50.239      -10.659       32.360       20.108       16.508     1047.188      404.327      272.502        0.711        0.086      111.301       13.264        0.014      337.138        8.910      862.065
10/24/2014  01:36:00     -129.191      -78.628      -10.228       35.765       21.164       20.601     1279.166      447.905      424.420        1.256        0.108      151.237       15.416        0.010      337.085        8.821      862.109
10/24/2014  01:37:00     -107.037      -54.269       -3.353       30.286       30.662       14.147      917.269      940.155      200.130        0.824        0.103      120.009       11.320        0.009      336.990        8.660      862.110
10/24/2014  01:38:00      -22.209      -34.591        8.785       37.223       26.676       21.634     1385.556      711.630      468.027        0.217        0.128       41.107       24.862        0.366      336.962        8.614      862.108
10/24/2014  01:39:00      -23.209      -40.313       12.673       31.683       25.921       20.381     1003.840      671.906      415.400        0.221        0.105       46.517       18.966        0.166      337.047        8.758      862.137
10/24/2014  01:40:00      -35.482      -31.570        1.153       15.974       15.074       10.171      255.178      227.217      103.457        0.142        0.029       47.494        8.272        0.030      337.035        8.736      862.131
10/24/2014  01:41:00      -53.762        5.121       -5.345       15.976       10.631        7.357      255.225      113.025       54.127        0.168        0.021       54.005        4.506        0.007      337.069        8.794      862.099
10/24/2014  01:42:00     -100.389       12.290      -11.031       17.488        7.199        5.327      305.818       51.826       28.374        0.537        0.019      101.139        4.398        0.002      337.071        8.797      862.070
10/24/2014  01:43:00      -90.421       13.052       -9.530       22.544       12.748       11.737      508.212      162.520      137.750        0.462        0.040       91.358        8.549        0.009      337.039        8.743      862.033
10/24/2014  01:44:00      -71.843      -20.753       -3.478       23.842       18.515       14.798      568.459      342.810      218.979        0.337        0.057       74.780       17.135        0.053      337.110        8.863      862.037
10/24/2014  01:45:00      -25.357      -30.367        5.927       23.297       14.099       16.697      542.745      198.778      278.791        0.131        0.051       39.562       11.897        0.090      337.113        8.867      862.082
10/24/2014  01:46:00     -101.746      -32.074       -6.336       22.910       15.835       11.719      524.870      250.752      137.325        0.617        0.046      106.682       10.911        0.010      337.096        8.840      862.100
10/24/2014  01:47:00     -106.931       -9.287      -18.153       26.021       21.315       11.716      677.085      454.314      137.269        0.656        0.063      107.334       11.487        0.011      336.961        8.611      862.068
10/24/2014  01:48:00      -91.975       15.503      -10.041       25.710       16.742       12.368      661.025      280.292      152.957        0.495        0.055       93.272        7.971        0.007      336.859        8.443      862.035
10/24/2014  01:49:00      -16.750       -1.669        0.745       29.082       21.083       14.769      845.762      444.513      218.128        0.090        0.075       16.833       15.456        0.843      336.965        8.620      861.999
10/24/2014  01:50:00        7.842      -21.148       -7.865       11.287       15.517       10.841      127.407      240.768      117.517        0.053        0.024       22.555        8.543        0.143      337.124        8.886      861.996
10/24/2014  01:51:00       -8.111      -28.454       -3.199       18.664       17.595       12.771      348.355      309.575      163.087        0.085        0.041       29.588        7.466        0.064      337.272        9.134      862.026
10/24/2014  01:52:00      -43.385      -32.348       -0.012       16.831       12.832       11.260      283.279      164.659      126.789        0.175        0.029       54.117        7.859        0.021      337.135        8.905      862.027
10/24/2014  01:53:00      -79.628      -36.008       -4.207       12.209       12.617       11.657      149.056      159.189      135.878        0.405        0.022       87.391        7.379        0.007      337.003        8.683      862.027
10/24/2014  01:54:00      -74.830      -26.520      -10.897        7.042        7.888        5.889       49.595       62.224       34.684        0.328        0.007       79.391        3.355        0.002      336.934        8.568      862.035
10/24/2014  01:55:00      -63.031      -14.878       -8.429       11.447       10.941        9.994      131.024      119.714       99.874        0.231        0.018       64.763        6.886        0.011      336.919        8.542      862.015
10/24/2014  01:56:00      -54.247      -21.563      -11.548        8.727        9.628        7.141       76.161       92.703       50.989        0.188        0.011       58.376        4.522        0.006      336.915        8.538      861.985
10/24/2014  01:57:00      -54.842      -44.616      -12.584        8.736        9.370        7.389       76.313       87.804       54.601        0.269        0.011       70.698        4.611        0.004      336.919        8.543      861.993
10/24/2014  01:58:00      -62.058      -38.844      -11.721       12.566       11.013        8.625      157.893      121.295       74.392        0.293        0.018       73.212        3.318        0.002      336.845        8.421      862.005
10/24/2014  01:59:00      -73.754      -13.158      -10.789       11.756       14.840        7.553      138.213      220.211       57.049        0.307        0.021       74.918        5.002        0.004      336.823        8.383      861.995
10/24/2014  02:00:00      -78.856       -6.192      -14.592       13.735        9.657       13.434      188.653       93.252      180.465        0.347        0.023       79.099       10.070        0.016      336.856        8.439      861.964
10/24/2014  02:01:00      -81.992      -26.567      -14.335       11.572       12.105       10.161      133.918      146.534      103.247        0.401        0.019       86.188        6.552        0.006      336.759        8.276      861.974
10/24/2014  02:02:00      -51.052      -33.247       -5.338       15.170       12.287        7.312      230.120      150.962       53.467        0.209        0.022       60.923        4.976        0.007      336.720        8.213      861.981
10/24/2014  02:03:00      -68.670      -13.451      -16.137       13.194        7.055        7.680      174.094       49.769       58.976        0.272        0.014       69.975        6.731        0.009      336.808        8.359      861.949
10/24/2014  02:04:00     -116.621      -10.436      -21.473       12.134        8.588        8.130      147.237       73.751       66.089        0.723        0.014      117.087        3.068        0.001      336.745        8.255      861.942
10/24/2014  02:05:00     -103.507      -36.221      -10.412       21.127       12.594       12.369      446.358      158.612      152.982        0.645        0.038      109.662       11.493        0.011      336.666        8.122      861.963
10/24/2014  02:06:00      -78.941      -31.699       -7.777       22.403       22.082       14.656      501.884      487.635      214.811        0.425        0.060       85.068        6.164        0.005      336.592        7.998      861.981
10/24/2014  02:07:00      -40.788      -25.226       -2.328       23.447        9.255       11.733      549.761       85.650      137.652        0.154        0.039       47.959        7.687        0.026      336.701        8.180      861.981
10/24/2014  02:08:00      -43.921      -24.532        0.550       30.030       16.489       11.697      901.789      271.895      136.809        0.192        0.066       50.308        9.368        0.035      336.717        8.209      861.963
10/24/2014  02:09:00      -90.910      -52.704       -5.532       21.051       12.146       15.462      443.157      147.522      239.082        0.595        0.041      105.082        9.398        0.008      336.705        8.186      861.954
10/24/2014  02:10:00     -124.663      -79.662      -10.849       39.491       23.474       19.265     1559.545      551.036      371.156        1.224        0.124      147.942       16.609        0.013      336.699        8.176      861.957
10/24/2014  02:11:00      -89.121      -30.328        3.473       36.189       28.988       17.518     1309.667      840.316      306.864        0.567        0.123       94.140       16.431        0.030      336.548        7.925      861.945
10/24/2014  02:12:00      -72.308      -12.752       -7.547       14.877       12.141        9.713      221.318      147.396       94.333        0.296        0.023       73.424        6.278        0.007      336.650        8.096      861.898
10/24/2014  02:13:00      -53.628      -27.584      -10.299       12.167       11.931        9.100      148.032      142.356       82.813        0.206        0.019       60.307        4.502        0.006      336.733        8.233      861.909
10/24/2014  02:14:00      -67.082      -34.422       -5.766       19.144       18.564       13.067      366.493      344.636      170.749        0.330        0.044       75.398        9.029        0.014      336.735        8.237      861.932
10/24/2014  02:15:00      -90.262      -20.714      -11.791       18.274       14.759        9.789      333.922      217.828       95.832        0.468        0.032       92.608        8.955        0.009      336.702        8.183      861.899
10/24/2014  02:16:00     -101.405      -42.818       -6.978       17.541       13.590       11.650      307.692      184.694      135.716        0.640        0.031      110.075        8.651        0.006      336.658        8.109      861.863
10/24/2014  02:17:00      -72.061      -43.140       -1.043       25.644       18.789       15.994      657.596      353.009      255.818        0.416        0.063       83.987       13.238        0.025      336.539        7.909      861.886
10/24/2014  02:18:00      -77.523      -31.809       -7.598       13.337       11.997        7.925      177.879      143.919       62.806        0.373        0.019       83.795        4.445        0.003      336.663        8.116      861.908
10/24/2014  02:19:00      -87.943       -5.450      -15.211        9.027        6.931        8.058       81.485       48.037       64.936        0.409        0.010       88.111        2.709        0.001      336.699        8.177      861.870
10/24/2014  02:20:00     -103.003      -15.331      -12.240        9.057        9.173        6.473       82.028       84.137       41.905        0.560        0.010      104.138        2.978        0.001      336.628        8.059      861.861
10/24/2014  02:21:00      -58.498      -29.421        2.662       44.696       18.505       13.031     1997.704      342.451      169.800        0.340        0.125       65.480       19.693        0.090      336.551        7.931      861.896
10/24/2014  02:22:00      -47.478      -45.472        2.558       46.132       31.747       21.808     2128.186     1007.844      475.586        0.397        0.181       65.741       20.050        0.093      336.515        7.867      861.932
10/24/2014  02:23:00     -133.999      -68.451       -9.896       35.656       31.268       16.048     1271.345      977.677      257.524        1.262        0.125      150.470       11.198        0.006      336.458        7.775      861.918
10/24/2014  02:24:00      -98.731      -19.426       -9.408       31.484       33.747       14.284      991.255     1138.868      204.030        0.627        0.117      100.624       10.174        0.010      336.356        7.601      861.864
10/24/2014  02:25:00     -111.960      -14.710      -13.372       21.589       16.414       11.929      466.084      269.415      142.302        0.690        0.044      112.922       12.160        0.012      336.330        7.560      861.846
10/24/2014  02:26:00      -92.851      -40.994      -11.671       22.486       15.611       10.366      505.631      243.709      107.449        0.565        0.043      101.498        9.376        0.009      336.333        7.563      861.891
10/24/2014  02:27:00      -36.416      -24.763       -1.843       27.569       12.319       12.093      760.026      151.761      146.246        0.150        0.053       44.038        6.968        0.025      336.391        7.660      861.885
10/24/2014  02:28:00      -26.377       -7.435       -7.005       26.103       20.833       16.101      681.382      434.016      259.229        0.109        0.069       27.405       11.407        0.173      336.508        7.856      861.827
10/24/2014  02:29:00      -35.452      -11.299       -2.935       19.020       18.920       12.650      361.779      357.960      160.011        0.114        0.044       37.209       12.566        0.114      336.569        7.960      861.804
10/24/2014  02:30:00      -63.117      -25.984      -11.552       14.543       16.342        8.641      211.501      267.053       74.665        0.267        0.028       68.256        4.272        0.004      336.553        7.933      861.816
10/24/2014  02:31:00       -3.330      -28.773       -4.692       18.937       14.982       10.682      358.610      224.467      114.102        0.078        0.035       28.965       11.563        0.159      336.507        7.855      861.829
10/24/2014  02:32:00        9.314      -11.792        9.221       10.374       10.412        8.838      107.611      108.414       78.111        0.030        0.015       15.027        6.252        0.173      336.491        7.829      861.811
10/24/2014  02:33:00      -30.438       -1.214       -9.013       26.241       11.398        8.604      688.600      129.925       74.027        0.095        0.045       30.462       11.443        0.141      336.613        8.033      861.783
10/24/2014  02:34:00      -90.520      -38.867      -12.517       16.062       18.985       12.336      257.976      360.433      152.169        0.532        0.039       98.512        7.857        0.006      336.532        7.898      861.786
10/24/2014  02:35:00     -130.151      -53.665      -16.721       12.213       16.449       13.710      149.167      270.579      187.961        1.035        0.030      140.781        7.023        0.002      336.393        7.666      861.808
10/24/2014  02:36:00     -150.995      -63.511      -14.201       27.960       18.672       14.985      781.788      348.634      224.554        1.419        0.068      163.808       14.097        0.007      336.239        7.408      861.858
10/24/2014  02:37:00     -112.793      -38.912       -6.560       36.502       34.627       20.715     1332.374     1198.996      429.125        0.862        0.148      119.316       19.608        0.027      336.197        7.337      861.860
10/24/2014  02:38:00     -141.173        9.907       -6.932       61.726       36.533       30.219     3810.122     1334.662      913.186        1.307        0.303      141.520       34.258        0.059      336.264        7.447      861.835
10/24/2014  02:39:00     -145.740       17.335      -13.384       42.897       32.860       23.920     1840.164     1079.781      572.151        1.261        0.175      146.767       18.796        0.016      336.464        7.783      861.828
10/24/2014  02:40:00      -78.605       -9.897        0.979       48.075       33.065       24.695     2311.229     1093.282      609.831        0.515        0.201       79.226       29.142        0.135      336.409        7.692      861.835
10/24/2014  02:41:00      -33.613      -33.782        3.722       25.296       21.813       15.275      639.865      475.788      233.328        0.182        0.067       47.656       12.370        0.067      336.425        7.717      861.839
10/24/2014  02:42:00      -44.847      -15.856        1.302       27.868       16.061       14.396      776.610      257.965      207.234        0.175        0.062       47.568       10.726        0.051      336.369        7.623      861.828
10/24/2014  02:43:00      -42.107      -12.574       -2.599       39.615       26.812       14.262     1569.313      718.889      203.401        0.221        0.125       43.944       12.453        0.080      336.383        7.649      861.816
10/24/2014  02:44:00     -114.953      -26.323      -10.528       35.428       36.830       17.687     1255.173     1356.470      312.843        0.847        0.146      117.929       18.713        0.025      336.472        7.797      861.816
10/24/2014  02:45:00     -111.818      -42.084      -12.321       33.789       25.305       14.780     1141.670      640.347      218.454        0.821        0.100      119.475       14.546        0.015      336.512        7.865      861.809
10/24/2014  02:46:00      -97.155      -33.286       -4.296       22.179       31.229       15.179      491.915      975.249      230.413        0.613        0.085      102.699        9.263        0.008      336.469        7.793      861.788
10/24/2014  02:47:00     -111.306      -40.257       -6.142       20.182       19.498       16.742      407.306      380.178      280.311        0.756        0.053      118.362       11.682        0.010      336.414        7.700      861.768
10/24/2014  02:48:00      -98.936      -59.467       -3.079       27.377       19.406       15.651      749.523      376.601      244.961        0.735        0.069      115.433       11.945        0.011      336.339        7.574      861.789
10/24/2014  02:49:00      -31.962      -36.573        8.233       35.023       16.042       16.517     1226.599      257.339      272.805        0.209        0.088       48.571       20.100        0.171      336.337        7.571      861.836
10/24/2014  02:50:00        9.034      -13.781        9.953       14.760       12.977        9.807      217.869      168.391       96.184        0.043        0.024       16.478        6.309        0.147      336.398        7.673      861.836
10/24/2014  02:51:00      -69.888        3.866       -6.970       26.953       17.423        9.577      726.457      303.551       91.714        0.303        0.056       69.995        4.672        0.004      336.462        7.781      861.764
10/24/2014  02:52:00     -108.826       17.154      -15.287       25.237       22.964       11.896      636.917      527.362      141.518        0.684        0.065      110.169        9.969        0.008      336.376        7.638      861.707
10/24/2014  02:53:00     -161.209      -57.404      -19.235       28.473       28.182       14.925      810.686      794.241      222.769        1.574        0.091      171.125        8.449        0.002      336.308        7.521      861.754
10/24/2014  02:54:00     -114.041      -53.651        2.097       62.000       30.667       20.934     3844.026      940.488      438.213        1.055        0.261      126.031       25.772        0.042      336.258        7.440      861.822
10/24/2014  02:55:00     -100.097      -35.761       -0.599       49.376       41.329       22.862     2437.949     1708.122      522.670        0.798        0.233      106.293       25.469        0.057      336.358        7.605      861.827
10/24/2014  02:56:00      -89.847      -27.143       -5.766       44.526       27.042       14.567     1982.534      731.254      212.188        0.588        0.146       93.857       15.545        0.027      336.329        7.558      861.748
10/24/2014  02:57:00      -43.040      -36.319        4.047       31.218       20.994       13.853      974.555      440.733      191.903        0.240        0.080       56.316       17.808        0.100      336.286        7.487      861.706
10/24/2014  02:58:00     -106.058      -47.855      -11.112       19.541       12.066       10.299      381.854      145.582      106.071        0.715        0.032      116.355        5.750        0.002      336.312        7.529      861.746
10/24/2014  02:59:00     -136.676      -33.966       -9.630       31.745       19.664       13.177     1007.736      386.674      173.645        1.075        0.078      140.833       16.097        0.013      336.359        7.607      861.759
10/24/2014  03:00:00      -99.912      -23.443       -6.851       47.602       24.420       16.981     2265.951      596.344      288.341        0.686        0.158      102.625       17.676        0.030      336.307        7.520      861.760
10/24/2014  03:01:00     -152.559      -31.438       -7.871       38.703       30.743       20.888     1497.957      945.111      436.289        1.360        0.144      155.764       17.082        0.012      336.168        7.288      861.792
10/24/2014  03:02:00     -140.711      -11.112       -4.814       54.997       36.375       27.193     3024.632     1323.172      739.474        1.252        0.254      141.149       24.928        0.031      336.136        7.235      861.780
10/24/2014  03:03:00     -136.143       47.811      -13.652       45.262       29.515       26.142     2048.669      871.142      683.379        1.230        0.180      144.294       23.047        0.026      336.111        7.192      861.707
10/24/2014  03:04:00     -110.822        8.479      -12.032       38.394       33.263       22.572     1474.123     1106.394      509.495        0.779        0.155      111.146       21.013        0.036      336.262        7.445      861.689
10/24/2014  03:05:00      -32.845      -29.635        1.777       35.722       34.079       13.085     1276.085     1161.380      171.225        0.228        0.130       44.238       11.692        0.070      336.243        7.415      861.690
10/24/2014  03:06:00      -67.069      -34.079       -7.821       21.034       17.201       16.442      442.423      295.862      270.327        0.336        0.050       75.230        5.217        0.005      336.171        7.293      861.651
10/24/2014  03:07:00      -65.713      -14.409      -15.302       28.863       22.990       12.927      833.054      528.563      167.101        0.314        0.076       67.275       12.820        0.036      336.217        7.372      861.638
10/24/2014  03:08:00      -64.014      -18.149        0.824       36.060       19.786       15.368     1300.334      391.479      236.186        0.318        0.096       66.537       17.857        0.072      336.149        7.256      861.646
10/24/2014  03:09:00      -67.720      -17.761       -0.650       49.353       37.470       23.523     2435.680     1404.023      553.341        0.465        0.220       70.010       25.235        0.130      336.106        7.184      861.644
10/24/2014  03:10:00      -72.667      -28.918       -5.731       30.777       22.315       16.746      947.248      497.970      280.427        0.394        0.086       78.209        9.235        0.014      336.153        7.263      861.635
10/24/2014  03:11:00      -73.348       -8.925       -9.044       39.272       30.027       20.646     1542.323      901.638      426.259        0.421        0.144       73.889       13.968        0.036      336.069        7.123      861.668
10/24/2014  03:12:00       -3.561      -50.927       -5.486       15.543       19.594       17.356      241.599      383.925      301.214        0.178        0.046       51.051       14.723        0.083      336.196        7.334      861.699
10/24/2014  03:13:00      -24.820      -12.570      -11.465       22.859       16.555       11.577      522.544      274.066      134.020        0.092        0.047       27.822       11.025        0.157      336.169        7.290      861.686
10/24/2014  03:14:00     -101.055        0.659      -15.362       25.337       12.454       13.309      641.945      155.091      177.130        0.571        0.049      101.057        9.467        0.009      336.200        7.341      861.636
10/24/2014  03:15:00     -104.940      -20.985      -17.677       27.740       17.050       13.385      769.529      290.707      179.147        0.650        0.062      107.018       13.339        0.016      336.192        7.328      861.608
10/24/2014  03:16:00     -156.315      -34.145      -19.781       22.094       21.455       15.291      488.139      460.297      233.814        1.359        0.059      160.000       10.542        0.004      336.155        7.266      861.574
10/24/2014  03:17:00     -108.457      -32.037      -15.859       32.551       30.646       17.349     1059.590      939.183      300.999        0.767        0.115      113.090       11.959        0.011      336.074        7.132      861.574
10/24/2014  03:18:00      -28.729      -16.097        0.573       35.900       26.289       22.600     1288.828      691.138      510.742        0.179        0.125       32.931       21.564        0.429      336.025        7.048      861.617
10/24/2014  03:19:00      -49.976      -51.286        4.808       75.696       37.269       29.418     5729.868     1388.977      865.398        0.657        0.399       71.609       35.209        0.242      336.047        7.087      861.688
10/24/2014  03:20:00     -115.833      -63.053        7.037       72.934       38.076       25.982     5319.398     1449.746      675.090        1.244        0.372      131.882       30.068        0.052      336.072        7.130      861.721
10/24/2014  03:21:00      -75.633      -52.512        6.394       53.891       32.597       23.232     2904.240     1062.574      539.737        0.651        0.225       92.075       21.885        0.056      336.141        7.242      861.682
10/24/2014  03:22:00      -67.544      -18.718       -5.208       35.137       26.849       13.720     1234.615      720.886      188.226        0.354        0.107       70.090       13.929        0.039      336.222        7.378      861.593
10/24/2014  03:23:00      -96.402      -26.889      -19.473       24.103       15.308        8.708      580.954      234.321       75.822        0.564        0.045      100.082        7.594        0.006      336.367        7.621      861.543
10/24/2014  03:24:00      -94.373      -21.850      -11.874       25.286       18.874       11.873      639.401      356.217      140.960        0.533        0.057       96.870        9.180        0.009      336.341        7.577      861.537
10/24/2014  03:25:00     -138.784      -72.481      -12.147       29.529       19.876       15.828      871.991      395.074      250.510        1.309        0.076      156.571       14.973        0.009      336.314        7.533      861.577
10/24/2014  03:26:00      -99.872      -34.038       -6.218       43.297       28.624       20.193     1874.612      819.353      407.748        0.714        0.155      105.513       22.016        0.044      336.178        7.306      861.597
10/24/2014  03:27:00      -99.679      -29.053      -10.378       19.806       18.827        9.855      392.287      354.456       97.119        0.587        0.042      103.826        5.697        0.003      336.122        7.211      861.559
10/24/2014  03:28:00      -99.206      -42.433       -9.950       26.347       21.656       13.930      694.155      468.964      194.049        0.655        0.068      107.900       12.084        0.013      336.093        7.163      861.518
10/24/2014  03:29:00      -46.755      -56.915       -2.367       28.620       20.464       12.671      819.119      418.758      160.548        0.341        0.070       73.657       14.424        0.038      336.161        7.277      861.534
10/24/2014  03:30:00      -73.090      -70.900       -0.545       30.050       17.938       17.108      903.001      321.768      292.696        0.594        0.076      101.828       12.521        0.015      336.223        7.380      861.574
10/24/2014  03:31:00     -150.363      -85.821       -9.023       52.751       32.301       22.833     2782.660     1043.358      521.327        1.720        0.217      173.131       26.304        0.023      336.144        7.247      861.598
10/24/2014  03:32:00     -186.010      -48.243      -13.021       43.506       26.761       20.844     1892.801      716.145      434.488        2.007        0.152      192.165       20.745        0.012      336.119        7.205      861.604
10/24/2014  03:33:00     -140.443      -23.348       -4.579       44.241       26.213       22.921     1957.243      687.101      525.376        1.173        0.158      142.370       22.844        0.026      335.986        6.984      861.596
10/24/2014  03:34:00     -103.036      -20.813       -2.987       28.074       16.909       14.060      788.162      285.915      197.677        0.616        0.064      105.117       12.030        0.013      335.993        6.997      861.548
10/24/2014  03:35:00      -80.929      -21.224       -4.338       27.832       28.770       14.566      774.608      827.704      212.163        0.442        0.091       83.666       14.172        0.029      336.097        7.169      861.504
10/24/2014  03:36:00      -58.736      -54.495       -3.379       34.804       25.678       19.962     1211.347      659.351      398.484        0.435        0.113       80.122       14.407        0.032      336.067        7.120      861.521
10/24/2014  03:37:00      -63.144      -45.478       -3.055       32.214       30.119       17.534     1037.715      907.141      307.444        0.416        0.113       77.817        9.911        0.016      336.049        7.090      861.541
10/24/2014  03:38:00      -86.822      -39.963      -10.123       29.156       13.026       12.763      850.070      169.676      162.896        0.521        0.059       95.577       13.298        0.019      336.054        7.099      861.543
10/24/2014  03:39:00      -88.915      -24.039       -5.647       15.175       20.627       11.935      230.278      425.487      142.436        0.466        0.040       92.108        2.986        0.001      336.121        7.209      861.550
10/24/2014  03:40:00      -19.097      -17.311       -4.956       14.526       13.957        6.942      210.997      194.795       48.187        0.057        0.023       25.775        4.087        0.025      336.092        7.161      861.532
10/24/2014  03:41:00      -74.710      -24.626       -8.822       16.283       16.233        9.881      265.125      263.525       97.632        0.345        0.031       78.664        7.842        0.010      336.096        7.168      861.503
10/24/2014  03:42:00     -107.939      -32.632       -9.644       19.022       17.335       12.132      361.849      300.513      147.178        0.681        0.040      112.764        9.876        0.008      336.076        7.136      861.501
10/24/2014  03:43:00     -142.716      -39.428      -12.355       24.954       30.075       20.542      622.705      904.519      421.994        1.201        0.097      148.062       18.253        0.015      335.970        6.958      861.537
10/24/2014  03:44:00      -80.614      -28.685      -12.990       31.984       17.337       14.678     1022.994      300.574      215.446        0.451        0.077       85.566       10.516        0.015      335.958        6.939      861.548
10/24/2014  03:45:00      -47.563      -18.356      -13.038       15.998       16.187        7.563      255.922      262.027       57.200        0.167        0.029       50.982        6.534        0.016      336.025        7.050      861.510
10/24/2014  03:46:00      -66.473      -13.478       -8.365       24.745       16.027       11.290      612.294      256.875      127.463        0.283        0.050       67.826        9.594        0.020      336.036        7.067      861.488
10/24/2014  03:47:00     -122.303      -64.029       -9.027       30.327       20.873       13.985      919.717      435.703      195.588        1.034        0.078      138.050        9.319        0.005      335.999        7.008      861.524
10/24/2014  03:48:00     -131.083      -65.838       -7.117       29.675       18.423       16.338      880.633      339.396      266.941        1.153        0.074      146.688       13.793        0.009      335.944        6.915      861.555
10/24/2014  03:49:00     -105.403      -36.607      -11.705       12.410       18.508       15.506      154.000      342.564      240.448        0.666        0.037      111.579        5.295        0.002      335.946        6.918      861.524
10/24/2014  03:50:00     -104.930      -35.707      -12.454       29.943       21.157       13.302      896.560      447.604      176.947        0.698        0.076      110.840        9.700        0.008      335.937        6.903      861.480
10/24/2014  03:51:00      -80.407      -15.433        2.746       62.533       33.634       26.603     3910.360     1131.216      707.742        0.623        0.287       81.875       30.763        0.141      335.785        6.651      861.484
10/24/2014  03:52:00      -52.144       -5.410      -10.862       46.404       26.388       19.316     2153.313      696.328      373.097        0.304        0.161       52.423       14.410        0.076      335.782        6.646      861.475
10/24/2014  03:53:00      -39.362      -17.531       -0.417       42.857       41.170       23.233     1836.697     1694.999      539.777        0.296        0.204       43.089       15.563        0.130      335.808        6.689      861.453
10/24/2014  03:54:00      -54.828      -26.858        1.139       54.736       38.431       25.072     2995.988     1476.912      628.610        0.441        0.255       61.053       29.735        0.237      335.802        6.677      861.504
10/24/2014  03:55:00     -166.116      -33.659      -16.139       34.320       36.298       18.282     1177.859     1317.535      334.225        1.591        0.141      169.492       17.212        0.010      335.774        6.632      861.551
10/24/2014  03:56:00     -121.431      -27.178      -16.394       26.640       19.089       15.439      709.673      364.372      238.363        0.853        0.066      124.435        8.868        0.005      335.726        6.553      861.537
10/24/2014  03:57:00      -60.804       -5.640      -12.111       30.685       33.925       17.801      941.562     1150.915      316.881        0.314        0.120       61.065       16.399        0.072      335.786        6.654      861.481
10/24/2014  03:58:00       -8.340      -25.693       -9.706       20.629       16.238       13.381      425.557      263.659      179.046        0.085        0.043       27.013        9.111        0.114      335.898        6.839      861.447
10/24/2014  03:59:00      -69.363      -18.170      -13.221       49.884       32.101       15.528     2488.425     1030.479      241.104        0.454        0.188       71.703        9.041        0.016      335.935        6.901      861.472
10/24/2014  04:00:00      -56.993      -27.790        5.277       52.871       41.196       31.115     2795.344     1697.123      968.132        0.475        0.273       63.407       36.835        0.337      335.859        6.774      861.523
10/24/2014  04:01:00        6.790      -17.248        6.654       36.500       24.858       23.334     1332.222      617.934      544.478        0.144        0.125       18.536       22.155        1.429      335.920        6.873      861.523
10/24/2014  04:02:00      -16.010      -10.890        6.243       25.954       16.308       15.249      673.587      265.947      232.538        0.079        0.059       19.362       16.355        0.713      335.878        6.806      861.463
10/24/2014  04:03:00       18.881        7.465       -0.031       15.597       11.556       12.457      243.257      133.538      155.184        0.047        0.027       20.303        3.795        0.035      336.096        7.169      861.413
10/24/2014  04:04:00        2.401       -4.177       16.023       17.810       15.414       17.307      317.180      237.584      299.534        0.057        0.043        4.818       11.240        5.443      335.996        7.000      861.458
10/24/2014  04:05:00      -51.595      -25.136      -12.569       48.331       16.090       12.521     2335.910      258.888      156.785        0.310        0.138       57.393        6.511        0.013      336.100        7.174      861.465
10/24/2014  04:06:00     -141.629      -36.316      -21.923       16.231       26.722        9.190      263.437      714.084       84.460        1.146        0.053      146.211        5.709        0.002      335.785        6.651      861.436
10/24/2014  04:07:00     -122.361      -44.123      -13.580       36.804       23.318       15.556     1354.538      543.748      241.974        0.962        0.107      130.073       17.865        0.019      335.923        6.880      861.465
10/24/2014  04:08:00      -37.719      -52.743        0.557       31.228       19.405       13.819      975.214      376.568      190.973        0.287        0.077       64.843        4.218        0.004      335.958        6.937      861.543
10/24/2014  04:09:00      -77.690      -34.560       -5.168       24.385       20.780       14.853      594.642      431.812      220.616        0.425        0.062       85.030       13.154        0.024      336.007        7.019      861.541
10/24/2014  04:10:00     -117.984      -35.553      -12.412       20.917       29.249       14.507      437.523      855.507      210.445        0.842        0.075      123.225        9.621        0.006      335.998        7.004      861.471
10/24/2014  04:11:00     -130.966      -48.672      -18.224       12.935       16.770       15.236      167.327      281.232      232.131        1.027        0.034      139.717        9.401        0.005      335.886        6.817      861.467
10/24/2014  04:12:00     -118.431      -49.535       -5.017       30.060       26.244       19.096      903.612      688.723      364.660        0.923        0.098      128.373       19.011        0.022      335.891        6.828      861.489
10/24/2014  04:13:00     -103.991        4.519      -11.921       20.989       25.611        9.479      440.533      655.936       89.853        0.608        0.059      104.089        7.337        0.005      335.888        6.821      861.439
10/24/2014  04:14:00      -63.989       19.795       -9.024       19.878       11.950        9.074      395.136      142.807       82.330        0.259        0.031       66.981        8.320        0.015      335.930        6.893      861.388
10/24/2014  04:15:00      -36.786       13.508       -9.316       12.945       14.917        9.056      167.563      222.532       82.003        0.105        0.024       39.188        4.124        0.011      336.249        7.424      861.374
10/24/2014  04:16:00      -35.921      -18.936      -12.450       12.690       17.830        6.969      161.041      317.924       48.570        0.117        0.026       40.606        5.311        0.017      336.220        7.374      861.366
10/24/2014  04:17:00      -28.673      -19.579       -2.936       35.382       21.834       17.905     1251.858      476.705      320.602        0.163        0.102       34.720       13.768        0.157      336.015        7.033      861.394
10/24/2014  04:18:00      -63.362      -21.062       -7.924       16.166       20.131       15.358      261.330      405.258      235.879        0.271        0.045       66.771       11.621        0.030      335.957        6.937      861.417
10/24/2014  04:19:00      -50.132       -6.952       -4.977       10.898       12.574        7.387      118.760      158.098       54.564        0.146        0.017       50.612        6.256        0.015      335.972        6.960      861.378
10/24/2014  04:20:00      -40.522      -16.127        0.053       15.534       20.836        9.508      241.297      434.158       90.398        0.133        0.038       43.614        9.075        0.043      335.957        6.936      861.333
10/24/2014  04:21:00      -93.494      -46.699      -14.399       14.710       14.442        8.157      216.385      208.583       66.541        0.581        0.025      104.508        7.105        0.005      335.908        6.854      861.339
10/24/2014  04:22:00     -129.726      -68.045      -10.176       32.622       18.286       17.500     1064.201      334.384      306.265        1.163        0.085      146.489       16.126        0.012      335.857        6.769      861.370
10/24/2014  04:23:00     -128.348      -55.691      -13.016       24.089       20.286       10.329      580.295      411.517      106.678        1.042        0.055      139.910        8.452        0.004      335.803        6.680      861.403
10/24/2014  04:24:00      -85.419      -28.988       -7.693       26.698       12.792       12.180      712.802      163.631      148.364        0.461        0.051       90.204        8.968        0.010      335.792        6.662      861.399
10/24/2014  04:25:00      -53.789        2.413       -6.015       12.531       25.891        9.579      157.038      670.354       91.748        0.193        0.046       53.843        6.201        0.013      335.792        6.661      861.347
10/24/2014  04:26:00      -55.929       15.283       -3.567       19.401       20.643       13.424      376.383      426.129      180.199        0.218        0.049       57.980       13.573        0.055      335.922        6.878      861.311
10/24/2014  04:27:00        6.829       35.651       -4.998       10.187       10.916        5.110      103.778      119.151       26.110        0.080        0.012       36.300        3.894        0.012      335.792        6.663      861.318
10/24/2014  04:28:00      -11.549      -11.718       -1.916       12.983       12.680        8.040      168.565      160.793       64.642        0.033        0.020       16.453        7.311        0.197      335.824        6.716      861.356
10/24/2014  04:29:00      -64.328      -38.624       -8.467       28.561       16.668       13.738      815.754      277.809      188.740        0.349        0.064       75.032       11.450        0.023      335.867        6.787      861.397
10/24/2014  04:30:00     -111.889      -13.153      -13.986       24.397       22.597       16.658      595.213      510.635      277.484        0.714        0.069      112.659       15.710        0.019      335.802        6.679      861.389
10/24/2014  04:31:00      -81.956       15.066      -17.883       42.633       36.242       24.611     1817.586     1313.479      605.720        0.550        0.187       83.329       20.271        0.059      335.618        6.372      861.330
10/24/2014  04:32:00      -52.080       44.857      -13.355       14.743       13.978        8.855      217.365      195.387       78.413        0.270        0.025       68.735        4.161        0.004      335.954        6.931      861.288
10/24/2014  04:33:00      -11.637       -0.480       -0.527       12.465       13.519        9.228      155.368      182.772       85.151        0.028        0.021       11.647        9.474        0.662      336.121        7.210      861.314
10/24/2014  04:34:00      -16.401      -36.501       -2.583       22.914       10.080       11.042      525.066      101.612      121.932        0.118        0.037       40.016        7.593        0.036      335.989        6.990      861.367
10/24/2014  04:35:00      -89.751      -37.097      -10.761       11.201       12.996        9.162      125.465      168.905       83.939        0.496        0.019       97.116        4.671        0.002      335.737        6.572      861.353
10/24/2014  04:36:00      -71.681      -25.854       -8.874       11.299        9.348        9.370      127.677       87.389       87.790        0.309        0.015       76.201        4.799        0.004      335.765        6.617      861.338
10/24/2014  04:37:00      -66.247      -31.201       -8.910       15.399       14.298        7.897      237.135      204.433       62.363        0.297        0.025       73.227        5.490        0.006      335.852        6.762      861.372
10/24/2014  04:38:00      -87.964      -23.843       -8.365       18.430       14.486        7.454      339.654      209.859       55.557        0.449        0.030       91.138        5.523        0.004      335.898        6.838      861.392
10/24/2014  04:39:00     -100.689      -15.011      -16.939       11.262       14.682       12.077      126.834      215.560      145.851        0.557        0.024      101.802        7.191        0.005      335.836        6.737      861.373
10/24/2014  04:40:00      -92.432      -23.639      -12.009       22.419       17.228       15.048      502.589      296.799      226.429        0.514        0.051       95.407       10.071        0.011      335.766        6.619      861.370
10/24/2014  04:41:00      -70.934      -21.884       -8.782       24.695       13.125       10.790      609.819      172.275      116.426        0.324        0.045       74.233       10.143        0.019      335.629        6.390      861.314
10/24/2014  04:42:00      -51.557      -20.634      -12.353       25.409       15.114       14.795      645.599      228.436      218.877        0.216        0.055       55.532       14.399        0.067      335.681        6.477      861.252
10/24/2014  04:43:00      -78.761      -38.836      -16.094       16.714       15.021       10.002      279.346      225.642      100.041        0.429        0.030       87.815        7.845        0.008      335.816        6.701      861.268
10/24/2014  04:44:00     -120.727      -80.394      -17.540       43.864       42.654       20.781     1924.093     1819.352      431.838        1.276        0.209      145.046       12.033        0.007      335.666        6.452      861.369
10/24/2014  04:45:00     -150.853      -85.198       -1.654       50.410       50.556       26.758     2541.181     2555.959      715.996        1.791        0.291      173.249       15.316        0.008      335.606        6.351      861.486
10/24/2014  04:46:00     -130.514      -53.809       -7.977       44.270       49.202       23.574     1959.864     2420.859      555.755        1.246        0.247      141.171       18.045        0.016      335.642        6.412      861.448
10/24/2014  04:47:00      -36.574       -3.274      -15.822       35.516       19.695       13.745     1261.392      387.899      188.913        0.172        0.092       36.721       13.511        0.135      335.635        6.399      861.333
10/24/2014  04:48:00       25.565       17.194      -11.727       21.543       14.895       15.185      464.103      221.866      230.581        0.100        0.046       30.809       10.549        0.117      335.847        6.753      861.292
10/24/2014  04:49:00       14.433       24.076       24.424       21.126       10.794       15.395      446.313      116.506      236.999        0.109        0.040       28.071       14.228        0.257      335.821        6.710      861.303
10/24/2014  04:50:00      -29.094        1.392       -2.574       15.971        7.509       11.001      255.076       56.390      121.032        0.064        0.022       29.127        6.561        0.051      335.781        6.645      861.314
10/24/2014  04:51:00     -114.869       24.806      -15.306       24.167       12.352       10.535      584.047      152.580      110.979        0.745        0.042      117.517        8.959        0.006      335.709        6.525      861.328
10/24/2014  04:52:00     -122.512       -1.520      -14.155       36.928       38.484       21.137     1363.652     1481.046      446.792        0.925        0.165      122.522       19.459        0.025      335.570        6.292      861.354
10/24/2014  04:53:00      -55.119        2.500       -0.703       47.656       33.635       22.478     2271.070     1131.286      505.240        0.348        0.195       55.176       20.664        0.140      335.523        6.214      861.386
10/24/2014  04:54:00        9.409      -20.822        0.265       18.455       20.814       12.727      340.596      433.224      161.976        0.073        0.047       22.849        4.788        0.044      335.647        6.420      861.405
10/24/2014  04:55:00      -25.449      -38.441       -6.655       47.599       16.092       10.928     2265.663      258.947      119.420        0.241        0.132       46.101       16.769        0.132      335.910        6.859      861.407
10/24/2014  04:56:00      -84.474      -32.481      -17.601       15.643       16.014        9.852      244.688      256.450       97.067        0.455        0.030       90.503        5.286        0.003      335.874        6.797      861.395
10/24/2014  04:57:00      -93.458      -50.768      -12.278       21.171       10.980        9.950      448.215      120.552       98.998        0.607        0.033      106.357        5.276        0.002      335.789        6.656      861.407
10/24/2014  04:58:00     -109.967      -43.362      -11.501       12.023       16.519        9.675      144.564      272.877       93.604        0.731        0.026      118.207        7.522        0.004      335.806        6.686      861.423
10/24/2014  04:59:00      -75.892      -29.124      -15.837       14.793       11.532        8.104      218.840      132.989       65.669        0.364        0.021       81.288        5.709        0.005      335.752        6.595      861.441
10/24/2014  05:00:00      -46.907      -24.984      -11.336        7.109        7.801        5.425       50.537       60.857       29.428        0.155        0.007       53.146        3.783        0.005      335.890        6.823      861.432
10/24/2014  05:01:00      -57.250       -5.866       -5.882       16.335       10.720        6.856      266.826      114.928       47.004        0.189        0.021       57.549        7.804        0.018      335.973        6.962      861.363
10/24/2014  05:02:00     -124.478      -17.383      -18.373       21.079       21.186       12.561      444.329      448.834      157.776        0.859        0.053      125.686        8.539        0.005      335.797        6.670      861.304
10/24/2014  05:03:00     -128.257      -53.665      -18.791       42.931       20.452       17.634     1843.104      418.285      310.950        1.113        0.129      139.032        5.119        0.001      335.622        6.379      861.343
10/24/2014  05:04:00      -43.930      -37.618        5.401       32.524       28.726       19.780     1057.780      825.208      391.263        0.282        0.114       57.835       16.806        0.084      335.548        6.256      861.389
10/24/2014  05:05:00       19.039      -34.820        7.538       18.009       30.758       16.633      324.337      946.057      276.652        0.159        0.077       39.685        5.024        0.016      335.620        6.376      861.414
10/24/2014  05:06:00      -25.129        2.522       19.575       31.060       11.663        8.950      964.712      136.019       80.097        0.110        0.059       25.255        8.803        0.122      335.880        6.808      861.438
10/24/2014  05:07:00      -58.794        1.924      -12.066       11.403       11.369       13.156      130.029      129.252      173.074        0.202        0.022       58.825       10.031        0.029      335.892        6.828      861.416
10/24/2014  05:08:00      -88.562      -29.090      -10.689       26.492       14.366        8.322      701.834      206.386       69.263        0.489        0.049       93.217        3.706        0.002      335.808        6.688      861.422
10/24/2014  05:09:00      -91.567      -55.085      -13.482       39.521       22.574       15.338     1561.896      509.584      235.259        0.695        0.115      106.859       17.195        0.026      335.650        6.425      861.455
10/24/2014  05:10:00      -85.915      -20.026       -9.652       10.070       23.642        9.539      101.402      558.941       90.998        0.431        0.038       88.218        5.663        0.004      335.537        6.237      861.430
10/24/2014  05:11:00      -74.230        4.719      -16.350       21.011       16.050       15.452      441.477      257.593      238.767        0.337        0.047       74.379       13.670        0.034      335.573        6.297      861.387
10/24/2014  05:12:00      -94.302      -12.683      -17.063       17.787       19.498       10.817      316.362      380.186      117.007        0.508        0.041       95.151        5.723        0.004      335.660        6.443      861.392
10/24/2014  05:13:00     -127.082      -79.166      -11.310       43.769       31.600       27.053     1915.698      998.549      731.849        1.309        0.182      149.723       23.754        0.025      335.533        6.231      861.464
10/24/2014  05:14:00     -143.297      -51.318       -3.527       68.532       47.291       26.072     4696.578     2236.400      679.751        1.540        0.381      152.209       34.039        0.050      335.495        6.166      861.536
10/24/2014  05:15:00      -73.606       10.985       -0.402       43.009       25.360       14.630     1849.749      643.127      214.050        0.412        0.135       74.421       19.241        0.067      335.534        6.232      861.448
10/24/2014  05:16:00       -8.745       -0.257        4.834       13.041       19.053       10.841      170.069      363.009      117.519        0.038        0.033        8.749       12.339        1.989      335.466        6.119      861.286
10/24/2014  05:17:00      -35.544      -35.413        5.273       30.452       16.656       15.358      927.304      277.426      235.875        0.199        0.072       50.174        9.170        0.033      335.651        6.426      861.344
10/24/2014  05:18:00     -160.613      -39.561       -8.946       39.372       23.108       17.239     1550.136      533.963      297.176        1.491        0.119      165.413       20.355        0.015      335.661        6.445      861.470
10/24/2014  05:19:00     -140.934       -5.210      -10.443       61.482       36.956       27.908     3780.047     1365.724      778.839        1.296        0.296      141.030       31.819        0.051      335.509        6.189      861.472
10/24/2014  05:20:00     -125.199      -10.343      -18.176       53.727       29.745       23.449     2886.635      884.786      549.864        1.022        0.216      125.625       20.326        0.026      335.338        5.905      861.406
10/24/2014  05:21:00      -48.798      -12.418       -3.150       34.445       27.386       19.165     1186.440      749.981      367.282        0.242        0.115       50.353       17.845        0.126      335.419        6.040      861.367
10/24/2014  05:22:00      -61.673      -36.169       -4.018       22.080       19.494       14.565      487.510      380.030      212.153        0.310        0.054       71.497        9.931        0.019      335.600        6.343      861.370
10/24/2014  05:23:00      -99.075      -32.104      -13.330       30.818       20.878       12.687      949.752      435.907      160.960        0.629        0.077      104.147       11.463        0.012      335.570        6.292      861.379
10/24/2014  05:24:00     -120.917      -30.582      -10.337       30.249       31.480       18.721      915.006      990.971      350.468        0.896        0.113      124.724       13.062        0.011      335.546        6.252      861.373
10/24/2014  05:25:00     -133.771      -37.926      -25.014       30.229       30.535       19.256      913.784      932.373      370.796        1.109        0.111      139.044       11.361        0.007      335.518        6.206      861.384
10/24/2014  05:26:00      -80.826      -42.813       -1.238       47.005       33.115       28.580     2209.446     1096.633      816.820        0.624        0.206       91.464       19.348        0.045      335.476        6.136      861.441
10/24/2014  05:27:00      -96.011      -44.027       -8.110       46.795       30.231       19.192     2189.799      913.928      368.322        0.735        0.174      105.625       15.163        0.021      335.369        5.955      861.503
10/24/2014  05:28:00      -36.437      -21.046        3.241       31.706       23.947       13.549     1005.293      573.453      183.586        0.177        0.088       42.078       14.243        0.115      335.413        6.030      861.513
10/24/2014  05:29:00      -97.411       14.700       -8.624       43.737       30.511       19.648     1912.961      930.940      386.029        0.650        0.161       98.514       17.535        0.032      335.489        6.157      861.431
10/24/2014  05:30:00      -92.773       13.212      -13.102       29.783       27.920       15.494      887.022      779.520      240.062        0.543        0.095       93.709       14.169        0.023      335.548        6.255      861.377
10/24/2014  05:31:00     -115.916      -30.662       -7.118       35.076       35.017       19.779     1230.361     1226.191      391.203        0.864        0.142      119.903       14.617        0.015      335.533        6.231      861.405
10/24/2014  05:32:00      -63.217      -37.028       -5.944       48.912       36.557       21.887     2392.363     1336.421      479.026        0.480        0.210       73.263       23.804        0.106      335.530        6.224      861.441
10/24/2014  05:33:00       10.055        1.056       12.433       20.920       17.258       10.430      437.643      297.839      108.789        0.055        0.042       10.110        9.170        0.823      335.555        6.266      861.467
10/24/2014  05:34:00      -43.507        5.725       -5.651       34.533       10.039       13.012     1192.505      100.777      169.323        0.171        0.073       43.882       14.307        0.106      335.546        6.253      861.448
10/24/2014  05:35:00     -132.476      -10.101      -23.523       15.012       21.215       11.547      225.366      450.056      133.333        0.951        0.040      132.861        6.154        0.002      335.519        6.207      861.406
10/24/2014  05:36:00     -130.991      -48.576      -12.442       30.405       26.023       15.785      924.454      677.182      249.172        1.076        0.093      139.708        8.929        0.004      335.456        6.100      861.436
10/24/2014  05:37:00      -25.113      -21.044        6.295       26.677       30.644       18.904      711.636      939.068      357.362        0.156        0.100       32.764       13.993        0.182      335.328        5.887      861.464
10/24/2014  05:38:00       -4.622      -32.660       -1.612       12.909       12.066       13.297      166.652      145.593      176.818        0.079        0.024       32.985        1.811        0.003      335.573        6.295      861.453
10/24/2014  05:39:00        6.590      -67.291      -16.124       20.669       21.095       13.304      427.194      445.003      176.999        0.294        0.052       67.613        7.354        0.012      335.812        6.697      861.499
10/24/2014  05:40:00      -98.304      -41.408       -7.157       63.883       18.266       16.485     4081.085      333.647      271.759        0.806        0.234      106.669       17.166        0.026      335.605        6.350      861.538
10/24/2014  05:41:00     -142.039      -58.694       -8.444       35.290       36.467       22.628     1245.385     1329.846      512.006        1.339        0.154      153.688       17.855        0.013      335.504        6.182      861.545
10/24/2014  05:42:00     -132.358        1.065       -6.581       62.323       39.109       33.168     3884.129     1529.521     1100.137        1.204        0.326      132.362       36.891        0.078      335.310        5.857      861.527
10/24/2014  05:43:00      -58.702       -0.231       -2.606       49.091       33.236       26.238     2409.936     1104.623      688.426        0.383        0.210       58.703       24.114        0.169      335.342        5.912      861.502
10/24/2014  05:44:00      -21.705      -18.308        5.284       35.089       18.412       17.389     1231.271      339.001      302.389        0.135        0.094       28.395       10.159        0.128      335.515        6.200      861.510
10/24/2014  05:45:00       22.440       -8.694       11.843       13.972       36.904       25.187      195.220     1361.914      634.384        0.146        0.110       24.066       24.777        1.060      335.542        6.245      861.502
10/24/2014  05:46:00      -13.517        5.157       19.491       12.236       30.578       19.994      149.708      934.984      399.768        0.104        0.074       14.468       22.332        2.383      335.450        6.091      861.486
10/24/2014  05:47:00     -137.538      -46.937      -11.524       46.005       26.074       15.294     2116.469      679.864      233.898        1.214        0.152      145.327       11.580        0.006      335.555        6.267      861.528
10/24/2014  05:48:00     -110.629       -0.380      -10.726       25.880       21.425       13.657      669.770      459.032      186.520        0.683        0.066      110.630       10.541        0.009      335.363        5.946      861.552
10/24/2014  05:49:00      -66.329        7.267       -9.338       21.457       16.254       13.862      460.415      264.197      192.144        0.273        0.046       66.725       11.117        0.028      335.357        5.936      861.475
10/24/2014  05:50:00      -61.071      -21.649       -8.878       46.583       26.911       28.416     2169.987      724.223      807.456        0.399        0.185       64.795       17.754        0.075      335.418        6.038      861.464
10/24/2014  05:51:00     -136.952      -81.815        1.831       54.337       46.910       32.949     2952.480     2200.508     1085.623        1.584        0.312      159.529       25.001        0.025      335.318        5.871      861.595
10/24/2014  05:52:00     -109.608      -55.012       -4.492       62.899       51.098       27.073     3956.306     2610.960      732.924        1.118        0.365      122.638       30.212        0.061      335.369        5.956      861.662
10/24/2014  05:53:00      -83.997       45.280      -16.383       36.233       27.718       14.815     1312.806      768.264      219.486        0.584        0.115       95.424       10.393        0.012      335.444        6.081      861.587
10/24/2014  05:54:00      -71.011      116.799      -19.651       36.325       24.650       14.848     1319.506      607.641      220.470        1.061        0.107      136.691       14.298        0.011      335.896        6.835      861.468
10/24/2014  05:55:00      -10.001       32.398        2.755       25.578       30.681       18.994      654.223      941.344      360.764        0.156        0.098       33.906       17.453        0.265      335.716        6.536      861.462
10/24/2014  05:56:00      -25.419       31.832        6.597       26.897       31.885       22.448      723.440     1016.661      503.917        0.197        0.112       40.736       21.963        0.291      335.523        6.215      861.485
10/24/2014  05:57:00      -75.838      -17.747      -11.023       16.773       12.493        9.967      281.339      156.067       99.337        0.336        0.027       77.886        5.415        0.005      335.526        6.218      861.454
10/24/2014  05:58:00     -107.755      -44.519      -10.379       58.540       27.242       24.888     3426.958      742.114      619.434        0.924        0.239      116.589       24.727        0.045      335.444        6.081      861.490
10/24/2014  05:59:00     -114.743      -35.655      -13.848       44.540       40.798       23.260     1983.770     1664.468      541.021        0.941        0.209      120.155       20.797        0.030      335.396        6.002      861.534
10/24/2014  06:00:00      -50.877       -1.406       -6.728       52.600       19.020       32.987     2766.808      361.753     1088.121        0.343        0.211       50.897       31.051        0.372      335.339        5.907      861.495
10/24/2014  06:01:00      -14.444      -28.678       12.296       19.257       17.939       15.728      370.823      321.818      247.382        0.106        0.047       32.110        9.043        0.079      335.501        6.177      861.472
10/24/2014  06:02:00        7.029        8.933       15.864       10.038       14.264        7.276      100.752      203.464       52.947        0.037        0.018       11.367        3.364        0.088      335.388        5.988      861.513
10/24/2014  06:03:00      -57.987      -11.806       -9.433       40.315       28.458       12.190     1625.332      809.867      148.603        0.309        0.129       59.177       18.264        0.095      335.577        6.305      861.520
10/24/2014  06:04:00     -138.360      -10.421      -12.749       46.838       30.144       22.053     2193.766      908.657      486.335        1.150        0.179      138.752       18.942        0.019      335.366        5.951      861.552
10/24/2014  06:05:00      -98.469        6.280       -9.130       33.064       19.916       21.661     1093.242      396.649      469.206        0.589        0.098       98.669       18.276        0.034      335.197        5.670      861.542
10/24/2014  06:06:00      -79.508      -10.778       -4.287       39.157       28.422       18.768     1533.233      807.824      352.256        0.457        0.135       80.235       12.311        0.024      335.213        5.697      861.529
10/24/2014  06:07:00      -79.069      -34.353       -1.250       37.989       29.796       19.108     1443.166      887.830      365.116        0.506        0.135       86.209       17.396        0.041      335.302        5.844      861.570
10/24/2014  06:08:00      -32.413      -26.500        0.647       18.500       17.724       14.465      342.233      314.150      209.246        0.131        0.043       41.867        9.564        0.052      335.303        5.845      861.540
10/24/2014  06:09:00       -6.103       -8.285       -6.190        5.881       10.878        4.542       34.586      118.324       20.633        0.016        0.009       10.290        3.492        0.115      335.378        5.970      861.504
10/24/2014  06:10:00      -75.720      -35.755      -10.214       59.007       25.566       10.176     3481.771      653.640      103.556        0.568        0.212       83.737       15.425        0.034      335.434        6.066      861.530
10/24/2014  06:11:00     -176.919      -52.955      -22.641       30.060       25.100       14.443      903.601      630.028      208.588        1.818        0.087      184.674        6.249        0.001      335.363        5.948      861.592
10/24/2014  06:12:00     -125.876      -62.393      -12.929       35.993       24.739       19.736     1295.504      611.998      389.515        1.110        0.115      140.491       15.420        0.012      335.275        5.799      861.631
10/24/2014  06:13:00     -102.459      -21.704      -17.496       43.496       38.685       19.459     1891.937     1496.507      378.641        0.752        0.188      104.733       21.642        0.043      335.304        5.847      861.613
10/24/2014  06:14:00      -63.049      -40.919        6.362       56.959       36.340       24.258     3244.361     1320.574      588.469        0.542        0.258       75.163       31.772        0.179      335.359        5.941      861.589
10/24/2014  06:15:00       13.721      -35.312       20.663       25.010       21.454       30.069      625.492      460.253      904.150        0.193        0.099       37.884       25.303        0.446      335.418        6.038      861.579
10/24/2014  06:16:00      -18.280       -8.696       22.861       16.547       21.215       14.404      273.790      450.056      207.489        0.093        0.047       20.243       10.583        0.273      335.410        6.027      861.538
10/24/2014  06:17:00      -35.608      -25.492       -2.879       20.544       16.439       14.083      422.070      270.225      198.344        0.141        0.045       43.793        7.108        0.026      335.560        6.275      861.503
10/24/2014  06:18:00      -96.234      -24.657       -6.769       49.802       30.636       17.202     2480.250      938.540      295.912        0.681        0.186       99.343       20.248        0.042      335.434        6.064      861.530
10/24/2014  06:19:00     -135.267      -18.513       -9.648       34.084       31.406       21.644     1161.687      986.330      468.470        1.067        0.131      136.528       15.236        0.012      335.340        5.909      861.566
10/24/2014  06:20:00      -82.509      -23.009        3.430       45.126       31.126       24.495     2036.326      968.811      599.981        0.548        0.180       85.657       21.310        0.062      335.301        5.842      861.584
10/24/2014  06:21:00       13.736       22.196        3.198       26.884       29.603       20.177      722.749      876.320      407.103        0.135        0.100       26.103       14.316        0.301      335.401        6.011      861.590
10/24/2014  06:22:00       -1.029       25.015       22.974       24.916       27.625       17.333      620.830      763.132      300.430        0.142        0.084       25.037       10.271        0.168      335.422        6.044      861.591
10/24/2014  06:23:00     -105.608      -32.354       -9.216       47.766       21.093       12.636     2281.575      444.922      159.663        0.758        0.144      110.452       14.598        0.017      335.534        6.232      861.610
10/24/2014  06:24:00      -97.454      -49.261       -8.213       41.866       29.475       18.680     1752.755      868.802      348.940        0.748        0.149      109.196       18.863        0.030      335.462        6.113      861.635
10/24/2014  06:25:00       18.031        2.754        0.412       25.798       31.441       17.956      665.515      988.545      322.429        0.115        0.099       18.240       11.012        0.364      335.593        6.332      861.626
10/24/2014  06:26:00       72.265       47.719       19.856       29.536       18.645       16.115      872.399      347.641      259.696        0.469        0.074       86.598        9.066        0.011      335.478        6.139      861.555
10/24/2014  06:27:00        8.475        0.643       -9.224       14.333       25.560        9.990      205.422      653.318       99.800        0.056        0.048        8.500        8.051        0.897      335.404        6.016      861.547
10/24/2014  06:28:00      -65.817      -27.872        2.111       44.794       19.369       11.760     2006.481      375.162      138.298        0.382        0.126       71.475       10.217        0.020      335.578        6.306      861.628
10/24/2014  06:29:00      -78.739      -44.971       -0.361       49.034       25.555       24.789     2404.374      653.070      614.497        0.595        0.184       90.677       13.103        0.021      335.476        6.135      861.654
10/24/2014  06:30:00      -26.676      -14.521        6.065       28.686       17.086       14.857      822.902      291.938      220.724        0.115        0.067       30.372       15.613        0.264      335.308        5.854      861.611
10/24/2014  06:31:00        8.134        1.398       14.568       16.982        7.315       14.471      288.401       53.504      209.416        0.042        0.028        8.253        4.366        0.280      335.292        5.827      861.574
10/24/2014  06:32:00       -8.201      -24.883       -9.001       21.095       28.303       24.708      445.016      801.034      610.480        0.131        0.093       26.199       19.701        0.565      335.375        5.967      861.618
10/24/2014  06:33:00     -101.437      -52.256       -1.145       68.767       29.669       14.621     4728.913      880.242      213.763        0.942        0.291      114.106       10.475        0.008      335.449        6.090      861.689
10/24/2014  06:34:00      -75.715      -33.220        2.489       40.456       28.771       19.023     1636.672      827.758      361.866        0.483        0.141       82.683       20.179        0.060      335.368        5.954      861.676
10/24/2014  06:35:00      -61.178       11.442        0.595       27.436       23.723       15.672      752.738      562.778      245.624        0.272        0.078       62.239       12.143        0.038      335.271        5.792      861.588
10/24/2014  06:36:00      -41.831       32.664       -7.991       20.616       13.116        8.719      425.005      172.019       76.013        0.178        0.034       53.074        8.565        0.026      335.291        5.828      861.564
10/24/2014  06:37:00        2.859       18.251        1.567       11.887        9.080        8.542      141.299       82.453       72.963        0.032        0.015       18.474        6.446        0.122      335.428        6.054      861.591
10/24/2014  06:38:00      -21.610        6.165       -9.942       20.283       13.115        8.099      411.400      172.000       65.597        0.063        0.032       22.472       11.065        0.242      335.404        6.015      861.593
10/24/2014  06:39:00      -61.030      -21.011       -2.010       26.047       26.453       10.705      678.463      699.762      114.589        0.283        0.075       64.546        7.828        0.015      335.477        6.137      861.597
10/24/2014  06:40:00       -9.334       12.432        1.532       13.588        7.067        7.783      184.633       49.947       60.570        0.027        0.015       15.546        6.565        0.178      335.279        5.806      861.602
10/24/2014  06:41:00        4.427       -3.042        3.266       16.914       14.249        8.486      286.081      203.029       72.011        0.030        0.028        5.372       11.630        4.688      335.245        5.750      861.635
10/24/2014  06:42:00      -80.305      -41.470      -11.228       23.911       21.338       10.295      571.749      455.297      105.980        0.471        0.057       90.380        8.773        0.009      335.432        6.061      861.674
10/24/2014  06:43:00      -83.633      -12.595       -5.695       23.549       26.319       13.200      554.554      692.683      174.252        0.430        0.071       84.576        8.832        0.011      335.331        5.893      861.665
10/24/2014  06:44:00      -82.341      -18.900       -9.638       16.039       13.547        8.519      257.265      183.517       72.579        0.387        0.026       84.482        6.829        0.007      335.180        5.642      861.634
10/24/2014  06:45:00      -16.992      -30.164       -2.094       24.800       14.361        9.613      615.054      206.240       92.413        0.106        0.046       34.620        5.581        0.026      335.193        5.663      861.686
10/24/2014  06:46:00        5.465       21.311       29.073       18.335       32.827       30.724      336.172     1077.599      943.944        0.184        0.118       22.000       23.150        1.107      335.242        5.745      861.716
10/24/2014  06:47:00       -2.889       39.514       43.814       17.478       23.372       18.183      305.491      546.268      330.618        0.234        0.059       39.619        9.942        0.063      335.203        5.680      861.703
10/24/2014  06:48:00      -28.872       -6.121       -0.784        9.454       16.818       13.110       89.377      282.832      171.866        0.071        0.027       29.514       11.957        0.164      335.273        5.796      861.709
10/24/2014  06:49:00      -56.513        6.689       -5.204       18.188       20.005       11.520      330.792      400.193      132.710        0.206        0.043       56.907       10.167        0.032      335.300        5.842      861.702
10/24/2014  06:50:00      -57.217      -29.374      -10.301       11.258       19.674        7.379      126.749      387.076       54.454        0.241        0.028       64.317        5.311        0.007      335.151        5.593      861.681
10/24/2014  06:51:00      -38.451      -33.150        5.137       29.418       22.875       14.938      865.397      523.249      223.130        0.211        0.081       50.768       14.942        0.087      335.176        5.635      861.703
10/24/2014  06:52:00      -19.549       -5.287        6.575       26.127       17.449       10.196      682.626      304.474      103.960        0.077        0.055       20.251       11.949        0.348      335.101        5.513      861.714
10/24/2014  06:53:00       11.937       11.559        1.799       11.451        9.068       10.609      131.123       82.235      112.543        0.030        0.016       16.616        6.573        0.156      335.168        5.624      861.704
10/24/2014  06:54:00      -40.972       -8.591      -10.509       16.828        7.592        6.030      283.189       57.645       36.359        0.112        0.019       41.863        4.088        0.010      335.321        5.875      861.678
10/24/2014  06:55:00      -85.327      -21.873      -10.477       15.761       18.298       10.859      248.419      334.835      117.927        0.428        0.035       88.086        8.671        0.010      335.314        5.864      861.669
10/24/2014  06:56:00      -65.302      -18.095       -9.450       22.899       15.151        9.361      524.384      229.560       87.631        0.276        0.042       67.762        8.558        0.016      335.219        5.707      861.667
10/24/2014  06:57:00      -44.907       -5.440       -7.287        9.583        7.052        7.686       91.835       49.736       59.077        0.115        0.010       45.235        5.382        0.014      335.189        5.658      861.657
10/24/2014  06:58:00      -11.975      -23.412       -5.421        8.814       11.348        7.073       77.680      128.770       50.032        0.049        0.013       26.296        6.631        0.064      335.363        5.945      861.666
10/24/2014  06:59:00      -30.230      -26.221       -2.879       13.741       10.705        8.176      188.828      114.587       66.847        0.099        0.019       40.018        5.352        0.018      335.304        5.849      861.725
10/24/2014  07:00:00      -32.908      -10.451       -2.150       14.633       13.533        7.039      214.137      183.142       49.554        0.082        0.022       34.528        5.443        0.025      335.304        5.846      861.754
10/24/2014  07:01:00      -39.977       11.058       -3.034        8.766       10.176        5.398       76.845      103.554       29.141        0.097        0.010       41.478        4.383        0.011      335.344        5.914      861.734
10/24/2014  07:02:00        4.380       18.701        7.530       20.731        5.693        9.635      429.794       32.406       92.826        0.049        0.028       19.207       13.050        0.462      335.224        5.715      861.707
10/24/2014  07:03:00       45.332       29.215        1.191       10.237       13.958       11.417      104.797      194.824      130.350        0.167        0.021       53.931        4.394        0.007      335.025        5.386      861.718
10/24/2014  07:04:00      -24.587      -26.757       -7.146       29.152       14.816       13.061      849.823      219.506      170.602        0.131        0.062       36.338        6.193        0.029      335.146        5.586      861.780
10/24/2014  07:05:00      -79.209      -37.030       -2.209       28.416       17.996       15.305      807.492      323.841      234.228        0.451        0.068       87.437        7.773        0.008      335.244        5.748      861.788
10/24/2014  07:06:00      -17.625        2.200       -0.493       23.180       15.899        9.910      537.321      252.766       98.209        0.060        0.044       17.761        8.558        0.232      335.142        5.579      861.742
10/24/2014  07:07:00       -5.801       -3.248       -0.135        7.249       15.264        7.878       52.541      232.989       62.061        0.020        0.017        6.649        7.570        1.296      335.104        5.518      861.755
10/24/2014  07:08:00      -38.923      -26.166       -6.613       30.037       12.688       11.962      902.203      160.987      143.089        0.172        0.060       46.900       11.637        0.062      335.190        5.658      861.836
10/24/2014  07:09:00      -35.938       -5.431       -0.368       23.673       17.064       10.728      560.422      291.163      115.101        0.114        0.048       36.346       12.882        0.126      335.191        5.659      861.851
10/24/2014  07:10:00      -18.656       27.670       -6.108        5.796        4.293        3.410       33.589       18.429       11.630        0.061        0.003       33.372        2.722        0.007      335.304        5.849      861.786
10/24/2014  07:11:00       26.579       31.880        8.716       20.959       15.039       13.824      439.259      226.167      191.115        0.133        0.043       41.506       11.992        0.083      335.200        5.676      861.741
10/24/2014  07:12:00       39.408       35.638       -6.186       10.116        9.925        7.273      102.328       98.511       52.891        0.156        0.013       53.132        3.446        0.004      335.071        5.462      861.761
10/24/2014  07:13:00       43.840       32.678       -9.828       12.243        9.594       10.147      149.896       92.038      102.966        0.172        0.017       54.679        4.881        0.008      334.988        5.324      861.796
10/24/2014  07:14:00       12.028        8.478       -4.341       14.906       18.955        9.754      222.195      359.302       95.145        0.046        0.034       14.716       11.202        0.579      334.981        5.311      861.826
10/24/2014  07:15:00       26.551       21.843       11.894       17.777       16.313       21.361      316.020      266.103      456.291        0.118        0.052       34.381       12.789        0.138      335.095        5.502      861.855
10/24/2014  07:16:00        2.103       38.034       49.640       21.912       22.336       12.379      480.119      498.911      153.239        0.252        0.057       38.092       11.743        0.095      335.002        5.347      861.846
10/24/2014  07:17:00       18.232       31.861       24.345       22.152       17.895       14.509      490.725      320.232      210.518        0.148        0.051       36.708        6.827        0.035      334.960        5.278      861.850
10/24/2014  07:18:00        6.956       15.679        2.050       15.444        8.004        8.471      238.505       64.063       71.765        0.034        0.019       17.153        9.617        0.314      335.000        5.343      861.900
10/24/2014  07:19:00      -48.588        5.447       -0.961       15.797       13.500       12.136      249.533      182.262      147.284        0.149        0.029       48.893       11.780        0.058      335.090        5.497      861.945
10/24/2014  07:20:00      -48.865      -21.854       -6.468       14.098       16.557       10.936      198.756      274.141      119.600        0.175        0.030       53.529        8.049        0.023      334.972        5.296      861.981
10/24/2014  07:21:00       14.733       -0.667       -1.382       15.050       18.854       10.540      226.504      355.481      111.088        0.046        0.035       14.748       12.846        0.759      335.038        5.408      861.999
10/24/2014  07:22:00       38.725       35.443        4.959       11.872        8.380        7.560      140.956       70.227       57.159        0.152        0.013       52.496        5.460        0.011      335.041        5.412      861.959
10/24/2014  07:23:00      -10.070       66.358      -12.871       14.044       19.828       10.037      197.235      393.137      100.745        0.268        0.035       67.117       14.292        0.045      335.079        5.475      861.869
10/24/2014  07:24:00      -59.903       66.381      -15.595       26.753       20.465       11.444      715.702      418.833      130.965        0.475        0.063       89.414        6.175        0.005      335.090        5.494      861.827
10/24/2014  07:25:00      -40.568       34.293       -6.007       26.119       24.401       16.915      682.189      595.386      286.113        0.221        0.078       53.120       17.455        0.108      335.005        5.353      861.882
10/24/2014  07:26:00      -11.406      -13.890        8.084       16.832       19.687       13.486      283.308      387.596      181.878        0.062        0.043       17.973        9.980        0.308      335.012        5.364      861.930
10/24/2014  07:27:00      -49.261      -27.592       -0.786       36.187       24.712       18.428     1309.495      610.664      339.606        0.272        0.113       56.462       17.130        0.092      335.021        5.379      861.948
10/24/2014  07:28:00      -47.064      -10.742       -0.486       26.718       21.021       11.610      713.861      441.890      134.783        0.181        0.065       48.274       12.320        0.065      335.072        5.463      861.949
10/24/2014  07:29:00      -56.450       28.510       -6.604       16.091       12.097       10.466      258.915      146.336      109.536        0.228        0.026       63.241       10.515        0.028      335.017        5.373      861.904
10/24/2014  07:30:00      -48.362       26.120       -3.749       22.896       14.642       13.866      524.228      214.393      192.262        0.198        0.047       54.965        8.667        0.025      334.933        5.232      861.873
10/24/2014  07:31:00      -75.105       18.742      -13.183       11.435       11.560        8.328      130.768      133.629       69.362        0.325        0.017       77.409        6.007        0.006      335.136        5.570      861.913
10/24/2014  07:32:00      -71.939      -41.408       -8.777       28.639       27.085       16.868      820.175      733.594      284.524        0.440        0.092       83.005        9.960        0.014      335.100        5.509      861.993
10/24/2014  07:33:00     -131.751      -53.822       -4.828       40.589       25.595       20.628     1647.490      655.116      425.511        1.150        0.136      142.321       16.742        0.014      334.978        5.308      862.036
10/24/2014  07:34:00     -106.514       -1.619       -3.802       38.137       26.031       17.571     1454.427      677.635      308.728        0.690        0.122      106.527       18.630        0.031      334.960        5.277      861.993
10/24/2014  07:35:00      -46.665       17.014       -4.396       33.773       27.300       15.229     1140.596      745.302      231.909        0.230        0.106       49.670       17.609        0.126      334.971        5.296      861.901
10/24/2014  07:36:00       -4.270       73.243      -11.754       23.532       13.445        9.891      553.733      180.757       97.834        0.318        0.042       73.368        2.936        0.002      335.206        5.685      861.872
10/24/2014  07:37:00      -27.164       41.560       -7.869       29.545       33.157        8.424      872.904     1099.408       70.970        0.228        0.102       49.650       10.864        0.048      335.164        5.616      861.933
10/24/2014  07:38:00        4.345      -30.104        6.791       26.629       14.824       16.903      709.124      219.752      285.711        0.109        0.061       30.416        6.642        0.048      335.299        5.840      862.053
10/24/2014  07:39:00        1.454      -57.324       -2.607       30.576       22.745       18.598      934.920      517.348      345.895        0.255        0.090       57.343        9.566        0.028      335.317        5.869      862.148
10/24/2014  07:40:00       11.835       24.304       27.955       22.989       41.125       26.709      528.499     1691.288      713.355        0.222        0.147       27.033       30.130        1.242      335.398        6.005      862.131
10/24/2014  07:41:00       39.832       40.690       17.015       34.992       22.271       29.896     1224.461      496.016      893.767        0.307        0.131       56.941       23.877        0.176      335.307        5.852      862.030
10/24/2014  07:42:00       -5.680       45.561      -12.859       21.892       18.557        7.039      479.255      344.344       49.548        0.157        0.044       45.914        5.684        0.015      335.305        5.849      861.960
10/24/2014  07:43:00      -29.013       -5.511       -1.759       12.582       13.049        9.554      158.301      170.285       91.285        0.065        0.021       29.532        6.596        0.050      335.413        6.030      862.024
10/24/2014  07:44:00      -20.188      -37.979       -8.864       22.850       24.846       13.369      522.105      617.318      178.729        0.162        0.066       43.011        8.373        0.038      335.460        6.107      862.122
10/24/2014  07:45:00      -31.356      -11.985        3.310       17.203       18.785       10.837      295.945      352.894      117.430        0.095        0.038       33.569        9.196        0.075      335.545        6.251      862.155
10/24/2014  07:46:00      -31.931       19.510      -10.206       16.540       19.666       11.641      273.557      386.768      135.511        0.115        0.040       37.420       10.504        0.079      335.483        6.146      862.126
10/24/2014  07:47:00      -18.666       44.084       -3.127       21.550       18.880       13.803      464.396      356.437      190.528        0.166        0.051       47.873       11.658        0.059      335.513        6.197      862.059
10/24/2014  07:48:00      -44.558       33.601       -8.935       23.686       22.168       11.432      561.030      491.399      130.687        0.219        0.059       55.807        8.543        0.023      335.436        6.068      862.049
10/24/2014  07:49:00      -99.022      -22.142      -12.161       15.212       29.207       13.434      231.393      853.020      180.460        0.585        0.063      101.467        7.548        0.006      335.489        6.155      862.084
10/24/2014  07:50:00     -136.539      -68.946      -10.656       30.656       24.943       16.584      939.796      622.175      275.035        1.267        0.092      152.959       10.444        0.005      335.383        5.981      862.162
10/24/2014  07:51:00      -82.198       -9.622       12.294       56.256       34.980       23.016     3164.755     1223.600      529.722        0.596        0.246       82.759       28.504        0.119      335.435        6.066      862.209
10/24/2014  07:52:00      -18.914       17.404        5.608       24.828        9.375       15.228      616.410       87.882      231.897        0.081        0.047       25.703       16.463        0.410      335.576        6.302      862.159
10/24/2014  07:53:00        1.542        9.092        7.681       10.639       13.061        5.642      113.196      170.593       31.834        0.023        0.016        9.222        4.040        0.192      335.643        6.415      862.121
10/24/2014  07:54:00      -72.897      -17.144       -6.955       34.971       14.332        9.855     1222.942      205.404       97.116        0.359        0.076       74.886       10.399        0.019      335.571        6.291      862.167
10/24/2014  07:55:00      -83.095       -2.017       -8.342       36.612       16.040       15.062     1340.420      257.276      226.852        0.440        0.091       83.119       20.081        0.058      335.543        6.247      862.197
10/24/2014  07:56:00      -76.389       27.813       -7.834       16.001       16.453       10.943      256.017      270.705      119.742        0.366        0.032       81.295        5.361        0.004      335.451        6.094      862.182
10/24/2014  07:57:00      -55.889       -1.450       -6.398       21.062       25.915        9.306      443.614      671.562       86.595        0.218        0.060       55.908        5.959        0.011      335.497        6.171      862.203
10/24/2014  07:58:00      -72.924      -55.209       -2.947       32.379       20.964       18.011     1048.413      439.498      324.402        0.509        0.091       91.466       18.064        0.039      335.636        6.401      862.295
10/24/2014  07:59:00      -63.778      -26.336        0.464       41.798       23.991       19.064     1747.058      575.554      363.430        0.372        0.134       69.001       20.815        0.091      335.661        6.443      862.320
10/24/2014  08:00:00      -33.599        2.298        1.509       12.060       25.399       10.683      145.439      645.111      114.136        0.102        0.045       33.678        6.861        0.042      335.741        6.576      862.275
10/24/2014  08:01:00      -34.264       13.379       -3.430       10.591        6.384        4.504      112.169       40.756       20.288        0.077        0.009       36.783        3.133        0.007      335.759        6.606      862.242
10/24/2014  08:02:00      -43.006        9.758       -6.138       16.198       10.330        9.574      262.391      106.714       91.659        0.122        0.023       44.100        6.200        0.020      335.811        6.694      862.212
10/24/2014  08:03:00      -75.153       22.837      -10.183       16.483       12.189       10.631      271.685      148.579      113.015        0.340        0.027       78.546        6.351        0.007      335.791        6.660      862.181
10/24/2014  08:04:00     -101.738      -38.480       -7.294       30.651       29.755       15.601      939.481      885.386      243.391        0.698        0.103      108.772       13.211        0.015      335.798        6.672      862.238
10/24/2014  08:05:00      -98.706      -55.776        2.242       62.127       26.700       22.041     3859.767      712.878      485.817        0.896        0.253      113.375       26.028        0.053      335.804        6.681      862.324
10/24/2014  08:06:00      -89.599      -26.755       -2.966       38.130       32.252       12.257     1453.908     1040.213      150.227        0.570        0.132       93.508       15.113        0.026      335.821        6.709      862.329
10/24/2014  08:07:00      -46.988      -37.349       -4.983       24.132       26.915       10.735      582.338      724.441      115.234        0.252        0.071       60.024       11.857        0.039      335.889        6.823      862.286
10/24/2014  08:08:00      -25.663        9.785        0.435       25.078       13.837       13.610      628.903      191.460      185.241        0.088        0.050       27.465       17.900        0.425      336.034        7.065      862.236
10/24/2014  08:09:00      -67.284       17.982       -9.301       26.927       12.297        9.003      725.059      151.226       81.054        0.295        0.048       69.646       10.843        0.024      335.920        6.875      862.204
10/24/2014  08:10:00      -87.480      -13.447      -11.310       19.163       28.989       12.975      367.235      840.346      168.348        0.467        0.069       88.508        9.685        0.012      335.946        6.918      862.233
10/24/2014  08:11:00     -129.458      -16.173      -11.138       22.734       21.633       16.840      516.855      467.977      283.581        0.921        0.063      130.465       13.795        0.011      335.947        6.919      862.274
10/24/2014  08:12:00      -49.739      -21.806       -5.190       29.989       21.144       12.364      899.365      447.085      152.860        0.224        0.075       54.309        8.825        0.026      335.903        6.848      862.252
10/24/2014  08:13:00      -37.712      -31.973       -5.900       22.084       13.591       16.032      487.712      184.703      257.030        0.170        0.046       49.441       12.533        0.064      336.013        7.029      862.248
10/24/2014  08:14:00      -95.295      -56.901       -2.459       32.649       39.877       19.560     1065.965     1590.201      382.587        0.768        0.152      110.991       19.853        0.032      336.043        7.080      862.275
10/24/2014  08:15:00     -116.787      -75.372       -2.674       52.603       36.384       25.067     2767.081     1323.789      628.332        1.202        0.236      138.996       27.640        0.040      336.086        7.152      862.279
10/24/2014  08:16:00      -76.135      -53.336       -7.649       45.349       32.223       17.713     2056.493     1038.311      313.736        0.605        0.170       92.958       20.232        0.047      336.168        7.289      862.248
10/24/2014  08:17:00        4.001      -35.870        0.214       25.247       15.086       16.016      637.414      227.583      256.511        0.121        0.056       36.093        5.691        0.025      336.256        7.437      862.209
10/24/2014  08:18:00      -33.088      -55.872       -0.817       14.846       18.649       14.009      220.393      347.777      196.243        0.249        0.038       64.934        3.621        0.003      336.270        7.457      862.231
10/24/2014  08:19:00      -98.471      -63.486       -9.235       33.526       26.938       14.192     1123.977      725.657      201.405        0.793        0.103      117.163       10.743        0.008      336.251        7.429      862.289
10/24/2014  08:20:00     -138.558      -50.055       -3.415       32.072       39.335       17.595     1028.606     1547.209      309.577        1.230        0.144      147.322        8.780        0.004      336.242        7.413      862.276
10/24/2014  08:21:00      -90.140       -1.053      -11.485       19.957       27.388       17.269      398.289      750.125      298.224        0.485        0.072       90.146        8.195        0.008      336.239        7.408      862.212
10/24/2014  08:22:00      -44.710       -4.790       -3.438       38.865       24.552       16.998     1510.461      602.792      288.917        0.222        0.120       44.966       18.126        0.162      336.282        7.480      862.176
10/24/2014  08:23:00     -115.059      -39.729       -3.519       43.969       18.220       19.301     1933.253      331.972      372.536        0.873        0.132      121.724       23.114        0.036      336.299        7.507      862.220
10/24/2014  08:24:00     -129.545      -62.694        0.688       56.128       35.070       23.611     3150.306     1229.926      557.493        1.282        0.247      143.918       25.064        0.030      336.403        7.680      862.258
10/24/2014  08:25:00      -97.840      -44.732       -1.366       47.303       35.680       23.256     2237.593     1273.047      540.839        0.781        0.203      107.581       25.058        0.054      336.461        7.779      862.254
10/24/2014  08:26:00      -80.437      -28.692        8.346       49.578       40.020       26.028     2458.002     1601.566      677.435        0.605        0.237       85.401       26.398        0.096      336.437        7.738      862.237
10/24/2014  08:27:00      -25.214        5.988        0.518       18.044       15.311       16.854      325.569      234.431      284.070        0.076        0.042       25.915       13.187        0.259      336.662        8.114      862.159
10/24/2014  08:28:00        3.191      -11.554        9.357        8.706       11.796       13.244       75.798      139.148      175.396        0.031        0.020       11.987        8.513        0.504      336.899        8.509      862.093
10/24/2014  08:29:00      -13.171      -58.489      -10.027       21.956       32.160       13.085      482.048     1034.284      171.216        0.269        0.084       59.954       10.870        0.033      336.736        8.238      862.120
10/24/2014  08:30:00      -45.894      -64.388       -0.079       31.678       33.811       22.069     1003.481     1143.151      487.045        0.444        0.132       79.070       25.888        0.107      336.748        8.258      862.264
10/24/2014  08:31:00     -138.494     -128.866       -7.048       53.272       57.464       34.008     2837.948     3302.159     1156.543        2.157        0.365      189.175       16.919        0.008      336.702        8.180      862.393
10/24/2014  08:32:00      -89.929      -97.560       -6.831       60.659       55.113       41.558     3679.560     3037.493     1727.048        1.305        0.422      132.684       33.791        0.065      336.691        8.164      862.438
10/24/2014  08:33:00      -14.276      -57.535       -9.707       51.270       35.567       31.143     2628.572     1264.979      969.857        0.424        0.243       59.280       24.442        0.170      336.805        8.355      862.343
10/24/2014  08:34:00       26.130       15.338       12.035       20.759       22.406       26.398      430.948      502.046      696.872        0.135        0.081       30.299       12.540        0.171      337.084        8.819      862.160
10/24/2014  08:35:00       27.790       22.554       -0.180       24.638       23.071       20.003      607.020      532.282      400.104        0.141        0.077       35.791        8.308        0.054      337.194        9.002      862.142
10/24/2014  08:36:00      -16.618       -9.223       12.975       20.298       15.198       12.429      412.014      230.978      154.473        0.066        0.040       19.006       12.578        0.438      337.313        9.203      862.243
10/24/2014  08:37:00      -37.881      -21.876       -2.160       14.788       16.033        7.909      218.676      257.070       62.548        0.123        0.027       43.744        7.877        0.032      336.922        8.549      862.253
10/24/2014  08:38:00      -22.687      -25.437       -5.986       17.916        9.630        9.101      320.968       92.736       82.825        0.085        0.025       34.084        6.430        0.036      336.983        8.650      862.267
10/24/2014  08:39:00      -19.793      -79.360      -13.363       34.597       50.194       34.667     1196.932     2519.398     1201.768        0.589        0.246       81.791       29.691        0.132      337.134        8.903      862.314
10/24/2014  08:40:00        0.258      -16.912       31.238       32.499       53.971       32.326     1056.153     2912.844     1044.984        0.314        0.251       16.914       14.186        0.703      337.492        9.502      862.338
10/24/2014  08:41:00       21.512       25.727       56.141       46.378       48.672       34.698     2150.884     2368.935     1203.950        0.500        0.286       33.536       35.221        1.103      337.375        9.306      862.309
10/24/2014  08:42:00       37.737        2.544       18.210       32.943       20.980       24.027     1085.228      440.151      577.310        0.193        0.105       37.822       19.198        0.258      337.333        9.236      862.283
10/24/2014  08:43:00       -4.328      -29.849        7.131       20.950       21.315       15.721      438.888      454.348      247.149        0.105        0.057       30.161       10.396        0.119      337.420        9.383      862.310
10/24/2014  08:44:00      -62.078      -19.047       -3.995       18.218       18.586       10.742      331.891      345.447      115.390        0.251        0.040       64.935        6.278        0.009      337.140        8.913      862.334
10/24/2014  08:45:00      -73.806      -58.511        4.007       48.865       31.700       23.655     2387.758     1004.863      559.564        0.642        0.198       94.185       17.299        0.034      337.129        8.894      862.350
10/24/2014  08:46:00      -73.432      -53.495        6.316       39.256       49.121       25.501     1541.062     2412.877      650.295        0.645        0.230       90.851       28.160        0.096      337.095        8.837      862.346
10/24/2014  08:47:00       -4.560      -27.866       -0.267       22.893       20.207       15.018      524.085      408.334      225.532        0.098        0.058       28.236       11.356        0.162      337.219        9.044      862.295
10/24/2014  08:48:00       12.938       48.469        5.066       25.757       26.075       32.592      663.447      679.925     1062.221        0.247        0.120       50.166       18.206        0.132      337.464        9.456      862.255
10/24/2014  08:49:00      -29.283       27.449       31.659       30.496       20.089       21.946      929.981      403.572      481.622        0.221        0.091       40.136       20.491        0.261      337.607        9.694      862.243
10/24/2014  08:50:00      -96.532      -32.256       -8.040       28.259       38.512       14.963      798.551     1483.170      223.880        0.646        0.125      101.778       10.437        0.011      337.174        8.968      862.270
10/24/2014  08:51:00      -46.547      -49.231        5.305       39.989       22.338       18.063     1599.096      498.968      326.280        0.352        0.121       67.751       18.035        0.071      337.265        9.124      862.298
10/24/2014  08:52:00       -1.682      -31.143        4.018       50.874       23.302       29.387     2588.176      542.966      863.618        0.249        0.200       31.188       23.362        0.561      337.572        9.638      862.303
10/24/2014  08:53:00      -30.611      -11.394       18.020       25.240       26.743       22.840      637.053      715.214      521.655        0.163        0.094       32.663       12.946        0.157      337.830       10.068      862.287
10/24/2014  08:54:00      -29.982       10.179       11.385       20.352       20.740       20.530      414.200      430.133      421.468        0.120        0.063       31.662       15.565        0.242      337.678        9.814      862.300
10/24/2014  08:55:00      -38.510        6.295        9.725       34.969       18.560       17.800     1222.859      344.475      316.845        0.175        0.094       39.021       18.437        0.223      337.684        9.824      862.325
10/24/2014  08:56:00      -90.004      -47.819       -3.378       43.013       37.085       17.359     1850.154     1375.299      301.343        0.696        0.176      101.918       13.271        0.017      337.372        9.301      862.309
10/24/2014  08:57:00      -93.277      -48.507       -4.418       24.352       26.920       16.128      593.014      724.681      260.102        0.633        0.079      105.135       11.262        0.011      337.397        9.344      862.281
10/24/2014  08:58:00       -5.342      -34.721       -6.132       25.143       20.924       18.029      632.146      437.833      325.062        0.133        0.070       35.129        8.981        0.065      337.436        9.409      862.277
10/24/2014  08:59:00      -68.366       13.408       -5.668       21.222       20.995       21.404      450.379      440.800      458.123        0.312        0.067       69.669       13.532        0.038      337.425        9.390      862.277
10/24/2014  09:00:00      -83.240       23.981       -1.651       10.413       12.238       13.010      108.441      149.779      169.248        0.397        0.021       86.626        4.795        0.003      337.401        9.352      862.260
10/24/2014  09:01:00      -51.774        8.667       -3.620       18.193       12.048       12.215      330.979      145.151      149.197        0.170        0.031       52.494        8.809        0.028      337.468        9.462      862.237
10/24/2014  09:02:00      -38.441      -11.562       -9.700       20.805       12.294       12.310      432.864      151.142      151.531        0.122        0.037       40.143       14.648        0.133      337.533        9.570      862.219
10/24/2014  09:03:00      -36.875       -8.614        1.068       20.638        9.170       10.182      425.933       84.090      103.663        0.102        0.031       37.867        9.352        0.061      337.512        9.536      862.230
10/24/2014  09:04:00      -57.945      -34.540      -12.325       19.319       16.984       13.306      373.208      288.453      177.039        0.277        0.042       67.458        8.758        0.017      337.636        9.744      862.257
10/24/2014  09:05:00      -85.004      -21.301       -2.363       23.503       24.812       14.182      552.399      615.630      201.136        0.453        0.068       87.632       12.659        0.021      337.657        9.780      862.275
10/24/2014  09:06:00      -83.170      -35.052       -1.995       31.142       22.480       17.763      969.842      505.354      315.516        0.497        0.090       90.254        9.074        0.010      337.699        9.849      862.250
10/24/2014  09:07:00      -34.095      -18.637        2.749       26.781       12.698       12.407      717.201      161.231      153.931        0.127        0.052       38.857       15.014        0.149      337.870       10.136      862.201
10/24/2014  09:08:00      -14.887      -22.335       -9.176       10.124       10.459        7.552      102.499      109.385       57.031        0.054        0.013       26.842        4.526        0.028      337.878       10.150      862.190
10/24/2014  09:09:00      -26.950      -53.520        1.386       21.709       27.243       21.477      471.271      742.154      461.263        0.263        0.084       59.922        9.837        0.027      338.025       10.397      862.220
10/24/2014  09:10:00      -23.193      -30.242        6.070       22.184       29.389       20.208      492.125      863.727      408.353        0.163        0.088       38.112       13.779        0.131      338.182       10.661      862.240
10/24/2014  09:11:00      -50.052      -15.780       11.500       16.418       12.079       11.500      269.562      145.901      132.259        0.172        0.027       52.481        4.133        0.006      338.023       10.392      862.209
10/24/2014  09:12:00      -41.982       -4.467       -1.758       16.018       13.661       10.969      256.587      186.619      120.325        0.117        0.028       42.219        7.786        0.034      338.015       10.379      862.177
10/24/2014  09:13:00      -50.325        5.577       -0.362       14.738       19.474       11.487      217.211      379.253      131.944        0.165        0.036       50.633        9.506        0.035      338.009       10.369      862.164
10/24/2014  09:14:00      -14.035       98.823       -1.132       20.806       37.581       23.287      432.882     1412.329      542.265        0.618        0.119       99.815       19.723        0.039      338.371       10.978      862.156
10/24/2014  09:15:00       -8.617       29.575       18.476       23.954       42.848       25.685      573.807     1835.925      659.697        0.218        0.153       30.805       24.406        0.628      338.727       11.574      862.196
10/24/2014  09:16:00       -3.721       49.657        5.499       15.346       45.743       24.887      235.487     2092.386      619.353        0.273        0.147       49.796       29.760        0.357      338.678       11.493      862.235
10/24/2014  09:17:00        1.185       26.034        1.917       12.693       27.167       22.025      161.107      738.033      485.117        0.103        0.069       26.061       16.580        0.405      338.596       11.355      862.230
10/24/2014  09:18:00       11.669       51.196        6.585       26.364       34.611       28.054      695.066     1197.952      787.049        0.274        0.134       52.509       25.153        0.229      338.586       11.338      862.165
10/24/2014  09:19:00       46.775       28.217       17.529       22.969       21.817       30.176      527.591      475.992      910.611        0.260        0.096       54.627       18.569        0.116      338.593       11.350      862.157
10/24/2014  09:20:00       38.146       35.604        7.583       20.993       26.256       26.667      440.686      689.374      711.106        0.231        0.092       52.180       13.645        0.068      338.555       11.287      862.208
10/24/2014  09:21:00       10.190       27.358       -1.731       22.394       31.875       22.950      501.486     1015.994      526.680        0.145        0.102       29.194       18.055        0.382      338.557       11.290      862.248
10/24/2014  09:22:00      -20.484       20.766        4.049       23.949       16.543       17.233      573.544      273.679      296.968        0.101        0.057       29.169        7.672        0.069      338.647       11.440      862.242
10/24/2014  09:23:00      -45.766       13.007        1.019       12.209       11.078       11.683      149.071      122.713      136.482        0.134        0.020       47.578        7.544        0.025      338.308       10.872      862.208
10/24/2014  09:24:00       33.208       64.149       41.539       54.458       35.832       34.367     2965.721     1283.927     1181.090        0.619        0.272       72.235       20.726        0.082      338.859       11.798      862.169
10/24/2014  09:25:00       57.633       70.709       33.641       41.261       30.274       36.529     1702.488      916.486     1334.391        0.670        0.198       91.221       22.888        0.063      338.702       11.533      862.156
10/24/2014  09:26:00       96.797       61.876       21.346       33.664       31.212       27.368     1133.265      974.220      749.018        0.825        0.143      114.884       13.646        0.014      338.582       11.333      862.161
10/24/2014  09:27:00       71.000       45.458        5.579       38.309       30.624       32.217     1467.605      937.854     1037.965        0.529        0.172       84.306       22.667        0.072      338.918       11.896      862.162
10/24/2014  09:28:00       40.007       60.551       56.233       69.292       42.907       50.323     4801.442     1841.023     2532.408        0.880        0.459       72.574       48.731        0.451      338.981       12.003      862.172
10/24/2014  09:29:00       83.219       59.819       17.186       61.625       42.829       39.748     3797.670     1834.294     1579.892        0.900        0.361      102.488       34.690        0.115      338.549       11.277      862.177
10/24/2014  09:30:00       16.178       58.906       65.189       34.873       28.119       23.456     1216.119      790.676      550.202        0.527        0.128       61.087       22.716        0.138      338.814       11.721      862.170
10/24/2014  09:31:00       39.461       50.356       50.960       28.093       20.955       22.844      789.218      439.119      521.866        0.422        0.088       63.976       16.424        0.066      338.639       11.427      862.166
10/24/2014  09:32:00       75.998       63.472       20.865       21.174       17.266       25.836      448.354      298.124      667.478        0.583        0.071       99.017       11.526        0.014      338.542       11.264      862.143
10/24/2014  09:33:00       59.485       36.817        5.251       26.308       26.064       25.910      692.121      679.339      671.312        0.348        0.102       69.957       12.123        0.030      338.795       11.689      862.132
10/24/2014  09:34:00       58.487       58.822       -0.144       34.672       23.463       20.330     1202.147      550.530      413.311        0.452        0.108       82.950       11.762        0.020      338.813       11.718      862.110
10/24/2014  09:35:00       77.272       63.839        2.210       23.863       26.066       25.118      569.450      679.444      630.909        0.597        0.094      100.232       17.277        0.030      338.675       11.488      862.100
10/24/2014  09:36:00       -6.262       54.084       80.198       17.942       50.273       42.683      321.915     2527.349     1821.836        0.703        0.234       54.445       40.895        0.564      339.385       12.683      862.128
10/24/2014  09:37:00       30.472       76.566       94.329       31.940       41.973       24.693     1020.141     1761.691      609.725        0.954        0.170       82.407       26.672        0.105      338.826       11.742      862.182
10/24/2014  09:38:00       25.499        7.680       16.237       33.633       55.021       27.096     1131.210     3027.333      734.178        0.293        0.245       26.631       31.807        1.426      338.843       11.769      862.210
10/24/2014  09:39:00       29.346       -1.833       32.617       29.197       58.929       37.043      852.447     3472.647     1372.160        0.381        0.285       29.403       33.506        1.299      339.131       12.254      862.212
10/24/2014  09:40:00       62.832       73.505       55.683       49.631       47.499       34.513     2463.239     2256.116     1191.158        0.918        0.296       96.699       28.703        0.088      339.039       12.100      862.193
10/24/2014  09:41:00       83.679      106.543       77.944       53.364       37.739       33.426     2847.701     1424.242     1117.328        1.491        0.269      135.475       23.534        0.030      338.921       11.903      862.150
10/24/2014  09:42:00       30.483       89.127       95.987       56.971       40.880       42.408     3245.644     1671.196     1798.418        1.240        0.336       94.196       42.651        0.205      339.224       12.410      862.137
10/24/2014  09:43:00       24.307       90.491       86.890       38.540       49.658       32.966     1485.315     2465.889     1086.726        1.068        0.252       93.698       24.099        0.066      339.148       12.284      862.156
10/24/2014  09:44:00       51.674       56.599       34.088       40.763       24.285       31.649     1661.635      589.754     1001.631        0.514        0.163       76.640       20.273        0.070      338.856       11.792      862.168
10/24/2014  09:45:00       21.937      -48.249        9.865       26.039       51.355       26.109      678.019     2637.316      681.693        0.345        0.200       53.002       23.351        0.194      339.226       12.414      862.166
10/24/2014  09:46:00        1.499       -1.389       36.006       21.880       55.993       35.618      478.747     3135.225     1268.676        0.309        0.244        2.043       39.005      364.369      339.528       12.921      862.154
10/24/2014  09:47:00       44.742       26.936       25.195       55.096       29.760       24.367     3035.542      885.654      593.752        0.394        0.226       52.225       26.747        0.262      339.503       12.881      862.144
10/24/2014  09:48:00      106.715       86.553      -12.527       41.434       35.435       30.644     1716.799     1255.655      939.048        1.147        0.196      137.403       20.815        0.023      338.931       11.917      862.126
10/24/2014  09:49:00       95.925       65.488        2.623       46.167       30.278       25.528     2131.437      916.773      651.682        0.860        0.185      116.148       16.547        0.020      338.778       11.662      862.112
10/24/2014  09:50:00       65.877       52.441       -1.368       42.787       27.777       29.143     1830.769      771.581      849.292        0.527        0.173       84.201       12.736        0.023      338.955       11.958      862.104
10/24/2014  09:51:00       64.614       37.388       12.042       42.164       25.444       29.619     1777.837      647.399      877.261        0.451        0.165       74.652       14.673        0.039      339.129       12.252      862.128
10/24/2014  09:52:00       41.084       32.864       19.867       29.322       21.497       23.209      859.766      462.114      538.667        0.251        0.093       52.611       18.292        0.121      338.882       11.836      862.156
10/24/2014  09:53:00       53.187       43.867       26.232       24.650       21.895       26.389      607.634      479.397      696.395        0.361        0.089       68.944       16.066        0.054      338.915       11.890      862.144
10/24/2014  09:54:00       24.958       40.511       51.226       44.431       37.382       27.877     1974.138     1397.419      777.140        0.452        0.207       47.581       15.689        0.109      339.405       12.715      862.164
10/24/2014  09:55:00        8.031       18.674       33.974       37.402       41.853       44.585     1398.885     1751.675     1987.820        0.335        0.257       20.328       36.872        3.290      339.529       12.925      862.178
10/24/2014  09:56:00       49.687       57.308       11.965       29.343       19.857       31.097      860.990      394.318      966.996        0.406        0.111       75.849       22.572        0.089      338.991       12.019      862.139
10/24/2014  09:57:00       27.762       22.268       -5.078       22.984       21.101       22.319      528.281      445.255      498.147        0.138        0.074       35.589        9.976        0.079      339.021       12.069      862.108
10/24/2014  09:58:00       79.201       39.674        1.293       24.435       22.989       23.133      597.072      528.493      535.152        0.475        0.083       88.582       15.234        0.030      338.935       11.923      862.091
10/24/2014  09:59:00       22.108       13.740       44.486       21.150       28.508       25.830      447.317      812.734      667.193        0.229        0.096       26.030       20.074        0.595      339.392       12.695      862.083
10/24/2014  10:00:00       17.500       12.307       51.149       30.097       79.091       51.967      905.846     6255.402     2700.591        0.647        0.493       21.394       62.398        8.507      339.649       13.127      862.094
10/24/2014  10:01:00      127.900       76.126       34.373       47.323       40.103       36.148     2239.482     1608.233     1306.666        1.424        0.258      148.841       24.569        0.027      339.203       12.376      862.084
10/24/2014  10:02:00       39.482       33.884       58.786       38.080       39.364       26.319     1450.123     1549.555      692.673        0.493        0.185       52.028       18.984        0.133      339.459       12.806      862.081
10/24/2014  10:03:00       56.021       40.093       61.339       44.994       58.173       38.890     2024.502     3384.122     1512.412        0.771        0.346       68.889       41.532        0.363      339.359       12.637      862.071
10/24/2014  10:04:00      105.788       89.810       57.177       33.917       30.362       36.205     1150.389      921.845     1310.813        1.295        0.169      138.769       11.864        0.007      339.232       12.424      862.066
10/24/2014  10:05:00       85.055       80.149       73.527       41.576       42.160       38.658     1728.586     1777.467     1494.478        1.203        0.250      116.869       28.402        0.059      339.243       12.443      862.041
10/24/2014  10:06:00       25.082       35.113       56.293       39.586       43.119       30.996     1567.073     1859.218      960.724        0.471        0.219       43.151       33.587        0.606      339.550       12.959      862.044
10/24/2014  10:07:00       57.924       40.409       18.280       53.663       23.204       27.514     2879.730      538.425      757.014        0.475        0.209       70.626       18.191        0.066      339.516       12.902      862.046
10/24/2014  10:08:00       24.442       55.089       55.697       44.227       34.191       31.235     1956.002     1169.055      975.604        0.542        0.205       60.268       32.357        0.288      339.691       13.196      862.027
10/24/2014  10:09:00       25.949       72.502       88.687       47.712       50.965       38.657     2276.446     2597.452     1494.375        1.008        0.318       77.006       33.530        0.190      339.571       12.995      862.015
10/24/2014  10:10:00       47.320       -6.013       29.788       30.491       35.221       43.434      929.731     1240.547     1886.518        0.361        0.203       47.700       27.382        0.330      339.498       12.872      862.001
10/24/2014  10:11:00       81.918       65.628       43.267       49.008       35.531       36.664     2401.806     1262.452     1344.277        0.895        0.250      104.965       26.858        0.065      339.428       12.754      861.998
10/24/2014  10:12:00       84.279       76.467       64.324       55.796       47.878       47.344     3113.180     2292.319     2241.487        1.237        0.382      113.798       43.811        0.148      339.418       12.737      861.986
10/24/2014  10:13:00       64.149       93.909       85.673       74.193       54.032       54.889     5504.548     2919.509     3012.845        1.585        0.572      113.727       50.241        0.195      339.603       13.049      861.965
10/24/2014  10:14:00        5.280       46.955       84.578       33.536       50.277       30.019     1124.669     2527.752      901.169        0.697        0.228       47.251       28.758        0.370      340.095       13.879      861.959
10/24/2014  10:15:00        0.938       84.035      108.879       38.139       59.521       40.921     1454.546     3542.803     1674.521        1.279        0.334       84.040       43.549        0.269      339.853       13.471      861.957
10/24/2014  10:16:00       90.629       74.590       46.387       56.318       53.882       66.891     3171.772     2903.218     4474.345        1.324        0.527      117.377       51.588        0.193      339.568       12.991      861.953
10/24/2014  10:17:00       66.980       89.134       81.825       54.623       49.045       38.078     2983.675     2405.431     1449.963        1.298        0.342      111.495       32.973        0.087      339.832       13.435      861.959
10/24/2014  10:18:00      120.248       74.002       14.666       50.816       48.125       35.949     2582.219     2316.005     1292.323        1.317        0.310      141.194       23.194        0.027      339.425       12.750      861.996
10/24/2014  10:19:00       13.613       19.144        6.240       35.988       21.512       18.382     1295.136      462.759      337.889        0.134        0.105       23.491        8.000        0.116      339.894       13.540      862.055
10/24/2014  10:20:00       -5.143       24.210       17.757       20.978       29.964       17.552      440.079      897.828      308.057        0.129        0.082       24.750       17.942        0.526      340.375       14.352      862.087
10/24/2014  10:21:00       -9.753       41.587       11.583       18.816       26.018       21.935      354.040      676.958      481.141        0.174        0.076       42.715       16.983        0.158      340.290       14.210      862.056
10/24/2014  10:22:00       -2.772       40.503       15.157       17.103       33.206       27.796      292.519     1102.635      772.623        0.202        0.108       40.597       20.109        0.245      340.456       14.490      861.963
10/24/2014  10:23:00       23.610       27.133       13.856       33.441       29.982       31.752     1118.294      898.899     1008.173        0.225        0.151       35.967       20.447        0.323      340.333       14.282      861.891
10/24/2014  10:24:00       31.535       43.476       14.348       41.186       41.358       23.873     1696.277     1710.465      569.929        0.353        0.199       53.709       12.429        0.054      340.332       14.281      861.876
10/24/2014  10:25:00       54.005       39.326       29.423       61.652       35.089       54.605     3800.962     1231.215     2981.719        0.667        0.401       66.806       40.552        0.368      340.196       14.050      861.890
10/24/2014  10:26:00       96.344       47.711       34.291       65.112       33.543       36.285     4239.624     1125.145     1316.596        0.971        0.334      107.510       15.495        0.021      339.923       13.588      861.881
10/24/2014  10:27:00        8.244       29.926       56.178       30.410       55.347       26.940      924.756     3063.340      725.779        0.442        0.236       31.041       26.166        0.711      340.458       14.492      861.875
10/24/2014  10:28:00       36.850       68.601       37.630       51.356       57.153       49.128     2637.479     3266.431     2413.525        0.790        0.416       77.872       32.205        0.171      340.395       14.387      861.875
10/24/2014  10:29:00       89.227       74.328       13.528       22.548       20.990       26.116      508.429      440.574      682.047        0.765        0.082      116.130        9.268        0.006      340.000       13.719      861.880
10/24/2014  10:30:00       37.576       55.616       69.922       45.165       44.031       39.748     2039.893     1938.693     1579.879        0.748        0.278       67.120       36.075        0.289      340.352       14.313      861.881
10/24/2014  10:31:00       36.749       29.629       45.677       40.049       23.743       30.175     1603.953      563.737      910.511        0.370        0.154       47.206       19.998        0.179      340.335       14.284      861.881
10/24/2014  10:32:00       73.022       62.519       10.422       30.802       28.420       32.014      948.762      807.717     1024.878        0.606        0.139       96.129       19.146        0.040      340.163       13.993      861.852
10/24/2014  10:33:00       57.182       61.877        4.026       27.165       18.540       18.269      737.934      343.725      333.760        0.426        0.071       84.253        9.836        0.014      339.946       13.628      861.836
10/24/2014  10:34:00       67.298       54.027       14.051       22.686       32.926       29.066      514.641     1084.100      844.848        0.504        0.122       86.302       10.109        0.014      340.020       13.753      861.845
10/24/2014  10:35:00       46.945       93.293       76.866       71.847       71.621       59.433     5162.003     5129.519     3532.227        1.532        0.691      104.438       46.575        0.199      340.432       14.446      861.827
10/24/2014  10:36:00      106.739       99.012      100.808       59.058       66.888       47.657     3487.832     4474.007     2271.190        2.079        0.512      145.590       38.811        0.071      340.154       13.977      861.809
10/24/2014  10:37:00       61.289       45.064       38.454       59.156       53.354       34.420     3499.478     2846.643     1184.751        0.740        0.377       76.073       35.023        0.212      340.307       14.238      861.797
10/24/2014  10:38:00       18.604       -5.813      -17.769       25.901       20.118       10.745      670.848      404.734      115.460        0.094        0.060       19.491       11.679        0.359      340.229       14.107      861.816
10/24/2014  10:39:00       -4.546        5.323       31.210       19.102       28.854       18.041      364.873      832.543      325.488        0.127        0.076        7.000        7.257        1.075      340.898       15.236      861.834
10/24/2014  10:40:00       18.666       44.482       55.886       36.273       28.257       21.806     1315.756      798.463      475.513        0.402        0.129       48.240       14.859        0.095      340.788       15.051      861.846
10/24/2014  10:41:00       35.683       57.840       31.944       38.317       22.750       25.888     1468.219      517.551      670.199        0.415        0.133       67.962       23.781        0.122      340.581       14.700      861.834
10/24/2014  10:42:00      -11.627       23.966       38.260       34.326       35.667       19.557     1178.244     1272.123      382.492        0.250        0.142       26.637       17.052        0.410      341.023       15.448      861.822
10/24/2014  10:43:00      -41.983      -23.953        4.618       33.731       21.302       10.850     1137.784      453.771      117.716        0.203        0.085       48.336        5.041        0.011      340.571       14.684      861.795
10/24/2014  10:44:00       14.102       15.311       47.083       33.601       30.146       28.263     1129.048      908.807      798.811        0.274        0.142       20.815       17.617        0.716      341.031       15.463      861.788
10/24/2014  10:45:00       31.137       59.278       71.895       35.778       55.279       35.688     1280.097     3055.791     1273.663        0.763        0.280       66.958       32.872        0.241      340.771       15.022      861.784
10/24/2014  10:46:00       33.366       87.265       87.928       44.377       57.274       42.590     1969.342     3280.297     1813.920        1.176        0.353       93.426       43.548        0.217      340.830       15.122      861.760
10/24/2014  10:47:00       70.284      -28.875       10.452       39.056       41.160       44.663     1525.334     1694.114     1994.806        0.555        0.261       75.984       23.129        0.093      340.769       15.018      861.734
10/24/2014  10:48:00       38.809       27.078       47.414       38.479       31.885       24.929     1480.615     1016.650      621.448        0.380        0.156       47.322       23.887        0.255      340.967       15.354      861.700
10/24/2014  10:49:00       13.987       28.666       68.835       38.173       50.780       35.769     1457.189     2578.611     1279.386        0.553        0.266       31.896       36.221        1.290      341.116       15.606      861.689
10/24/2014  10:50:00        5.485       70.012       83.299       38.292       52.932       44.905     1466.269     2801.761     2016.423        0.908        0.314       70.227       39.246        0.312      341.211       15.765      861.689
10/24/2014  10:51:00       14.340       34.429       53.525       33.959       51.557       45.172     1153.225     2658.159     2040.488        0.505        0.293       37.296       34.327        0.847      341.244       15.823      861.724
10/24/2014  10:52:00       46.340      -23.630       38.288       60.577       86.678       42.417     3669.577     7513.055     1799.187        0.857        0.649       52.017       44.638        0.736      341.206       15.757      861.728
10/24/2014  10:53:00       63.900       60.893       69.009       63.400       43.047       36.446     4019.561     1853.027     1328.328        0.988        0.360       88.267       23.327        0.070      341.100       15.578      861.708
10/24/2014  10:54:00      112.432       59.322       49.970       78.564       58.304       49.820     6172.377     3399.313     2481.983        1.535        0.603      127.122       42.946        0.114      341.114       15.602      861.653
10/24/2014  10:55:00       28.613       85.769       84.982       52.568       52.879       53.110     2763.364     2796.237     2820.708        1.189        0.419       90.416       39.805        0.194      341.073       15.532      861.630
10/24/2014  10:56:00       71.711       70.243       41.334       33.640       29.668       26.067     1131.638      880.208      679.468        0.724        0.135      100.382       16.816        0.028      340.823       15.109      861.618
10/24/2014  10:57:00       48.723       79.078       86.905       45.422       40.756       35.864     2063.150     1661.081     1286.257        1.059        0.251       92.883       28.415        0.094      341.140       15.647      861.600
10/24/2014  10:58:00       41.006       38.349       -5.813       35.436       40.645       24.536     1255.689     1651.989      602.007        0.335        0.175       56.144       21.262        0.143      340.938       15.305      861.570
10/24/2014  10:59:00       19.237       19.837       29.693       42.969       36.027       28.559     1846.365     1297.979      815.601        0.280        0.198       27.633       12.289        0.198      341.660       16.527      861.569
10/24/2014  11:00:00       61.227       42.160       34.996       49.978       43.722       30.500     2497.814     1911.615      930.278        0.604        0.267       74.338       26.585        0.128      341.212       15.768      861.582
10/24/2014  11:01:00       34.082       61.150       -9.217       41.407       18.194       26.953     1714.515      331.033      726.469        0.388        0.139       70.006       25.558        0.133      340.660       14.834      861.600
10/24/2014  11:02:00      -13.580       29.002       -3.132       21.987       24.381       26.766      483.449      594.409      716.423        0.141        0.090       32.024       16.042        0.251      341.219       15.780      861.604
10/24/2014  11:03:00       18.215       33.138       14.669       30.861       27.887       37.644      952.423      777.707     1417.056        0.240        0.157       37.814       13.096        0.120      341.404       16.094      861.611
10/24/2014  11:04:00       17.813       20.364       37.888       31.253       25.775       24.243      976.735      664.340      587.746        0.220        0.111       27.055       22.401        0.686      341.396       16.080      861.568
10/24/2014  11:05:00       25.764       25.081       21.316       37.288       33.468       23.743     1390.387     1120.116      563.724        0.241        0.154       35.955       22.395        0.388      341.273       15.872      861.538
10/24/2014  11:06:00       28.490       -8.979       18.441       38.818       31.488       31.354     1506.824      991.523      983.049        0.236        0.174       29.871       21.338        0.510      341.238       15.812      861.489
10/24/2014  11:07:00       51.893       78.548       75.551       88.368       59.931       42.514     7808.822     3591.675     1807.476        1.389        0.660       94.142       34.986        0.138      341.448       16.167      861.472
10/24/2014  11:08:00      118.727       86.286       64.990       57.957       64.024       59.809     3359.034     4099.100     3577.147        1.840        0.552      146.770       50.476        0.118      341.131       15.630      861.455
10/24/2014  11:09:00       48.380       63.155       67.308       39.985       56.509       42.394     1598.830     3193.279     1797.293        0.872        0.329       79.556       21.605        0.074      341.357       16.014      861.460
10/24/2014  11:10:00       68.719       87.861       68.402       39.422       30.134       28.428     1554.079      908.059      808.127        1.019        0.164      111.543       20.004        0.032      341.219       15.779      861.451
10/24/2014  11:11:00       55.514       52.435       61.221       44.919       42.553       35.650     2017.749     1810.715     1270.900        0.734        0.255       76.362       22.755        0.089      341.410       16.105      861.445
10/24/2014  11:12:00       20.010       15.448       29.343       29.940       42.588       30.378      896.405     1813.767      922.839        0.257        0.182       25.280       24.038        0.904      341.414       16.109      861.461
10/24/2014  11:13:00       -0.403       -4.960       33.083       12.832       31.825       12.892      164.670     1012.804      166.215        0.123        0.067        4.976       12.854        6.672      341.888       16.913      861.454
10/24/2014  11:14:00       42.781       78.858       50.603       45.655       38.213       38.605     2084.414     1460.264     1490.346        0.782        0.252       89.715       19.538        0.047      341.407       16.098      861.452
10/24/2014  11:15:00       40.779      -13.042       34.842       50.577       69.237       32.039     2557.986     4793.785     1026.501        0.571        0.419       42.814       29.334        0.469      341.384       16.059      861.424
10/24/2014  11:16:00       47.333      -83.997      -11.434       44.075       39.309       23.390     1942.586     1545.180      547.100        0.673        0.202       96.415       19.421        0.041      341.224       15.788      861.417
10/24/2014  11:17:00       23.189       -1.768       39.996       27.399       49.270       29.168      750.719     2427.484      850.747        0.308        0.201       23.256       31.213        1.801      341.509       16.272      861.390
10/24/2014  11:18:00       28.546       26.107       41.742       39.907       34.432       25.993     1592.566     1185.576      675.614        0.335        0.173       38.684       17.220        0.198      341.570       16.374      861.373
10/24/2014  11:19:00       37.286       65.835       13.553       41.189       40.552       24.869     1696.498     1644.459      618.443        0.493        0.198       75.660       16.939        0.050      341.433       16.141      861.376
10/24/2014  11:20:00       25.734       40.987       36.898       25.885       24.201       25.107      670.015      585.674      630.377        0.279        0.094       48.396       15.075        0.097      341.675       16.553      861.377
10/24/2014  11:21:00       64.144       73.124       64.121       71.436       43.804       50.928     5103.061     1918.777     2593.621        1.159        0.481       97.270       49.730        0.261      341.593       16.413      861.383
10/24/2014  11:22:00       78.070       84.701       55.671       58.950       45.168       33.285     3475.156     2040.181     1107.921        1.149        0.331      115.192       28.101        0.060      341.587       16.403      861.360
10/24/2014  11:23:00       53.024      -25.875       15.501       67.115       67.776       48.658     4504.483     4593.599     2367.562        0.759        0.573       59.001       49.318        0.699      341.793       16.754      861.344
10/24/2014  11:24:00       77.241      -36.167       13.143       58.992       47.393       34.319     3480.048     2246.126     1177.796        0.717        0.345       85.289       30.855        0.131      341.653       16.516      861.317
10/24/2014  11:25:00       24.706      -25.582       27.944       43.249       69.417       33.765     1870.481     4818.703     1140.044        0.494        0.391       35.565       25.642        0.520      342.217       17.474      861.279
10/24/2014  11:26:00       22.584        8.040       41.105       49.270       57.776       39.191     2427.536     3338.069     1535.943        0.478        0.365       23.972       17.301        0.521      342.290       17.596      861.248
10/24/2014  11:27:00      134.860      101.271       52.110       43.575       29.080       37.021     1898.804      845.661     1370.571        1.764        0.206      168.650       13.255        0.006      341.628       16.473      861.225
10/24/2014  11:28:00       64.718       63.794        6.715       43.225       47.526       32.863     1868.431     2258.732     1079.952        0.675        0.260       90.874       25.787        0.081      341.897       16.929      861.231
10/24/2014  11:29:00       52.205       21.588        8.887       42.418       41.373       29.582     1799.305     1711.756      875.083        0.383        0.219       56.492       14.225        0.063      342.176       17.402      861.228
10/24/2014  11:30:00      103.496       63.751       11.987       52.251       46.794       45.155     2730.208     2189.639     2038.970        1.094        0.348      121.555       29.632        0.059      341.779       16.729      861.202
10/24/2014  11:31:00       48.935       42.204        9.584       36.890       21.642       29.743     1360.867      468.390      884.668        0.349        0.136       64.621       18.619        0.083      341.852       16.853      861.193
10/24/2014  11:32:00        1.096       18.986        0.593       19.344       15.957       13.346      374.176      254.622      178.123        0.058        0.040       19.017        8.672        0.208      342.250       17.529      861.177
10/24/2014  11:33:00       32.045       42.418        5.942       31.883       26.838       19.144     1016.529      720.294      366.499        0.248        0.105       53.162       14.438        0.074      342.332       17.667      861.152
10/24/2014  11:34:00       87.513       45.193       34.462       63.183       46.167       31.566     3992.075     2131.390      996.443        0.900        0.356       98.494       21.459        0.047      342.109       17.288      861.153
10/24/2014  11:35:00       89.450       63.034       33.550       56.840       31.586       39.498     3230.832      997.698     1560.081        0.944        0.289      109.429       35.396        0.105      342.064       17.213      861.135
10/24/2014  11:36:00       76.483       14.641       15.286       40.025       29.164       32.728     1602.033      850.515     1071.125        0.491        0.176       77.871       19.841        0.065      342.048       17.186      861.117
10/24/2014  11:37:00       53.022       49.035       25.571       42.958       29.580       31.059     1845.370      874.979      964.689        0.478        0.184       72.220       22.094        0.094      342.273       17.567      861.079
10/24/2014  11:38:00       76.596       59.867       26.247       36.170       28.345       27.070     1308.274      803.441      732.791        0.649        0.142       97.216       16.355        0.028      341.857       16.860      861.079
10/24/2014  11:39:00       37.603       36.685       14.900       35.332       33.458       25.604     1248.335     1119.407      655.542        0.300        0.151       52.533       17.801        0.115      342.138       17.339      861.065
10/24/2014  11:40:00       10.914       56.900       79.197       37.582       41.240       38.585     1412.381     1700.759     1488.825        0.711        0.230       57.937       22.263        0.148      342.382       17.754      861.065
10/24/2014  11:41:00       12.397       30.751       54.967       39.152       33.237       32.611     1532.912     1104.719     1063.489        0.391        0.185       33.155       23.275        0.493      342.527       18.000      861.053
10/24/2014  11:42:00       66.702       64.955       28.420       47.448       39.025       35.006     2251.351     1522.943     1225.436        0.724        0.250       93.103       21.660        0.054      342.300       17.614      861.016
10/24/2014  11:43:00       51.451       43.851        9.485       39.594       32.484       26.269     1567.651     1055.192      690.043        0.399        0.166       67.602        9.444        0.020      342.434       17.841      861.025
10/24/2014  11:44:00       26.498      -17.795        8.882       47.212       25.738       20.482     2228.959      662.454      419.497        0.220        0.166       31.919       19.263        0.364      342.503       17.959      861.040
10/24/2014  11:45:00       21.215      -22.513       14.806       33.135       53.222       34.012     1097.927     2832.621     1156.783        0.313        0.254       30.934       37.563        1.475      342.246       17.522      861.022
10/24/2014  11:46:00       60.171       71.973       31.321       31.522       36.184       41.725      993.627     1309.293     1741.013        0.691        0.202       93.812       31.355        0.112      342.237       17.507      860.970
10/24/2014  11:47:00       40.652      -49.044       -2.339       46.720       77.232       30.365     2182.775     5964.825      922.012        0.656        0.453       63.702       40.146        0.397      342.436       17.845      860.925
10/24/2014  11:48:00       25.955       -8.890       31.111       42.794       53.850       32.701     1831.313     2899.804     1069.331        0.376        0.290       27.435       35.904        1.713      342.688       18.273      860.917
10/24/2014  11:49:00       31.145       48.096        2.187       40.001       33.107       26.985     1600.079     1096.048      728.170        0.336        0.171       57.300       19.876        0.120      342.795       18.454      860.892
10/24/2014  11:50:00       -2.089       13.153        5.343       15.919       20.063       15.821      253.420      402.530      250.312        0.056        0.045       13.318        4.392        0.109      343.220       19.177      860.889
10/24/2014  11:51:00      -20.760      -31.095        8.938       36.241       33.424       32.489     1313.435     1117.177     1055.533        0.248        0.174       37.388       21.154        0.320      343.028       18.852      860.883
10/24/2014  11:52:00       25.275       30.371       58.071       30.886       28.420       20.864      953.932      807.696      435.290        0.356        0.110       39.512       10.678        0.073      343.347       19.394      860.896
10/24/2014  11:53:00       92.553       51.920       49.216       31.476       30.304       32.395      990.715      918.340     1049.417        0.832        0.148      106.122       20.513        0.037      342.642       18.193      860.905
10/24/2014  11:54:00      135.894      101.917       38.486       58.695       41.392       40.050     3445.078     1713.338     1603.989        1.855        0.338      169.865       25.043        0.022      342.734       18.350      860.877
10/24/2014  11:55:00       98.233       66.759       15.797       57.200       36.625       33.469     3271.819     1341.376     1120.180        1.004        0.287      118.771       18.113        0.023      342.877       18.594      860.830
10/24/2014  11:56:00       38.340       62.463        7.760       51.037       48.579       36.758     2604.812     2359.951     1351.164        0.587        0.316       73.291       27.510        0.141      343.085       18.949      860.815
10/24/2014  11:57:00       87.955       39.034        7.165       53.873       43.397       34.985     2902.297     1883.284     1223.971        0.766        0.300       96.228       17.291        0.032      342.943       18.707      860.821
10/24/2014  11:58:00       76.683       39.291        9.456       45.928       27.859       33.428     2109.374      776.145     1117.437        0.576        0.200       86.163       25.393        0.087      343.013       18.827      860.803
10/24/2014  11:59:00       97.601       80.390       46.920       31.105       27.774       28.153      967.548      771.388      792.572        1.036        0.127      126.446       14.434        0.013      342.980       18.768      860.814
10/24/2014  12:00:00       60.164       -8.741        8.409       49.600       21.954       18.022     2460.163      481.984      324.795        0.352        0.163       60.796       15.113        0.062      343.039       18.870      860.823
10/24/2014  12:01:00       63.013      -58.356       -1.877       40.850       31.245       29.491     1668.702      976.252      869.699        0.545        0.176       85.884       23.103        0.072      342.500       17.952      860.818
10/24/2014  12:02:00       75.008      -41.768       22.872       37.802       51.085       43.830     1428.972     2609.716     1921.107        0.693        0.298       85.853       37.395        0.190      342.794       18.453      860.802
10/24/2014  12:03:00       52.626      -28.040       49.941       61.921       55.906       37.293     3834.215     3125.440     1390.802        0.720        0.418       59.630       17.167        0.083      343.070       18.921      860.776
10/24/2014  12:04:00       23.128       28.728       30.776       66.066       46.125       42.921     4364.726     2127.543     1842.232        0.532        0.417       36.881       45.055        1.492      343.278       19.278      860.733
10/24/2014  12:05:00       58.479       44.298       58.120       55.510       43.787       31.406     3081.361     1917.309      986.326        0.737        0.299       73.362       22.114        0.091      343.451       19.573      860.721
10/24/2014  12:06:00      105.317       69.926        0.814       41.136       33.562       32.544     1692.157     1126.381     1059.090        0.993        0.194      126.418       19.337        0.023      343.360       19.416      860.726
10/24/2014  12:07:00      122.895       85.914       16.944       29.966       24.112       25.647      897.976      581.393      657.758        1.245        0.107      149.948       15.725        0.011      343.274       19.268      860.731
10/24/2014  12:08:00       50.070       42.730        3.490       37.504       21.464       25.749     1406.514      460.698      663.026        0.344        0.127       65.825       10.121        0.024      343.338       19.378      860.703
10/24/2014  12:09:00        2.803       14.429       -3.418       20.022       46.192       21.672      400.890     2133.694      469.676        0.162        0.150       14.699       19.116        1.691      343.666       19.939      860.653
10/24/2014  12:10:00       23.758      -22.838       -2.525       32.413       46.379       22.828     1050.593     2151.041      521.119        0.241        0.186       32.955       20.908        0.403      343.491       19.639      860.626
10/24/2014  12:11:00      112.849       46.088       32.363       76.596       39.310       32.927     5866.967     1545.271     1084.178        1.220        0.425      121.897       18.608        0.023      343.553       19.744      860.588
10/24/2014  12:12:00      115.331       94.089       16.101       57.154       43.190       38.427     3266.635     1865.357     1476.657        1.451        0.330      148.842       11.693        0.006      343.648       19.906      860.547
10/24/2014  12:13:00       39.820       56.887       51.016       79.753       46.821       42.357     6360.598     2192.165     1794.150        0.888        0.517       69.439       32.233        0.215      343.856       20.263      860.534
10/24/2014  12:14:00       71.504       34.792        4.869       59.349       48.748       31.472     3522.347     2376.402      990.500        0.662        0.344       79.519       20.409        0.066      343.698       19.993      860.527
10/24/2014  12:15:00       82.599       64.655       22.970       38.492       29.640       33.884     1481.668      878.527     1148.117        0.752        0.175      104.894       15.736        0.023      343.565       19.766      860.505
10/24/2014  12:16:00       23.067       91.325       -4.318       29.189       40.855       29.899      852.012     1669.143      893.979        0.615        0.171       94.193       25.361        0.072      343.682       19.966      860.454
10/24/2014  12:17:00       63.359       83.455       10.633       62.147       55.370       43.198     3862.276     3065.823     1866.072        0.994        0.440      104.782       30.170        0.083      343.951       20.424      860.409
10/24/2014  12:18:00       68.224      119.124       -8.130       59.300       62.900       41.016     3516.448     3956.353     1682.344        1.403        0.458      137.277       40.954        0.089      343.694       19.985      860.400
10/24/2014  12:19:00       20.274      114.509      -21.032       27.767       29.991       17.367      771.001      899.438      301.628        0.797        0.099      116.290        7.177        0.004      343.664       19.934      860.399
10/24/2014  12:20:00       -1.941       47.955       -2.407       35.488       40.433       26.420     1259.365     1634.862      698.019        0.295        0.180       47.994       25.871        0.291      344.099       20.676      860.397
10/24/2014  12:21:00       41.746       13.869       10.362       31.813       29.466       20.357     1012.075      868.241      414.415        0.217        0.115       43.990       14.573        0.110      344.082       20.648      860.375
10/24/2014  12:22:00       32.994       29.917       20.855       38.118       42.826       28.699     1452.975     1834.103      823.634        0.326        0.206       44.538       13.506        0.092      344.091       20.663      860.356
10/24/2014  12:23:00       36.352       62.322        3.822       35.008       36.939       35.771     1225.559     1364.516     1279.564        0.454        0.193       72.149       27.793        0.148      344.097       20.675      860.322
10/24/2014  12:24:00       37.701       47.794        6.608       32.895       37.500       27.119     1082.093     1406.272      735.423        0.349        0.161       60.874       20.450        0.113      344.113       20.701      860.285
10/24/2014  12:25:00       84.221       66.842        0.736       24.052       20.526       22.378      578.501      421.300      500.791        0.653        0.075      107.522       12.348        0.013      343.774       20.122      860.281
10/24/2014  12:26:00       27.176       -9.159       18.619       48.904       44.336       43.629     2391.597     1965.666     1903.525        0.371        0.313       28.678       26.574        0.859      343.955       20.433      860.280
10/24/2014  12:27:00       43.835      -80.943        4.067       42.942       48.385       28.904     1844.032     2341.113      835.425        0.675        0.251       92.050       25.876        0.079      343.980       20.476      860.261
10/24/2014  12:28:00       18.449       36.018       41.731       43.185       30.041       28.782     1864.962      902.453      828.398        0.349        0.180       40.468       23.700        0.343      344.279       20.986      860.233
10/24/2014  12:29:00       92.281       57.361        0.445       48.629       40.474       28.359     2364.790     1638.109      804.210        0.831        0.240      108.656        9.244        0.007      344.039       20.575      860.209
10/24/2014  12:30:00       45.625       34.508       28.175       64.014       34.286       27.577     4097.747     1175.501      760.502        0.505        0.302       57.206       21.506        0.141      344.427       21.239      860.189
10/24/2014  12:31:00       62.068       21.098       22.639       40.166       34.152       34.448     1613.273     1166.393     1186.666        0.439        0.198       65.556       23.090        0.124      343.956       20.433      860.216
10/24/2014  12:32:00      121.964       80.884       12.862       40.073       34.462       32.208     1605.849     1187.600     1037.345        1.271        0.192      146.347       13.147        0.008      344.004       20.516      860.233
10/24/2014  12:33:00       42.116       53.543        3.926       31.054       41.862       27.388      964.336     1752.436      750.088        0.406        0.173       68.122       13.293        0.038      344.278       20.982      860.241
10/24/2014  12:34:00       35.669       -1.821       13.897       18.668       27.635       23.990      348.511      763.683      575.528        0.158        0.084       35.716       16.731        0.219      344.340       21.089      860.209
10/24/2014  12:35:00       15.049        9.916       23.171       18.078       13.056       14.924      326.800      170.471      222.717        0.079        0.036       18.022        8.934        0.246      344.675       21.663      860.153
10/24/2014  12:36:00        4.321        4.880        8.719       22.299       13.903       14.746      497.247      193.287      217.437        0.051        0.045        6.518        8.702        1.782      344.776       21.835      860.112
10/24/2014  12:37:00      -28.545       19.547       -4.050       37.570       28.643       26.472     1411.519      820.398      700.760        0.207        0.147       34.596       21.187        0.375      344.400       21.192      860.105
10/24/2014  12:38:00       30.591        7.600       13.976       23.679       24.658       21.770      560.678      608.010      473.947        0.142        0.082       31.521        9.614        0.093      344.383       21.162      860.103
10/24/2014  12:39:00       39.704       -4.548       25.031       31.276       14.984       20.881      978.180      224.529      436.029        0.193        0.082       39.964       10.856        0.074      343.972       20.461      860.068
10/24/2014  12:40:00        1.447      -17.459       18.154       21.040       33.628       19.689      442.671     1130.809      387.652        0.130        0.098       17.519       18.364        1.099      344.721       21.740      860.029
10/24/2014  12:41:00        3.457       -8.637       20.087       22.181       33.980       22.066      492.015     1154.645      486.911        0.131        0.107        9.303       19.652        4.462      344.666       21.647      860.007
10/24/2014  12:42:00       37.460       40.589       15.358       20.520       17.707       20.395      421.053      313.522      415.938        0.222        0.058       55.234       11.398        0.043      344.140       20.749      859.983
10/24/2014  12:43:00       19.237       -6.931        8.425       23.219       45.238       19.377      539.128     2046.440      375.460        0.172        0.148       20.447       21.113        1.066      344.438       21.258      859.949
10/24/2014  12:44:00       26.301       -7.210       31.232       26.917       38.681       21.305      724.549     1496.251      453.882        0.220        0.134       27.271       20.471        0.563      344.363       21.129      859.935
10/24/2014  12:45:00       33.141       -1.967       28.500       50.149       33.971       28.843     2514.969     1154.004      831.945        0.321        0.225       33.200        8.325        0.063      344.384       21.166      859.926
10/24/2014  12:46:00       65.544        5.578       35.600       57.716       67.532       45.562     3331.149     4560.532     2075.905        0.778        0.498       65.781       44.967        0.467      344.400       21.193      859.898
10/24/2014  12:47:00       78.256      -17.754       40.266       74.590      122.411       59.999     5563.672    14984.565     3599.846        1.610        1.207       80.245       79.849        0.990      344.458       21.290      859.880
10/24/2014  12:48:00       44.743     -117.962       28.045       60.333      121.308       55.688     3640.115    14715.560     3101.204        1.908        1.073      126.163       60.803        0.232      344.797       21.869      859.855
10/24/2014  12:49:00       68.402      -38.796       17.904       74.973       65.141       44.698     5621.012     4243.410     1997.930        0.918        0.593       78.638       50.810        0.417      344.321       21.057      859.832
10/24/2014  12:50:00       12.607      -41.741        9.798       28.087       26.298       23.734      788.870      691.589      563.301        0.202        0.102       43.603       12.641        0.084      344.245       20.927      859.815
10/24/2014  12:51:00       18.183      -27.974       18.340       27.765       41.395       20.344      770.908     1713.547      413.897        0.217        0.145       33.364       15.068        0.204      344.657       21.631      859.794
10/24/2014  12:52:00       48.940       -7.817        7.349       35.148       31.225       26.515     1235.377      974.975      703.056        0.271        0.146       49.560       28.987        0.342      344.510       21.381      859.771
10/24/2014  12:53:00       42.688       23.482       23.807       37.262       31.899       30.109     1388.421     1017.534      906.530        0.313        0.166       48.720       24.645        0.256      344.442       21.262      859.743
10/24/2014  12:54:00       74.036       52.257        0.692       24.735       30.174       31.242      611.845      910.466      976.068        0.536        0.125       90.621       11.228        0.015      344.691       21.689      859.712
10/24/2014  12:55:00       17.350       11.540       -4.616       39.291       23.702       16.594     1543.817      561.803      275.350        0.142        0.119       20.837       11.853        0.324      344.891       22.030      859.712
10/24/2014  12:56:00       11.302      -23.016        8.846       19.064       31.183       23.922      363.421      972.361      572.275        0.132        0.095       25.641       21.884        0.728      345.154       22.484      859.714
10/24/2014  12:57:00        8.725      -39.473        9.918       28.929       48.783       34.132      836.916     2379.737     1164.976        0.306        0.219       40.426       27.396        0.459      345.273       22.686      859.698
10/24/2014  12:58:00      -65.768      -63.274       -3.481       65.944       46.032       29.792     4348.609     2118.962      887.549        0.785        0.368       91.263       21.407        0.055      345.069       22.338      859.701
10/24/2014  12:59:00      -11.544      -50.625       -1.167       47.052       40.492       32.227     2213.874     1639.573     1038.566        0.379        0.245       51.924       22.320        0.185      345.171       22.511      859.689
10/24/2014  13:00:00       30.643     -106.001       -5.908       61.989       53.776       40.820     3842.684     2891.886     1666.296        1.030        0.420      110.341        9.142        0.007      344.965       22.159      859.673
10/24/2014  13:01:00      -52.746     -133.102       -7.855       71.142       66.041       39.315     5061.117     4361.417     1545.678        1.576        0.548      143.172       37.252        0.068      345.047       22.297      859.675
10/24/2014  13:02:00      -41.079      -56.288        8.587       32.718       71.716       34.869     1070.442     5143.135     1215.812        0.618        0.371       69.684       29.453        0.179      345.102       22.392      859.673
10/24/2014  13:03:00      -90.586      -64.794       -3.842       51.638       76.263       37.685     2666.481     5816.090     1420.148        1.116        0.495      111.373       47.448        0.182      344.931       22.099      859.625
10/24/2014  13:04:00      -63.261       12.774        6.777       32.243       41.475       23.469     1039.580     1720.204      550.771        0.376        0.166       64.538       22.458        0.121      345.098       22.385      859.594
10/24/2014  13:05:00      -62.184      -71.847       14.884       60.624       70.531       32.334     3675.306     4974.646     1045.459        0.947        0.485       95.021       33.996        0.128      345.249       22.644      859.588
10/24/2014  13:06:00      -65.854      -94.458        6.308       46.390       41.168       20.470     2152.034     1694.824      419.012        0.878        0.213      115.148       16.240        0.020      344.923       22.087      859.577
10/24/2014  13:07:00      -26.964      -44.316       12.465       62.623       64.799       29.074     3921.648     4198.911      845.277        0.590        0.448       51.875       28.689        0.306      345.262       22.667      859.552
10/24/2014  13:08:00     -102.654      -49.232       -9.580       67.489       49.129       29.921     4554.706     2413.622      895.251        1.046        0.393      113.849       29.615        0.068      345.129       22.439      859.511
10/24/2014  13:09:00      -54.295      -88.125        1.236       53.896       48.732       26.170     2904.728     2374.796      684.853        0.834        0.298      103.508       33.449        0.104      344.955       22.140      859.515
10/24/2014  13:10:00      -55.847      -59.304       -8.513       60.302       57.779       36.078     3636.353     3338.382     1301.605        0.749        0.414       81.461       29.350        0.130      345.269       22.678      859.537
10/24/2014  13:11:00     -116.449     -122.588      -13.952       80.031       88.503       55.365     6404.881     7832.808     3065.304        2.304        0.865      169.081       38.444        0.052      345.146       22.466      859.534
10/24/2014  13:12:00      -76.720      -98.468       -4.650      103.859       71.802       44.493    10786.679     5155.496     1979.591        1.676        0.896      124.827       34.272        0.075      345.269       22.677      859.507
10/24/2014  13:13:00      -90.333     -152.189       -6.466       73.376      112.460       51.420     5384.096    12647.345     2643.985        2.602        1.034      176.979       36.978        0.044      345.251       22.646      859.461
10/24/2014  13:14:00     -102.951     -164.929       -0.651       77.436       78.781       37.448     5996.409     6206.421     1402.380        2.570        0.680      194.424       36.423        0.035      345.239       22.623      859.455
10/24/2014  13:15:00      -88.005     -108.918        3.050       86.543       59.531       35.797     7489.680     3543.998     1281.448        1.596        0.616      140.028       33.747        0.058      345.421       22.938      859.415
10/24/2014  13:16:00     -156.899      -57.315      -13.716      114.674       46.424       35.069    13150.128     2155.197     1229.822        2.231        0.827      167.040       47.263        0.080      345.388       22.880      859.362
10/24/2014  13:17:00     -137.979     -100.917        5.237      103.950       87.904       56.354    10805.672     7727.026     3175.771        2.547        1.085      170.946       53.985        0.100      345.516       23.099      859.335
10/24/2014  13:18:00     -241.557     -148.252       -1.222      112.235       82.813       56.476    12596.615     6858.040     3189.547        5.148        1.132      283.423       63.398        0.050      345.520       23.105      859.300
10/24/2014  13:19:00     -126.046     -110.676      -10.805      115.114       85.036       38.997    13251.151     7231.091     1520.752        2.512        1.100      167.740       50.417        0.090      345.586       23.220      859.295
10/24/2014  13:20:00      -53.971      -91.910      -15.235       69.930       70.976       40.169     4890.176     5037.564     1613.577        1.156        0.577      106.585       33.389        0.098      345.753       23.508      859.286
10/24/2014  13:21:00      -75.872      -90.458        4.176       89.069      101.361       41.742     7933.346    10274.000     1742.361        1.695        0.997      118.065       44.694        0.143      345.793       23.576      859.298
10/24/2014  13:22:00      -24.286      -87.426       25.586      132.973      142.633       90.140    17681.906    20344.097     8125.225        2.751        2.308       90.736       84.051        0.858      345.872       23.711      859.295
10/24/2014  13:23:00      -40.147     -118.532       -8.684       52.276       66.836       43.737     2732.798     4467.043     1912.885        1.242        0.456      125.146       24.849        0.039      345.781       23.556      859.279
10/24/2014  13:24:00      -30.213      -61.834       -1.456       40.397       65.064       32.524     1631.954     4233.306     1057.805        0.583        0.346       68.820       22.882        0.111      346.030       23.984      859.285
10/24/2014  13:25:00      -45.497     -100.997        4.668       71.571       43.998       34.827     5122.339     1935.820     1212.914        1.028        0.414      110.771       27.483        0.062      345.911       23.781      859.248
10/24/2014  13:26:00     -246.497     -207.749        3.464      281.916      132.017       77.714    79476.747    17428.363     6039.465       10.342        5.147      322.366      114.280        0.126      345.951       23.845      859.200
10/24/2014  13:27:00     -303.837     -149.624        6.259      163.306      121.689       71.676    26668.841    14808.103     5137.418        8.067        2.331      338.680       80.676        0.057      345.851       23.673      859.208
10/24/2014  13:28:00     -307.634     -176.140      -12.611       95.523       79.929       59.319     9124.627     6388.723     3518.749        7.242        0.952      354.491       58.107        0.027      345.881       23.726      859.213
10/24/2014  13:29:00     -284.967     -134.774      -11.238      124.281      113.519       53.703    15445.775    12886.608     2884.042        6.535        1.561      315.230       44.640        0.020      345.945       23.835      859.160
10/24/2014  13:30:00     -294.299     -106.669        0.006      139.737      111.887       63.116    19526.300    12518.698     3983.639        6.700        1.801      313.034       69.691        0.050      346.009       23.944      859.138
10/24/2014  13:31:00     -354.595     -195.255      -17.964      113.680      121.990       65.826    12923.115    14881.658     4333.067        9.815        1.607      404.799       46.430        0.013      345.870       23.707      859.115
10/24/2014  13:32:00     -229.779     -165.665        3.019      118.249      116.980       73.702    13982.749    13684.233     5432.024        5.667        1.655      283.272       63.918        0.051      345.911       23.777      859.058
10/24/2014  13:33:00     -245.527     -122.917       -6.977      108.295       89.808       46.517    11727.906     8065.431     2163.819        4.869        1.098      274.576       47.128        0.029      346.149       24.185      858.995
10/24/2014  13:34:00      -76.461       -8.454       13.146      108.300       77.277       54.706    11728.804     5971.742     2992.740        1.339        1.035       76.927       46.714        0.369      346.381       24.587      858.968
10/24/2014  13:35:00     -325.992      -75.686      -21.624      157.692      133.728       70.300    24866.737    17883.078     4942.154        8.007        2.385      334.663       80.437        0.058      346.111       24.119      858.958
10/24/2014  13:36:00     -326.340     -146.471      -12.339      154.427      130.251       76.276    23847.660    16965.409     5818.050        8.736        2.332      357.703       76.144        0.045      346.031       23.981      858.918
10/24/2014  13:37:00     -372.898     -201.543      -28.387      134.157      106.402       68.359    17998.109    11321.433     4672.926       10.723        1.700      423.878       66.751        0.025      345.919       23.791      858.962
10/24/2014  13:38:00     -124.955      -61.940       15.601      132.346      113.661       73.141    17515.558    12918.868     5349.598        2.773        1.789      139.464       67.404        0.234      346.247       24.355      858.967
10/24/2014  13:39:00     -238.392     -235.912        9.393      169.959      153.437       83.214    28886.121    23542.931     6924.559        8.595        2.968      335.388       87.450        0.068      346.161       24.207      858.983
10/24/2014  13:40:00     -291.127     -108.440      -14.285      130.037       96.845       50.383    16909.614     9378.911     2538.452        6.277        1.441      310.668       54.949        0.031      346.159       24.202      858.964
10/24/2014  13:41:00     -126.279      -46.764       11.515      121.255       86.763       50.199    14702.870     7527.839     2519.988        2.150        1.238      134.660       55.335        0.169      346.295       24.437      858.916
10/24/2014  13:42:00     -164.212      -73.976        6.045       94.394       68.376       37.629     8910.242     4675.278     1415.917        2.373        0.750      180.105       34.714        0.037      346.150       24.189      858.939
10/24/2014  13:43:00       10.197      -39.142       16.740       19.084       43.241       27.018      364.204     1869.777      729.990        0.244        0.148       40.448       26.494        0.429      346.358       24.548      858.925
10/24/2014  13:44:00      -26.655      -42.944       14.065       42.556       79.773       37.270     1810.993     6363.669     1389.057        0.616        0.478       50.544       40.091        0.629      346.311       24.468      858.895
10/24/2014  13:45:00      106.216     -161.139       -4.812      117.313      125.571       68.042    13762.456    15768.001     4629.740        3.571        1.708      192.996       78.158        0.164      346.410       24.633      858.855
10/24/2014  13:46:00       37.600     -105.228        9.532       69.480       91.040       67.305     4827.428     8288.261     4530.016        1.511        0.882      111.744       62.228        0.310      346.444       24.695      858.847
10/24/2014  13:47:00       63.665     -172.659       24.189      105.707      118.136       69.969    11174.061    13956.128     4895.618        3.223        1.501      184.022       53.071        0.083      346.413       24.640      858.838
10/24/2014  13:48:00        1.114     -246.755       -7.581      156.319      125.841       73.281    24435.713    15836.068     5370.059        5.329        2.282      246.757       57.230        0.054      346.365       24.558      858.861
10/24/2014  13:49:00      -15.927     -385.667       -7.729      147.232      197.763       79.449    21677.154    39110.030     6312.142       10.806        3.355      385.996       73.766        0.037      346.250       24.359      858.858
10/24/2014  13:50:00      -98.879     -191.390      -25.177      132.695      121.550       56.329    17608.029    14774.289     3172.952        4.129        1.778      215.423       49.525        0.053      346.390       24.598      858.834
10/24/2014  13:51:00     -122.431      -93.902       19.803      113.410      107.827       59.836    12861.770    11626.743     3580.310        2.613        1.403      154.295       62.447        0.164      346.464       24.729      858.784
10/24/2014  13:52:00      -47.279      -56.834       -4.448       92.686       76.462       27.939     8590.621     5846.462      780.598        1.035        0.761       73.928       13.162        0.032      346.566       24.906      858.758
10/24/2014  13:53:00      -75.166      -64.846       27.908       95.820      138.668       58.161     9181.426    19228.813     3382.758        2.121        1.590       99.272       64.053        0.416      346.776       25.266      858.719
10/24/2014  13:54:00     -105.338     -193.930      -17.984      148.742      141.136       76.041    22124.061    19919.239     5782.261        4.842        2.391      220.692       62.311        0.080      346.452       24.705      858.730
10/24/2014  13:55:00       -3.073     -206.699        5.152      145.391      202.354       81.892    21138.460    40947.270     6706.299        5.576        3.440      206.722       90.054        0.190      346.521       24.824      858.744
10/24/2014  13:56:00      -16.215     -209.462        1.902      136.325      138.094       68.376    18584.619    19069.968     4675.297        4.323        2.116      210.089       62.871        0.090      346.506       24.799      858.705
10/24/2014  13:57:00      -84.959      -78.068       23.361       92.704      115.820       58.279     8594.065    13414.369     3396.441        1.963        1.270      115.380       36.322        0.099      346.581       24.929      858.706
10/24/2014  13:58:00      -75.914     -134.363       -4.293       82.270       96.848       64.856     6768.391     9379.503     4206.311        2.209        1.018      154.326       38.494        0.062      346.545       24.870      858.725
10/24/2014  13:59:00       68.502     -230.197        2.323      153.757      190.028       78.086    23641.273    36110.738     6097.482        6.176        3.292      240.173       72.724        0.092      346.401       24.619      858.721
10/24/2014  14:00:00      -68.241     -110.009       16.226      162.657      129.075       75.693    26457.304    16660.364     5729.477        3.292        2.442      129.456       69.852        0.291      346.346       24.527      858.665
10/24/2014  14:01:00      -33.092     -180.285      -32.988      106.208      122.012       70.035    11280.061    14886.922     4904.968        3.287        1.554      183.297       70.163        0.147      346.410       24.636      858.629
10/24/2014  14:02:00       74.277     -214.639       -1.109      132.833      123.223       73.071    17644.676    15183.890     5339.416        4.487        1.908      227.128       61.023        0.072      346.404       24.625      858.674
10/24/2014  14:03:00       40.205     -185.131      -18.290      145.460      110.861       67.293    21158.734    12290.125     4528.315        3.709        1.899      189.446       65.949        0.121      346.534       24.849      858.666
10/24/2014  14:04:00       61.513     -128.379        9.827      156.001      165.228       85.726    24336.395    27300.249     7348.924        3.966        2.949      142.355       95.131        0.447      346.480       24.756      858.626
10/24/2014  14:05:00     -133.513     -121.201        7.114      121.148      163.273       70.674    14676.818    26657.990     4994.797        3.944        2.316      180.321       76.424        0.180      346.373       24.571      858.571
10/24/2014  14:06:00       83.160     -354.029       -1.557      170.850      170.928      102.343    29189.839    29216.274    10474.087       10.055        3.444      363.665       78.670        0.047      346.380       24.582      858.584
10/24/2014  14:07:00       -0.050     -207.620        9.079       98.302      142.685       68.969     9663.270    20358.926     4756.741        3.898        1.739      207.620       77.136        0.138      346.427       24.663      858.611
10/24/2014  14:08:00      -69.526     -196.021        3.405       98.016      193.006       76.840     9607.148    37251.471     5904.448        4.801        2.638      207.986       80.066        0.148      346.401       24.620      858.614
10/24/2014  14:09:00        5.691     -152.875       20.315      127.674      161.311       79.142    16300.711    26021.225     6263.502        3.619        2.429      152.981       74.256        0.236      346.463       24.728      858.639
10/24/2014  14:10:00     -100.137     -162.308       15.793      118.772      140.661       77.245    14106.797    19785.399     5966.746        3.823        1.993      190.713       79.974        0.176      346.430       24.668      858.622
10/24/2014  14:11:00      -14.495     -176.686       32.465      116.650      138.116       60.099    13607.292    19076.009     3611.947        3.438        1.815      177.279       58.941        0.111      346.466       24.731      858.601
10/24/2014  14:12:00      -20.997     -197.680       -0.603      107.472      162.857       62.631    11550.299    26522.508     3922.628        4.075        2.100      198.792       38.141        0.037      346.467       24.732      858.619
10/24/2014  14:13:00       -7.939     -414.919      -16.935      158.121      175.626       81.895    25002.164    30844.472     6706.806       11.752        3.128      414.995       68.112        0.027      346.248       24.356      858.595
10/24/2014  14:14:00      -67.638     -158.568      -12.736       96.734       87.987       54.413     9357.489     7741.636     2960.759        2.497        1.003      172.392       25.362        0.022      346.435       24.679      858.623
10/24/2014  14:15:00      -31.348     -143.092       26.549      138.535      121.606       84.290    19192.063    14788.006     7104.820        3.162        2.054      146.485       77.852        0.282      346.496       24.783      858.640
10/24/2014  14:16:00       77.574     -178.656        5.157      140.303      141.438       81.668    19684.956    20004.742     6669.725        4.215        2.318      194.770       52.541        0.073      346.382       24.586      858.609
10/24/2014  14:17:00       28.283     -138.903        0.343      137.733       96.924       51.625    18970.455     9394.298     2665.156        2.556        1.551      141.753       49.156        0.120      346.523       24.830      858.575
10/24/2014  14:18:00      161.017     -255.334      -24.868      122.766      137.238       83.099    15071.388    18834.391     6905.485        6.627        2.041      301.864       60.225        0.040      346.409       24.633      858.520
10/24/2014  14:19:00      -17.883     -125.911       12.862      148.470      140.268       87.706    22043.260    19675.233     7692.303        3.287        2.471      127.174       89.725        0.498      346.565       24.902      858.504
10/24/2014  14:20:00       26.701     -244.698        2.304      182.368      167.425       75.147    33258.148    28031.113     5647.024        6.375        3.347      246.151       74.299        0.091      346.398       24.613      858.499
10/24/2014  14:21:00      -19.347     -196.470       -8.870      105.309      107.321       61.627    11090.034    11517.745     3797.909        3.272        1.320      197.420       50.288        0.065      346.466       24.731      858.490
10/24/2014  14:22:00     -135.549      -87.475       16.798      131.584      105.200       60.499    17314.404    11067.094     3660.142        2.917        1.602      161.324       63.889        0.157      346.508       24.803      858.467
10/24/2014  14:23:00      -19.483     -152.364       -2.820       90.986       96.965       51.591     8278.493     9402.306     2661.586        2.197        1.017      153.604       32.135        0.044      346.534       24.848      858.452
10/24/2014  14:24:00       75.374      -95.928       -1.913       85.083      123.816       71.539     7239.043    15330.378     5117.765        2.128        1.384      121.997       79.280        0.422      346.552       24.881      858.438
10/24/2014  14:25:00       72.483      -27.743       85.319       97.185      125.630       88.403     9444.994    15782.938     7815.141        2.317        1.652       77.611       75.282        0.941      346.560       24.893      858.388
10/24/2014  14:26:00      181.886     -381.559      -31.505      151.926      188.458       87.334    23081.660    35516.422     7627.148       12.293        3.311      422.693      102.395        0.059      346.466       24.730      858.407
10/24/2014  14:27:00      110.190     -246.457      -14.534      141.920      171.684       94.619    20141.313    29475.521     8952.798        6.582        2.928      269.968       87.005        0.104      346.426       24.663      858.447
10/24/2014  14:28:00       21.595     -368.412      -34.784      169.381      160.646       92.558    28689.991    25807.259     8566.995       10.022        3.153      369.045       79.109        0.046      346.319       24.477      858.455
10/24/2014  14:29:00      -22.742     -212.994       -5.391       97.349       89.250       61.305     9476.854     7965.603     3758.294        3.355        1.060      214.205       38.126        0.032      346.353       24.537      858.478
10/24/2014  14:30:00      -36.507     -320.008       -5.879      144.687      133.719       81.293    20934.383    17880.842     6608.574        7.459        2.271      322.084       51.403        0.025      346.279       24.409      858.481
10/24/2014  14:31:00      -57.528     -228.937       -5.551      140.386      107.725       71.695    19708.117    11604.636     5140.227        4.610        1.823      236.054       48.255        0.042      346.265       24.384      858.437
10/24/2014  14:32:00      -44.659     -138.972       -0.748       85.091       93.576       55.269     7240.488     8756.446     3054.713        2.018        0.953      145.971       58.238        0.159      346.484       24.764      858.442
10/24/2014  14:33:00       10.528     -127.828       10.448       95.324      123.223       67.590     9086.612    15184.002     4568.421        2.269        1.442      128.261       61.132        0.227      346.612       24.982      858.437
10/24/2014  14:34:00      -28.439      -54.705        2.871       62.481       60.343       36.050     3903.924     3641.304     1299.604        0.633        0.442       61.656       31.944        0.268      346.669       25.082      858.455
10/24/2014  14:35:00      -52.849     -133.556       -1.335      147.314      154.656       49.866    21701.299    23918.494     2486.637        3.436        2.405      143.632       61.747        0.185      346.554       24.883      858.461
10/24/2014  14:36:00     -230.030     -220.515      -22.945      167.856      162.962       69.606    28175.469    26556.516     4845.027        8.081        2.979      318.655       65.329        0.042      346.330       24.497      858.433
10/24/2014  14:37:00      -69.143      -94.169       12.136       67.101       68.265       38.036     4502.550     4660.059     1446.724        1.220        0.530      116.827       37.240        0.102      346.507       24.804      858.453
10/24/2014  14:38:00       35.097     -200.376       -3.432      134.801      149.201       93.291    18171.248    22260.997     8703.145        4.525        2.457      203.426       58.179        0.082      346.432       24.672      858.446
10/24/2014  14:39:00       -8.017     -258.198       28.198      178.269      174.010       98.204    31779.717    30279.559     9643.970        6.960        3.585      258.322       98.120        0.144      346.441       24.688      858.435
10/24/2014  14:40:00      -57.928     -181.367       -4.768      167.271       97.892       62.542    27979.721     9582.914     3911.519        3.886        2.074      190.393       33.651        0.031      346.435       24.677      858.449
10/24/2014  14:41:00      -56.305     -307.041       -7.940      123.293      157.272       79.495    15201.227    24734.585     6319.524        7.187        2.313      312.161       75.498        0.058      346.416       24.644      858.467
10/24/2014  14:42:00      -57.494     -322.015      -17.633      147.767      146.219       71.791    21835.052    21379.925     5153.916        7.783        2.418      327.108       67.853        0.043      346.323       24.484      858.459
10/24/2014  14:43:00     -101.241      -63.152       -7.171      113.561       84.853       44.178    12896.099     7200.062     1951.739        1.816        1.102      119.323       42.940        0.129      346.505       24.800      858.426
10/24/2014  14:44:00       13.933      -85.271       52.475      133.753      188.054       95.451    17889.992    35364.396     9110.960        3.628        3.118       86.402      107.687        1.553      346.549       24.875      858.391
10/24/2014  14:45:00      -20.699     -202.851      -23.460      115.108      116.049       71.716    13249.965    13467.426     5143.162        3.699        1.593      203.904       68.531        0.113      346.520       24.823      858.425
10/24/2014  14:46:00        9.527     -176.093       20.084      123.279      137.861       71.299    15197.830    19005.655     5083.480        3.539        1.964      176.350       73.950        0.176      346.561       24.895      858.434
10/24/2014  14:47:00       30.793     -175.728       13.439      133.476      162.578       88.907    17815.966    26431.628     7904.511        4.207        2.608      178.406       81.844        0.210      346.528       24.839      858.412
10/24/2014  14:48:00       96.607     -224.126        7.205      164.674      224.840      115.581    27117.652    50553.066    13359.081        7.531        4.551      244.060      133.777        0.300      346.457       24.716      858.372
10/24/2014  14:49:00      179.515     -343.554      -20.279      208.271      241.877       97.988    43376.876    58504.276     9601.614       13.105        5.574      387.627      122.303        0.100      346.365       24.556      858.360
10/24/2014  14:50:00       53.931      -85.958       22.952       85.182      107.043       68.748     7255.894    11458.141     4726.332        1.713        1.172      101.476       67.509        0.443      346.446       24.698      858.383
10/24/2014  14:51:00       74.086     -117.414       30.015      120.116      172.531       86.145    14427.845    29766.779     7420.889        3.589        2.581      138.834       98.298        0.501      346.386       24.594      858.368
10/24/2014  14:52:00      124.290     -285.720      -24.643      122.736      154.090       96.959    15064.065    23743.777     9400.996        7.294        2.410      311.583       69.426        0.050      346.431       24.671      858.365
10/24/2014  14:53:00      -15.937     -197.621      -18.874       92.819      106.859       53.650     8615.326    11418.751     2878.276        3.128        1.146      198.263       40.170        0.041      346.517       24.820      858.377
10/24/2014  14:54:00       28.139      -74.399       16.405      122.772      102.442       58.636    15073.034    10494.289     3438.127        1.779        1.450       79.542       64.204        0.652      346.547       24.872      858.385
10/24/2014  14:55:00       91.616     -193.068       45.827      171.050      176.370       96.148    29258.036    31106.454     9244.345        5.867        3.480      213.702      102.058        0.228      346.501       24.792      858.356
10/24/2014  14:56:00       20.280     -199.413        4.052      110.363      107.477       69.235    12180.007    11551.233     4793.474        3.435        1.426      200.442       52.824        0.069      346.511       24.808      858.345
10/24/2014  14:57:00      102.159     -223.509      -12.771      121.208      147.488       83.940    14691.304    21752.595     7045.955        5.201        2.174      245.749       74.304        0.091      346.420       24.651      858.333
10/24/2014  14:58:00      -11.786     -204.751       -8.666      176.981       92.091       66.666    31322.198     8480.700     4444.388        4.318        2.212      205.090       48.960        0.057      346.603       24.966      858.339
10/24/2014  14:59:00      -50.146     -285.388      -24.316      123.249      151.471       61.080    15190.402    22943.433     3730.729        6.320        2.093      289.761       57.491        0.039      346.389       24.598      858.374
10/24/2014  15:00:00       32.562     -194.043       14.890       83.336      137.317       62.621     6944.938    18855.975     3921.421        3.432        1.486      196.756       61.994        0.099      346.466       24.732      858.361
10/24/2014  15:01:00       -1.180     -108.849        8.919       81.881       91.591       49.576     6704.554     8388.841     2457.819        1.474        0.878      108.856       50.370        0.214      346.553       24.883      858.352
10/24/2014  15:02:00       40.152      -93.245        6.778       80.516      104.133       73.300     6482.773    10843.663     5372.921        1.652        1.135      101.522       65.940        0.422      346.460       24.721      858.284
10/24/2014  15:03:00       24.631     -280.374      -19.848      111.513      179.028       78.474    12435.062    32051.160     6158.102        6.512        2.532      281.453       74.445        0.070      346.503       24.796      858.316
10/24/2014  15:04:00       67.357     -122.130       19.350      100.430      134.102       82.777    10086.252    17983.320     6852.098        2.737        1.746      139.473       70.133        0.253      346.392       24.605      858.294
10/24/2014  15:05:00        4.620     -223.640       -8.492      179.897      145.774       60.580    32363.105    21249.927     3669.982        5.368        2.864      223.688       65.753        0.086      346.536       24.851      858.271
10/24/2014  15:06:00      -45.160     -136.970      -14.965      118.945      103.278       80.071    14147.937    10666.325     6411.357        2.612        1.561      144.223       57.803        0.161      346.526       24.834      858.325
10/24/2014  15:07:00      -45.029     -185.266      -24.596      106.412       83.485       44.223    11323.539     6969.792     1955.685        2.860        1.012      190.659       32.322        0.029      346.512       24.811      858.337
10/24/2014  15:08:00      -87.796     -131.911        9.569      119.540      104.571       58.918    14289.717    10935.166     3471.338        2.694        1.435      158.457       56.567        0.127      346.511       24.807      858.344
10/24/2014  15:09:00      -67.118      -84.281        6.454       80.094       91.207       44.927     6415.121     8318.785     2018.465        1.420        0.838      107.741       56.537        0.275      346.625       25.006      858.340
10/24/2014  15:10:00       86.348     -148.456       -2.387      117.303      154.125       55.032    13759.901    23754.477     3028.560        3.501        2.027      171.742       69.406        0.163      346.531       24.843      858.330
10/24/2014  15:11:00      106.700     -278.588       -2.854      126.272      187.690      103.607    15944.721    35227.522    10734.377        7.544        3.095      298.323       81.845        0.075      346.422       24.655      858.291
10/24/2014  15:12:00       87.677     -212.985        1.127      216.467      137.138       68.251    46857.860    18806.859     4658.238        6.167        3.516      230.326       67.971        0.087      346.543       24.864      858.293
10/24/2014  15:13:00      -70.491     -133.168        2.507      124.493      131.271       62.610    15498.510    17232.196     3920.047        2.967        1.833      150.674       60.872        0.163      346.653       25.054      858.284
10/24/2014  15:14:00     -134.344     -234.436       -1.411      141.636      150.387       76.214    20060.629    22616.120     5808.649        6.074        2.424      270.201       74.428        0.076      346.483       24.759      858.264
10/24/2014  15:15:00       -7.163     -184.169       -2.031      163.133      113.950       77.580    26612.524    12984.690     6018.652        3.979        2.281      184.309       80.688        0.192      346.508       24.803      858.279
10/24/2014  15:16:00       47.845     -280.001      -17.783      145.712      119.208       74.789    21232.098    14210.505     5593.386        6.101        2.052      284.060       46.725        0.027      346.363       24.553      858.287
10/24/2014  15:17:00       60.063     -180.448        0.391      113.622      202.897       86.915    12909.903    41167.229     7554.199        4.889        3.082      190.181       79.787        0.176      346.434       24.676      858.250
10/24/2014  15:18:00      165.948     -235.343       -6.029      107.277      154.332       95.149    11508.262    23818.298     9053.359        6.366        2.219      287.967       81.913        0.081      346.431       24.671      858.215
10/24/2014  15:19:00      -45.563     -248.371      -25.411      170.382      177.079       60.947    29030.155    31356.998     3714.594        6.424        3.205      252.515       52.509        0.043      346.421       24.653      858.259
10/24/2014  15:20:00     -103.000     -143.316      -17.375       86.568       96.906       57.453     7493.946     9390.853     3300.843        2.581        1.009      176.489       49.383        0.078      346.457       24.717      858.228
10/24/2014  15:21:00       36.996     -127.743        0.749       81.207      101.615       60.629     6594.616    10325.700     3675.849        1.914        1.030      132.993       38.622        0.084      346.399       24.617      858.217
10/24/2014  15:22:00      -27.553     -182.997        8.981      124.935      141.002       54.485    15608.745    19881.674     2968.645        3.639        1.923      185.060       39.469        0.045      346.606       24.971      858.275
10/24/2014  15:23:00       25.766      -84.889       30.445       64.410      117.161       58.210     4148.652    13726.640     3388.383        1.503        1.063       88.713       57.115        0.414      346.579       24.926      858.256
10/24/2014  15:24:00        2.425     -241.051       12.391      144.551      160.269       59.584    20894.920    25686.089     3550.274        5.419        2.507      241.064       59.300        0.061      346.607       24.974      858.287
10/24/2014  15:25:00      -24.399     -193.766       14.026      207.654      180.983       84.861    43120.361    32754.817     7201.318        6.069        4.154      195.297       78.011        0.160      346.497       24.785      858.274
10/24/2014  15:26:00       81.804     -302.539      -17.722      190.947      158.755       82.273    36460.812    25203.246     6768.854        8.347        3.422      313.403       71.358        0.052      346.428       24.664      858.277
10/24/2014  15:27:00     -189.698     -209.983      -11.690      187.967      152.224       94.584    35331.584    23172.263     8946.168        7.382        3.373      282.981       82.058        0.084      346.335       24.505      858.324
10/24/2014  15:28:00      -50.222     -193.479      -17.033      110.374      126.416       60.769    12182.488    15980.957     3692.883        3.605        1.593      199.891       49.021        0.060      346.410       24.635      858.285
10/24/2014  15:29:00     -122.896     -214.563       -2.276      216.387      146.035       86.786    46823.284    21326.348     7531.802        6.840        3.784      247.266       64.681        0.068      346.448       24.700      858.282
10/24/2014  15:30:00      -94.382     -166.485       11.494      129.782      122.949       90.540    16843.452    15116.362     8197.418        3.845        2.008      191.377       41.668        0.047      346.478       24.751      858.241
10/24/2014  15:31:00      -26.564     -196.614       -2.187      118.103      156.976       74.363    13948.403    24641.476     5529.813        4.173        2.206      198.400       42.455        0.046      346.459       24.719      858.282
10/24/2014  15:32:00      -11.990      -69.064       18.368       78.057      111.257       45.563     6092.872    12378.221     2076.032        1.289        1.027       70.097       25.724        0.135      346.369       24.567      858.259
10/24/2014  15:33:00       -4.866     -210.802       -1.422      119.518      237.886       68.083    14284.664    56589.580     4635.256        5.997        3.775      210.859       86.050        0.167      346.323       24.486      858.223
10/24/2014  15:34:00       10.261     -144.641       -2.656      107.249      100.336       64.447    11502.249    10067.325     4153.480        2.337        1.286      145.004       58.316        0.162      346.435       24.679      858.221
10/24/2014  15:35:00       58.147     -318.009      -10.852      183.480      155.518       97.405    33664.926    24185.859     9487.829        8.597        3.367      323.281       85.229        0.070      346.432       24.672      858.231
10/24/2014  15:36:00      -54.815     -213.742       13.387      194.190      126.914       85.369    37709.582    16107.239     7287.846        5.497        3.055      220.659       73.815        0.112      346.432       24.672      858.252
10/24/2014  15:37:00       59.817     -178.722        5.807      150.536      180.527       93.223    22660.978    32589.964     8690.453        4.973        3.197      188.466      102.158        0.294      346.380       24.584      858.270
10/24/2014  15:38:00     -194.585     -123.409       -3.597      173.560      142.309       79.332    30123.159    20251.964     6293.645        5.488        2.833      230.420       74.097        0.103      346.414       24.642      858.231
10/24/2014  15:39:00     -148.932     -245.318        5.233       98.518      139.146       73.526     9705.786    19361.523     5406.045        5.842        1.724      286.987       70.091        0.060      346.313       24.466      858.240
10/24/2014  15:40:00     -134.421     -124.810        8.845       98.081      101.128       51.758     9619.932    10226.964     2678.903        2.812        1.126      183.430       43.675        0.057      346.411       24.639      858.231
10/24/2014  15:41:00     -111.358     -182.735      -18.606      148.282      140.715       53.136    21987.528    19800.828     2823.439        4.537        2.231      213.992       48.672        0.052      346.446       24.697      858.205
10/24/2014  15:42:00      -61.830     -195.861      -14.830      114.978      102.597       59.930    13219.855    10526.074     3591.648        3.487        1.367      205.388       42.688        0.043      346.571       24.912      858.185
10/24/2014  15:43:00      -85.659     -143.809       -0.506      116.790      118.833       53.813    13640.014    14121.338     2895.838        2.933        1.533      167.387       52.702        0.099      346.649       25.045      858.236
10/24/2014  15:44:00      -90.082     -198.392       21.232       96.271      123.287       55.908     9268.201    15199.637     3125.670        3.775        1.380      217.885       43.701        0.040      346.524       24.831      858.227
10/24/2014  15:45:00      -37.578     -146.484       14.667      143.755      166.741       70.451    20665.452    27802.396     4963.284        3.825        2.672      151.227       69.647        0.212      346.564       24.900      858.243
10/24/2014  15:46:00      -96.270     -392.945      -10.600      241.053      164.146       92.792    58106.694    26944.026     8610.359       12.870        4.683      404.566      102.253        0.064      346.412       24.639      858.216
10/24/2014  15:47:00     -117.340     -167.616       17.614      141.280      127.585       75.405    19960.119    16277.846     5685.961        4.204        2.096      204.606       58.311        0.081      346.423       24.657      858.234
10/24/2014  15:48:00     -279.672     -137.590       -5.241      137.757      117.980       63.862    18976.867    13919.335     4078.350        6.707        1.849      311.685       55.280        0.031      346.384       24.590      858.171
10/24/2014  15:49:00     -212.326     -301.704       -8.584      140.337      181.636       69.049    19694.424    32991.601     4767.803        9.681        2.873      368.928       53.570        0.021      346.389       24.597      858.154
10/24/2014  15:50:00        6.513     -160.379       -3.320      113.880       85.341       59.884    12968.616     7283.154     3586.043        2.480        1.192      160.511       31.575        0.039      346.475       24.748      858.208
10/24/2014  15:51:00       32.156     -241.351      -30.431      184.805      130.037       85.789    34152.853    16909.599     7359.781        5.930        2.921      243.484       81.762        0.113      346.583       24.933      858.185
10/24/2014  15:52:00     -135.801     -242.600       11.732      149.255      161.458       77.494    22276.965    26068.675     6005.342        6.588        2.718      278.023       64.197        0.053      346.499       24.787      858.186
10/24/2014  15:53:00     -260.932     -273.732       -4.806      167.546      182.467       84.173    28071.795    33294.087     7085.129       10.573        3.423      378.173       86.302        0.052      346.423       24.657      858.145
10/24/2014  15:54:00     -304.435     -143.432        8.442      218.240      121.006       74.630    47628.843    14642.391     5569.615        9.057        3.392      336.531       75.212        0.050      346.365       24.557      858.072
10/24/2014  15:55:00      -95.056     -158.317       -4.421      165.316      162.695       70.288    27329.430    26469.532     4940.463        4.642        2.937      184.661       83.175        0.203      346.481       24.758      858.044
10/24/2014  15:56:00     -257.068     -175.775        0.730      140.739      138.341       73.089    19807.480    19138.369     5341.956        7.063        2.214      311.418       71.305        0.052      346.510       24.806      858.069
10/24/2014  15:57:00     -181.595     -230.822      -14.398      145.181      156.085       65.476    21077.557    24362.551     4287.105        6.809        2.486      293.693       58.742        0.040      346.478       24.752      858.099
10/24/2014  15:58:00      -78.437     -209.452       -6.558      131.364       86.422       59.327    17256.629     7468.842     3519.708        3.915        1.412      223.657       36.737        0.027      346.520       24.823      858.093
10/24/2014  15:59:00     -150.350     -159.883       -3.069      123.102      145.158       59.594    15154.005    21070.751     3551.434        4.397        1.989      219.472       48.159        0.048      346.588       24.943      858.128
10/24/2014  16:00:00     -255.992     -188.554      -24.286      150.042      125.762       62.047    22512.496    15816.187     3849.794        7.192        2.109      317.938       49.419        0.024      346.440       24.685      858.041
10/24/2014  16:01:00     -181.185     -182.742        4.376      146.188      156.317       66.648    21370.804    24434.862     4441.980        5.823        2.512      257.338       71.995        0.078      346.509       24.804      858.034
10/24/2014  16:02:00     -201.664     -249.720        5.125      119.817      201.517       73.032    14356.144    40609.195     5333.625        8.166        3.015      320.980       84.033        0.069      346.546       24.868      858.064
10/24/2014  16:03:00     -111.585     -281.108      -10.351       83.292      108.642       58.794     6937.572    11803.088     3456.683        5.688        1.110      302.445       49.307        0.027      346.546       24.868      858.081
10/24/2014  16:04:00      -46.358      -66.213       -4.332       86.543       55.461       43.207     7489.677     3075.891     1866.881        0.949        0.622       80.828       33.130        0.168      346.572       24.916      858.100
10/24/2014  16:05:00      -54.824     -118.918      -14.111       63.015      127.870       42.053     3970.838    16350.658     1768.420        1.971        1.104      130.947       41.236        0.099      346.612       24.983      858.079
10/24/2014  16:06:00      -63.404     -244.166      -10.294      103.527      160.429       66.919    10717.755    25737.356     4478.179        5.233        2.047      252.264       62.599        0.062      346.449       24.702      858.079
10/24/2014  16:07:00       37.028     -387.772      -13.675      158.797      148.074      116.579    25216.581    21926.017    13590.766       10.632        3.037      389.536       58.425        0.022      346.351       24.532      858.063
10/24/2014  16:08:00     -101.603     -249.318       -3.311      156.340      160.443       65.781    24442.326    25741.894     4327.141        6.349        2.726      269.226       63.396        0.055      346.399       24.614      858.063
10/24/2014  16:09:00      -74.365     -255.509      -11.650      104.332      133.999       65.801    10885.258    17955.798     4329.831        5.205        1.659      266.111       63.434        0.057      346.310       24.462      858.049
10/24/2014  16:10:00      -87.398     -243.057      -36.689      128.056      116.291       70.944    16398.363    13523.581     5033.063        5.150        1.748      258.292       56.178        0.047      346.362       24.553      858.057
10/24/2014  16:11:00      -21.309     -289.078      -24.952      157.974      164.146       89.928    24955.641    26943.999     8087.101        7.230        2.999      289.862       70.619        0.059      346.351       24.531      858.057
10/24/2014  16:12:00       26.282     -366.584      -11.449      154.419      152.717       83.942    23845.345    23322.473     7046.239        9.470        2.711      367.525       54.412        0.022      346.263       24.380      858.046
10/24/2014  16:13:00     -129.367     -211.659       19.302      249.640      191.921       98.736    62320.208    36833.810     9748.800        8.538        5.445      248.064      124.181        0.251      346.302       24.448      858.031
10/24/2014  16:14:00     -137.086     -199.222       -4.252      114.064      169.883       58.130    13010.703    28860.084     3379.146        5.187        2.262      241.830       50.572        0.044      346.332       24.499      858.044
10/24/2014  16:15:00       23.216     -241.622      -14.853      143.215      141.422       79.192    20510.670    20000.222     6271.382        5.295        2.339      242.735       71.253        0.086      346.285       24.419      858.041
10/24/2014  16:16:00       15.626     -343.358      -23.969      148.699      124.299       84.621    22111.312    15450.315     7160.663        8.171        2.236      343.714       65.052        0.036      346.229       24.322      858.027
10/24/2014  16:17:00       -7.104     -266.131       17.896      130.526      139.541      101.816    17037.018    19471.819    10366.516        5.903        2.344      266.226       66.351        0.062      346.257       24.369      858.030
10/24/2014  16:18:00      -91.421     -320.396      -13.346      125.925      123.599       74.707    15857.177    15276.713     5581.095        7.394        1.836      333.184       66.154        0.039      346.204       24.280      858.035
10/24/2014  16:19:00       19.354     -337.664        1.899      172.922      171.499       95.510    29901.852    29411.855     9122.130        9.140        3.422      338.219       80.519        0.057      346.179       24.237      858.049
10/24/2014  16:20:00      -14.771     -227.979        4.390      168.152      167.756       84.617    28275.182    28142.152     7160.058        5.788        3.179      228.457       76.779        0.113      346.217       24.301      858.036
10/24/2014  16:21:00      -46.022     -186.718      -13.772      120.284      120.463       56.319    14468.316    14511.226     3171.829        3.465        1.608      192.306       45.829        0.057      346.261       24.379      858.035
10/24/2014  16:22:00       17.662     -354.690      -34.952      179.702      182.061       65.900    32292.659    33146.298     4342.774        9.855        3.489      355.130       50.286        0.020      346.252       24.362      858.007
10/24/2014  16:23:00     -182.258     -179.812      -12.631      134.104      122.874       56.600    17983.895    15098.130     3203.610        5.099        1.814      256.028       54.858        0.046      346.355       24.540      858.029
10/24/2014  16:24:00     -162.010     -203.513       -4.613      111.353      142.334       58.861    12399.599    20258.909     3464.559        5.190        1.806      260.125       53.340        0.042      346.367       24.562      858.044
10/24/2014  16:25:00      -90.203      -37.846       25.636       77.866       90.445       54.819     6063.186     8180.371     3005.137        1.373        0.862       97.821       41.871        0.183      346.369       24.565      858.039
10/24/2014  16:26:00       -7.008     -218.803      -15.595      133.533      108.491       65.979    17830.934    11770.351     4353.259        4.105        1.698      218.915       38.000        0.030      346.360       24.549      858.016
10/24/2014  16:27:00     -139.383     -170.434      -18.770      140.214      126.232       54.139    19659.982    15934.440     2931.055        4.367        1.926      220.171       72.315        0.108      346.332       24.500      858.008
10/24/2014  16:28:00       24.486     -273.501      -28.662      118.193      146.315       65.457    13969.593    21407.969     4284.576        5.794        1.983      274.595       52.770        0.037      346.254       24.366      858.011
10/24/2014  16:29:00      -21.966      -81.282        7.295      114.677      104.308       45.585    13150.888    10880.155     2078.007        1.662        1.305       84.198       39.365        0.219      346.312       24.468      857.996
10/24/2014  16:30:00      -98.949      -57.381        0.031       97.264       66.239       47.918     9460.220     4387.635     2296.142        1.461        0.807      114.383       46.026        0.162      346.317       24.477      857.950
10/24/2014  16:31:00       17.466     -110.212        9.217      118.611      107.314       54.860    14068.520    11516.307     3009.601        2.056        1.430      111.587       53.455        0.229      346.240       24.345      857.985
10/24/2014  16:32:00      -92.609      -98.401       12.819      118.979       93.938       57.523    14155.990     8824.401     3308.920        2.235        1.314      135.126       63.324        0.220      346.239       24.342      857.959
10/24/2014  16:33:00       64.366     -138.686       21.627      191.565      123.187       88.877    36696.978    15174.998     7899.059        4.180        2.989      152.895       84.685        0.307      346.283       24.418      857.979
10/24/2014  16:34:00        7.739     -121.357        4.709      117.951      102.637       62.853    13912.509    10534.350     3950.442        2.160        1.420      121.603       38.509        0.100      346.236       24.337      857.980
10/24/2014  16:35:00      -91.404      -47.909        1.136       85.656       60.757       46.774     7336.890     3691.380     2187.765        1.193        0.661      103.199       43.764        0.180      346.322       24.485      857.984
10/24/2014  16:36:00     -165.238     -183.211      -13.229      112.126      120.446       72.724    12572.185    14507.180     5288.741        4.670        1.618      246.718       51.332        0.043      346.283       24.414      858.015
10/24/2014  16:37:00     -102.317     -127.297       -9.342      106.069       59.183       41.666    11250.690     3502.647     1736.084        2.162        0.824      163.320       43.407        0.071      346.317       24.477      857.989
10/24/2014  16:38:00     -246.202     -249.665      -29.732      136.867      125.586       80.833    18732.499    15771.791     6534.011        8.243        2.052      350.639       79.912        0.052      346.202       24.275      857.974
10/24/2014  16:39:00     -141.261     -124.109        6.160      103.798      103.715       71.121    10773.926    10756.716     5058.201        3.099        1.329      188.036       48.318        0.066      346.287       24.425      857.975
10/24/2014  16:40:00      -67.817     -155.771       22.392      109.990      101.442       57.693    12097.897    10290.413     3328.470        2.754        1.286      169.894       47.790        0.079      346.308       24.461      857.997
10/24/2014  16:41:00     -144.351      -55.429       11.428       89.925       79.013       52.891     8086.475     6243.011     2797.483        2.058        0.856      154.627       40.130        0.067      346.325       24.490      857.958
10/24/2014  16:42:00     -200.078     -146.551       -6.897      163.653      171.092       71.605    26782.337    29272.369     5127.301        6.136        3.059      248.009       89.730        0.131      346.221       24.310      857.905
10/24/2014  16:43:00     -160.832     -241.298       15.453      107.875      175.643       79.991    11637.103    30850.442     6398.611        6.660        2.444      289.986       88.897        0.094      346.235       24.333      857.926
10/24/2014  16:44:00      -30.116     -347.312       -7.714      151.705      139.098       81.006    23014.477    19348.296     6561.904        8.525        2.446      348.615       60.903        0.031      346.202       24.274      857.941
10/24/2014  16:45:00     -157.066     -255.162        1.875      146.259      139.126       75.966    21391.705    19355.912     5770.837        6.814        2.326      299.629       69.530        0.054      346.177       24.234      857.927
10/24/2014  16:46:00     -161.381     -269.160        6.141      193.587      170.717       92.376    37476.017    29144.340     8533.411        8.683        3.758      313.832       77.792        0.061      346.133       24.158      857.913
10/24/2014  16:47:00     -125.888     -198.741       -8.403      116.960      110.828       68.788    13679.604    12282.890     4731.822        4.305        1.535      235.257       42.503        0.033      346.187       24.251      857.920
10/24/2014  16:48:00      -55.954     -238.824        8.942      130.449      147.474       77.128    17017.032    21748.436     5948.718        5.247        2.236      245.291       45.490        0.034      346.160       24.205      857.927
10/24/2014  16:49:00      -76.006     -163.057       -9.076       99.095      103.952       44.754     9819.836    10805.984     2002.898        2.753        1.131      179.901       32.017        0.032      346.157       24.202      857.908
10/24/2014  16:50:00      -58.714      -69.433       -9.580       73.558       76.962       54.534     5410.759     5923.204     2973.937        1.133        0.715       90.930       38.570        0.180      346.211       24.295      857.875
10/24/2014  16:51:00      -62.288     -103.466        1.244      106.209       69.681       52.578    11280.317     4855.508     2764.490        1.674        0.945      120.769       43.718        0.131      346.218       24.306      857.869
10/24/2014  16:52:00      -62.794     -133.710      -11.140       98.957       79.768       60.272     9792.551     6362.892     3632.743        2.086        0.989      147.721       38.975        0.070      346.127       24.148      857.851
10/24/2014  16:53:00      -54.392     -339.320        2.679      133.292      204.585       82.473    17766.765    41855.041     6801.765        9.225        3.321      343.652       76.865        0.050      346.116       24.128      857.883
10/24/2014  16:54:00     -104.518     -148.079       -7.169      129.097      104.777       59.409    16665.937    10978.235     3529.449        3.203        1.559      181.250       49.903        0.076      346.152       24.191      857.887
10/24/2014  16:55:00       26.328     -210.640        5.238      155.443      177.089       79.834    24162.416    31360.566     6373.486        5.348        3.095      212.279       79.899        0.142      346.141       24.173      857.892
10/24/2014  16:56:00     -110.238     -187.755      -23.088      166.400      111.433       66.126    27688.867    12417.422     4372.707        4.620        2.224      217.726       53.651        0.061      346.069       24.049      857.877
10/24/2014  16:57:00     -114.811     -157.349       -5.736      119.950      108.616       68.171    14388.011    11797.348     4647.320        3.440        1.542      194.782       51.854        0.071      346.144       24.177      857.852
10/24/2014  16:58:00     -172.502     -138.880        9.600      136.100      109.390       65.413    18523.291    11966.104     4278.795        4.195        1.738      221.460       46.995        0.045      346.126       24.145      857.810
10/24/2014  16:59:00      -92.544      -85.054      -15.167      127.002       88.962       55.811    16129.587     7914.183     3114.881        2.159        1.358      125.692       55.592        0.196      346.167       24.219      857.805
10/24/2014  17:00:00      -54.024     -144.662       26.230      125.513      123.986       71.952    15753.545    15372.453     5177.096        3.041        1.815      154.420       64.861        0.176      346.150       24.187      857.815
10/24/2014  17:01:00     -127.971     -203.370       11.934      149.914      169.533       78.446    22474.065    28741.375     6153.708        5.761        2.868      240.283       72.005        0.090      346.133       24.157      857.843
10/24/2014  17:02:00      -65.782     -181.662        0.323      133.059      114.282       71.577    17704.759    13060.372     5123.262        3.660        1.794      193.205       48.047        0.062      346.159       24.201      857.835
10/24/2014  17:03:00     -146.538     -215.696        0.526      109.064      100.786       58.358    11894.863    10157.817     3405.641        4.672        1.273      260.764       46.126        0.031      346.108       24.114      857.786
10/24/2014  17:04:00     -124.513     -155.927       -3.233      127.904       88.912       50.130    16359.333     7905.311     2512.990        3.330        1.339      199.541       49.034        0.060      346.104       24.109      857.800
10/24/2014  17:05:00     -227.404     -232.183        4.391      126.889      130.540       74.184    16100.816    17040.822     5503.297        7.214        1.932      324.995       73.537        0.051      346.062       24.035      857.769
10/24/2014  17:06:00     -152.644     -272.890       -5.255       79.143      152.136       56.862     6263.618    23145.476     3233.263        6.521        1.632      312.681       41.818        0.018      346.051       24.017      857.762
10/24/2014  17:07:00     -190.537     -255.372      -18.138       92.238      157.319       60.427     8507.934    24749.303     3651.438        6.937        1.845      318.621       55.053        0.030      346.055       24.023      857.765
10/24/2014  17:08:00     -230.175     -310.291      -13.878      136.280      125.115       66.964    18572.291    15653.853     4484.207        9.407        1.936      386.343       67.247        0.030      346.043       24.001      857.800
10/24/2014  17:09:00     -244.356     -203.604        2.061      149.339      126.913       87.338    22302.271    16106.810     7627.848        7.359        2.302      318.064       86.499        0.074      346.062       24.036      857.786
10/24/2014  17:10:00     -164.618     -208.543       -6.010      158.337      121.844       76.407    25070.728    14845.976     5838.028        5.818        2.288      265.686       66.118        0.062      346.032       23.984      857.800
10/24/2014  17:11:00     -184.780     -236.407       -6.973      119.854      127.726       54.682    14365.020    16314.045     2990.082        6.187        1.683      300.053       57.618        0.037      346.033       23.986      857.787
10/24/2014  17:12:00     -161.063     -139.734       13.659      135.979       94.460       57.399    18490.238     8922.737     3294.698        3.817        1.535      213.230       77.317        0.131      345.995       23.923      857.762
10/24/2014  17:13:00     -191.406     -133.465       -5.618      100.908       87.861       51.280    10182.520     7719.559     2629.616        3.750        1.027      233.344       57.449        0.061      345.987       23.908      857.752
10/24/2014  17:14:00     -204.312     -194.520      -11.880      114.677      103.013       51.953    13150.744    10611.775     2699.111        5.309        1.323      282.101       47.932        0.029      345.986       23.906      857.755
10/24/2014  17:15:00     -169.829     -292.162      -16.268      147.912      127.527       65.073    21878.020    16263.190     4234.495        7.841        2.119      337.936       58.458        0.030      345.972       23.882      857.791
10/24/2014  17:16:00     -155.957     -208.850       -4.689      164.680      137.279       65.067    27119.508    18845.390     4233.768        5.907        2.510      260.655       64.905        0.062      345.954       23.850      857.801
10/24/2014  17:17:00     -153.082     -148.992      -15.538       93.646       80.517       48.737     8769.559     6483.056     2375.302        3.175        0.881      213.618       37.218        0.030      345.963       23.867      857.782
10/24/2014  17:18:00     -165.887     -105.810       -5.274      106.128       80.514       50.035    11263.226     6482.492     2503.455        2.949        1.012      196.759       62.520        0.101      345.952       23.848      857.801
10/24/2014  17:19:00     -220.064     -216.529      -12.717      138.664      111.136       58.472    19227.822    12351.233     3418.968        6.523        1.750      308.727       51.979        0.028      345.888       23.739      857.833
10/24/2014  17:20:00      -80.389     -166.812       10.365       74.061       90.399       43.485     5484.968     8171.964     1890.960        2.497        0.777      185.172       33.308        0.032      345.898       23.756      857.904
10/24/2014  17:21:00     -136.832     -113.958       -4.210      104.637       65.808       44.129    10948.983     4330.726     1947.372        2.447        0.861      178.071       49.818        0.078      345.924       23.801      857.913
10/24/2014  17:22:00      -79.638      -65.767      -11.358       70.261       50.524       29.121     4936.630     2552.660      848.033        0.957        0.417      103.284       22.608        0.048      345.907       23.773      857.876
10/24/2014  17:23:00      -49.173      -76.977        9.017       51.431       85.939       43.204     2645.196     7385.527     1866.601        1.016        0.595       91.342       40.206        0.194      345.895       23.751      857.830
10/24/2014  17:24:00      -79.614      -15.455       13.167       90.214       61.803       33.526     8138.491     3819.588     1124.008        0.991        0.654       81.100       44.754        0.305      345.725       23.459      857.756
10/24/2014  17:25:00     -169.283      -78.265        1.815       93.279       68.557       47.043     8701.045     4700.125     2213.071        2.520        0.781      186.500       49.428        0.070      345.867       23.703      857.769
10/24/2014  17:26:00     -180.344     -106.528       -9.631       97.965       92.014       46.612     9597.099     8466.583     2172.634        3.210        1.012      209.457       48.620        0.054      345.786       23.563      857.813
10/24/2014  17:27:00     -181.343     -182.844        0.078      110.929      120.762       45.607    12305.219    14583.383     2079.955        4.764        1.448      257.521       53.144        0.043      345.794       23.578      857.839
10/24/2014  17:28:00     -205.607     -169.712       -6.247      129.105       92.972       52.893    16668.054     8643.739     2797.617        4.961        1.405      266.602       46.651        0.031      345.795       23.579      857.836
10/24/2014  17:29:00      -41.779      -78.816       10.594       60.038       64.311       36.489     3604.591     4135.969     1331.443        0.857        0.454       89.205       33.006        0.137      345.793       23.578      857.835
10/24/2014  17:30:00      -95.429      -36.556       18.788      106.383       54.998       42.701    11317.283     3024.833     1823.359        1.348        0.808      102.191       50.956        0.249      345.689       23.396      857.818
10/24/2014  17:31:00     -170.565     -102.744       -1.221       73.045       73.901       36.638     5335.519     5461.416     1342.312        2.589        0.607      199.120       36.837        0.034      345.740       23.486      857.818
10/24/2014  17:32:00     -211.212     -137.593      -12.953      118.594       91.652       43.828    14064.609     8400.098     1920.928        4.404        1.219      252.076       53.285        0.045      345.715       23.440      857.839
10/24/2014  17:33:00     -156.186      -39.683       26.415      139.400      104.035       57.525    19432.242    10823.280     3309.070        3.011        1.678      161.148       70.006        0.189      345.583       23.215      857.833
10/24/2014  17:34:00      -98.665      -13.374        1.760       90.673       56.635       35.771     8221.608     3207.528     1279.570        1.131        0.635       99.568       41.380        0.173      345.569       23.193      857.820
10/24/2014  17:35:00     -106.517      -65.693        4.935       90.693       55.109       35.941     8225.299     3037.019     1291.766        1.412        0.628      125.146       41.439        0.110      345.544       23.148      857.826
10/24/2014  17:36:00      -93.880      -76.389       -1.355       41.485       65.550       28.498     1720.994     4296.766      812.157        1.074        0.341      121.032       23.256        0.037      345.670       23.366      857.808
10/24/2014  17:37:00      -76.412     -135.612        2.164       80.698       78.763       45.114     6512.206     6203.539     2035.255        1.949        0.738      155.658       41.582        0.071      345.644       23.320      857.790
10/24/2014  17:38:00      -50.104      -35.560       13.985       93.821       59.286       30.257     8802.300     3514.885      915.491        0.860        0.662       61.440       38.995        0.403      345.486       23.052      857.807
10/24/2014  17:39:00      -67.556      -58.904       10.623       52.504       51.405       30.936     2756.677     2642.428      957.041        0.725        0.318       89.629       24.903        0.077      345.620       23.280      857.819
10/24/2014  17:40:00      -93.921      -70.756        6.451       64.871       48.808       28.941     4208.262     2382.215      837.582        1.065        0.371      117.591       33.330        0.080      345.569       23.193      857.810
10/24/2014  17:41:00      -93.881      -66.110        2.108       70.479       58.537       32.179     4967.221     3426.533     1035.507        1.131        0.471      114.822       36.997        0.104      345.469       23.021      857.818
10/24/2014  17:42:00      -42.952     -137.383        8.975       81.468       89.520       36.446     6637.084     8013.779     1328.280        1.839        0.799      143.941       33.698        0.055      345.519       23.107      857.832
10/24/2014  17:43:00      -81.722     -159.800       -2.684       82.748       98.374       51.033     6847.220     9677.517     2604.358        2.567        0.956      179.484       40.279        0.050      345.496       23.064      857.836
10/24/2014  17:44:00      -84.071     -166.569        3.820      147.302       96.440       46.027    21698.008     9300.645     2118.497        3.397        1.656      186.583       42.553        0.052      345.480       23.036      857.833
10/24/2014  17:45:00     -202.191     -201.348      -22.195      144.743      135.132       66.102    20950.558    18260.613     4369.502        6.274        2.179      285.345       73.279        0.066      345.467       23.013      857.818
10/24/2014  17:46:00     -155.992      -88.584        2.523      133.771       76.656       50.598    17894.559     5876.215     2560.175        2.925        1.317      179.390       54.560        0.093      345.405       22.909      857.799
10/24/2014  17:47:00      -45.476      -41.474        4.089       60.877       58.760       34.673     3706.062     3452.758     1202.188        0.608        0.418       61.548       35.553        0.334      345.260       22.664      857.807
10/24/2014  17:48:00     -124.259     -127.272        0.286       86.400       82.234       40.694     7465.026     6762.451     1656.016        2.376        0.794      177.872       48.860        0.075      345.282       22.698      857.814
10/24/2014  17:49:00     -150.723     -120.725        4.358       94.555       87.171       50.405     8940.670     7598.786     2540.639        2.819        0.954      193.111       52.533        0.074      345.224       22.600      857.874
10/24/2014  17:50:00      -94.997     -174.857       -9.088       63.866       92.002       49.014     4078.804     8464.289     2402.390        2.731        0.747      198.996       36.232        0.033      345.293       22.718      857.981
10/24/2014  17:51:00      -43.742     -109.746       -7.181       72.234       77.786       34.054     5217.764     6050.697     1159.678        1.322        0.621      118.142       22.545        0.036      345.251       22.647      858.012
10/24/2014  17:52:00      -93.910      -70.067       -1.396       56.560       61.721       35.938     3199.021     3809.474     1291.529        1.101        0.415      117.168       22.584        0.037      345.240       22.629      857.969
10/24/2014  17:53:00     -182.875      -71.563      -21.579       88.664       72.972       36.381     7861.297     5324.854     1323.604        2.677        0.725      196.379       35.622        0.033      345.301       22.729      857.851
10/24/2014  17:54:00      -23.460     -156.369       -4.029       66.292       66.008       27.968     4394.656     4357.016      782.219        1.727        0.477      158.119       20.246        0.016      345.413       22.925      857.770
10/24/2014  17:55:00     -149.263     -207.682      -10.032       68.907      101.618       39.480     4748.133    10326.125     1558.670        4.107        0.832      255.756       34.820        0.019      345.371       22.848      857.780
10/24/2014  17:56:00      -61.984     -123.659        5.341       81.650       67.264       37.529     6666.684     4524.504     1408.391        1.588        0.630      138.324       32.795        0.056      345.298       22.727      857.811
10/24/2014  17:57:00      -77.609      -93.742       10.322       74.720       42.689       32.875     5583.114     1822.388     1080.747        1.170        0.424      121.699       33.124        0.074      345.243       22.632      857.850
10/24/2014  17:58:00     -149.597      -72.090        2.637       97.450       48.779       33.907     9496.513     2379.425     1149.673        2.030        0.651      166.061       38.041        0.052      345.167       22.503      857.847
10/24/2014  17:59:00     -186.635      -77.976       -7.222       97.139      104.888       43.899     9435.932    11001.401     1927.145        3.166        1.118      202.270       43.656        0.047      345.151       22.475      857.799
10/24/2014  18:00:00     -130.996      -61.413      -12.595       40.150       55.054       21.119     1612.056     3030.932      446.014        1.309        0.254      144.678        7.696        0.003      345.116       22.416      857.785
10/24/2014  18:01:00      -42.961      -52.830       11.935       82.508       42.702       30.520     6807.623     1823.429      931.444        0.717        0.478       68.093       34.076        0.250      344.911       22.066      857.858
10/24/2014  18:02:00      -48.037     -124.850       13.157       48.349       47.677       32.991     2337.634     2273.094     1088.400        1.188        0.285      133.773       25.452        0.036      345.084       22.363      857.922
10/24/2014  18:03:00       22.183      -17.674       15.472       54.486       53.791       44.299     2968.760     2893.441     1962.395        0.443        0.391       28.363       37.015        1.703      344.563       21.471      857.942
10/24/2014  18:04:00       60.523        8.743       15.761       31.198       36.216       28.475      973.284     1311.625      810.848        0.354        0.155       61.151       17.563        0.082      343.907       20.348      857.874
10/24/2014  18:05:00       18.269      -52.080        3.442       37.903       60.701       22.020     1436.601     3684.557      484.883        0.433        0.280       55.192       19.047        0.119      344.552       21.452      857.883
10/24/2014  18:06:00      -17.528      -46.371        0.356       54.408       30.631       32.158     2960.180      938.251     1034.114        0.369        0.247       49.573       31.296        0.399      344.827       21.922      857.958
10/24/2014  18:07:00      -26.327     -148.946      -10.292      120.047       80.368       55.506    14411.228     6459.092     3080.896        2.346        1.198      151.255       44.145        0.085      344.981       22.185      857.967
10/24/2014  18:08:00     -202.898     -174.543      -16.942       87.957       85.243       46.164     7736.488     7266.394     2131.075        4.452        0.857      267.643       40.987        0.023      344.948       22.125      857.885
10/24/2014  18:09:00     -215.676     -149.936       -4.974       83.264       94.634       55.164     6932.848     8955.611     3043.072        4.397        0.947      262.673       51.751        0.039      344.917       22.073      857.884
10/24/2014  18:10:00     -205.869     -104.403        0.665      129.854       94.848       53.729    16861.963     8996.177     2886.757        4.101        1.437      230.829       58.435        0.064      344.918       22.075      857.840
10/24/2014  18:11:00      -88.747      -35.554        2.210       75.754       59.787       50.429     5738.742     3574.473     2543.081        1.050        0.593       95.604       50.250        0.276      344.971       22.168      857.768
10/24/2014  18:12:00     -202.548     -109.720       27.719      147.747      129.385       61.627    21829.250    16740.430     3797.940        4.809        2.118      230.357       70.289        0.093      344.994       22.206      857.877
10/24/2014  18:13:00     -177.357     -195.789       -0.104      124.931      114.676       58.419    15607.668    13150.487     3412.724        5.097        1.609      264.175       57.417        0.047      345.068       22.332      857.854
10/24/2014  18:14:00     -226.484     -137.951       19.978      198.220      128.945       62.201    39291.200    16626.796     3868.909        6.524        2.989      265.189       83.606        0.099      344.955       22.139      857.851
10/24/2014  18:15:00     -113.100     -130.068       -0.806       98.221       73.548       44.573     9647.459     5409.253     1986.721        2.337        0.852      172.364       38.121        0.049      345.101       22.390      857.817
10/24/2014  18:16:00     -133.695     -150.046       11.916       99.280       76.471       45.311     9856.588     5847.812     2053.109        2.914        0.888      200.968       49.743        0.061      345.047       22.297      857.867
10/24/2014  18:17:00      -85.992     -146.690       12.096       87.494       80.479       45.166     7655.192     6476.888     2040.005        2.261        0.809      170.037       47.539        0.078      344.979       22.180      857.924
10/24/2014  18:18:00     -114.213     -164.813       -0.032       60.965      120.251       37.231     3716.757    14460.391     1386.116        2.988        0.978      200.519       29.959        0.022      344.925       22.087      857.921
10/24/2014  18:19:00     -172.133      -95.610       -0.162      112.420       76.006       45.426    12638.307     5776.949     2063.559        2.962        1.024      196.904       51.757        0.069      344.778       21.834      857.880
10/24/2014  18:20:00      -90.597     -117.335        5.838       82.880       72.410       48.710     6869.120     5243.231     2372.635        1.824        0.724      148.241       45.945        0.096      344.783       21.846      857.886
10/24/2014  18:21:00     -184.275      -40.064      -16.638      159.111       97.144       55.344    25316.414     9436.950     3062.906        3.682        1.891      188.580       56.701        0.090      344.793       21.861      857.812
10/24/2014  18:22:00     -216.974     -120.044      -12.381      143.457      129.073       69.113    20579.963    16659.809     4776.636        5.182        2.101      247.968       66.339        0.072      344.714       21.726      857.844
10/24/2014  18:23:00     -186.960      -65.786      -13.705      106.215       78.865       47.389    11281.579     6219.752     2245.728        2.960        0.987      198.197       46.816        0.056      344.681       21.669      857.893
10/24/2014  18:24:00     -103.620      -61.160       -0.663      110.900       67.394       45.704    12298.825     4541.913     2088.868        1.670        0.946      120.323       35.661        0.088      344.627       21.580      857.889
10/24/2014  18:25:00      -87.871     -156.808       10.123       90.384      134.419       39.816     8169.219    18068.546     1585.302        3.011        1.391      179.750       48.573        0.073      344.668       21.650      857.945
10/24/2014  18:26:00      -88.338     -164.902        3.156       84.357       70.480       42.005     7116.121     4967.385     1764.380        2.442        0.692      187.073       41.351        0.049      344.659       21.632      857.970
10/24/2014  18:27:00      -90.330      -70.870       -2.125       60.010       50.280       24.709     3601.239     2528.032      610.521        0.996        0.337      114.813       25.792        0.050      344.638       21.599      857.980
10/24/2014  18:28:00      -57.245      -47.944        2.667       72.036       32.282       33.508     5189.154     1042.106     1122.778        0.647        0.368       74.670       33.406        0.200      344.464       21.302      857.941
10/24/2014  18:29:00      -65.502      -55.818       14.928      122.622       93.974       43.982    15036.114     8831.087     1934.392        1.671        1.290       86.058       57.615        0.448      344.238       20.915      857.967
10/24/2014  18:30:00     -171.276     -187.875        6.846      120.429       94.251       45.382    14503.147     8883.226     2059.529        4.506        1.272      254.230       41.836        0.027      344.523       21.399      858.018
10/24/2014  18:31:00     -232.273     -123.434      -15.568      139.854      133.627       55.026    19559.012    17856.142     3027.882        5.493        2.022      263.033       67.279        0.065      344.489       21.342      857.993
10/24/2014  18:32:00     -181.305      -90.218        5.946      134.640      107.618       65.282    18128.053    11581.735     4261.746        3.750        1.699      202.511       76.549        0.143      344.415       21.216      857.953
10/24/2014  18:33:00     -222.276     -107.359       -5.209      125.701       66.489       49.670    15800.728     4420.743     2467.071        4.182        1.134      246.846       57.636        0.055      344.359       21.120      857.964
10/24/2014  18:34:00     -179.580      -47.704       -2.591      140.573       94.180       49.577    19760.734     8869.795     2457.849        3.280        1.554      185.808       61.710        0.110      344.195       20.840      857.949
10/24/2014  18:35:00     -157.416      -40.127       -2.010       66.994       51.224       40.908     4488.179     2623.948     1673.499        1.759        0.439      162.450       37.115        0.052      344.282       20.988      857.929
10/24/2014  18:36:00     -141.206      -68.384        9.384       97.742       80.368       53.159     9553.483     6459.028     2825.858        2.177        0.942      156.894       35.627        0.052      344.227       20.895      857.973
10/24/2014  18:37:00     -101.643     -107.978       -2.589       58.182       61.300       31.923     3385.090     3757.740     1019.100        1.508        0.408      148.292       26.747        0.033      344.285       20.994      858.036
10/24/2014  18:38:00      -12.510     -111.304       -1.237       64.280       60.047       34.358     4131.875     3605.625     1180.480        1.073        0.446      112.005       28.600        0.065      344.213       20.869      858.049
10/24/2014  18:39:00      -33.059      -91.090       11.662       36.777       31.622       32.129     1352.551      999.960     1032.296        0.645        0.169       96.903       16.180        0.028      344.175       20.806      858.052
10/24/2014  18:40:00      -11.171      -74.919       16.789       51.365       62.518       30.584     2638.327     3908.465      935.386        0.675        0.374       75.748       20.276        0.072      344.223       20.890      858.055
10/24/2014  18:41:00      -29.425      -63.162       11.025       33.098       36.806       22.404     1095.448     1354.714      501.942        0.396        0.148       69.679       16.248        0.054      344.222       20.887      858.062
10/24/2014  18:42:00      -68.374      -78.904        2.259       38.862       31.862       19.903     1510.291     1015.203      396.139        0.691        0.146      104.407       17.354        0.028      344.388       21.173      858.081
10/24/2014  18:43:00      -67.608      -47.643        3.219       53.135       44.540       25.005     2823.347     1983.829      625.241        0.614        0.272       82.708       28.142        0.116      344.230       20.901      858.082
10/24/2014  18:44:00       -2.378       -0.147       14.679       21.814       22.143       12.969      475.853      490.318      168.200        0.068        0.057        2.382        8.813       13.684      343.679       19.961      858.099
10/24/2014  18:45:00      -38.749      -54.612        0.962       39.044       49.616       22.398     1524.450     2461.758      501.679        0.449        0.224       66.963       28.247        0.178      343.997       20.504      858.141
10/24/2014  18:46:00      -99.585      -74.758       -5.228       30.261       51.662       20.658      915.698     2668.957      426.761        0.977        0.201      124.523       19.422        0.024      344.223       20.890      858.139
10/24/2014  18:47:00      -82.744      -26.483        4.904       48.893       41.091       22.403     2390.505     1688.457      501.914        0.608        0.229       86.878       23.526        0.073      344.188       20.829      858.125
10/24/2014  18:48:00     -183.581      -89.639       -3.821      112.072       77.842       41.485    12560.088     6059.377     1720.979        3.104        1.017      204.297       40.439        0.039      344.380       21.155      858.089
10/24/2014  18:49:00     -165.772     -134.218       -4.756      110.336       92.690       42.454    12174.070     8591.508     1802.355        3.404        1.128      213.295       48.265        0.051      344.871       21.996      858.051
10/24/2014  18:50:00      -65.048     -138.772       14.226      111.745       68.650       49.216    12486.994     4712.813     2422.239        2.165        0.981      153.261       47.596        0.096      344.547       21.441      858.116
10/24/2014  18:51:00      -33.165      -66.888        9.986       35.346       38.039       22.921     1249.313     1446.972      525.367        0.445        0.161       74.659       20.587        0.076      344.390       21.176      858.152
10/24/2014  18:52:00       -1.622       -6.062        7.038       27.658       36.348       24.998      764.950     1321.152      624.910        0.140        0.136        6.275       24.676       15.464      343.883       20.309      858.134
10/24/2014  18:53:00       -9.237      -46.720        1.975       39.049       29.725       21.411     1524.842      883.563      458.428        0.257        0.143       47.624       19.680        0.171      344.234       20.908      858.148
10/24/2014  18:54:00      -17.452      -55.568       -3.072       83.755       35.887       21.678     7014.973     1287.848      469.926        0.609        0.439       58.244       21.580        0.137      343.869       20.284      858.149
10/24/2014  18:55:00     -220.955     -135.004        2.690      109.463       75.867       55.680    11982.239     5755.731     3100.303        4.394        1.042      258.934       57.005        0.048      344.311       21.037      858.195
10/24/2014  18:56:00      -55.138       12.881       26.427       51.590       63.999       32.010     2661.547     4095.818     1024.648        0.584        0.389       56.622       27.940        0.243      344.032       20.563      858.154
10/24/2014  18:57:00      -66.127      -50.971       19.244       80.260       75.857       34.987     6441.609     5754.308     1224.123        1.038        0.671       83.492       41.678        0.249      343.970       20.458      858.109
10/24/2014  18:58:00       19.671      -38.698       18.421       31.944       36.102       21.465     1020.398     1303.354      460.726        0.250        0.139       43.411       18.200        0.176      343.303       19.319      858.135
10/24/2014  18:59:00      -40.999      -64.590       21.124       53.441       52.085       33.809     2855.950     2712.848     1143.070        0.650        0.336       76.503       36.120        0.223      344.096       20.672      858.187
10/24/2014  19:00:00      -38.823      -31.406       -4.319       35.295       17.792       16.300     1245.760      316.555      265.684        0.217        0.091       49.936       10.706        0.046      344.097       20.675      858.173
10/24/2014  19:01:00       -7.957      -45.406       11.969       81.973       55.333       30.017     6719.602     3061.794      900.997        0.647        0.534       46.097       32.507        0.497      343.651       19.913      858.121
10/24/2014  19:02:00       -9.486       -7.640       26.206       28.465       57.131       27.290      810.242     3263.928      744.731        0.283        0.241       12.180       35.554        8.521      343.672       19.949      858.173
10/24/2014  19:03:00      -63.724       29.290        7.916       85.072       31.208       26.045     7237.167      973.918      678.367        0.693        0.444       70.133       32.642        0.217      343.794       20.157      858.179
10/24/2014  19:04:00       51.428      -95.346       -0.058      157.437      137.239       57.059    24786.475    18834.626     3255.766        2.930        2.344      108.331       35.461        0.107      343.805       20.175      858.133
10/24/2014  19:05:00     -108.673     -148.185      -18.973      125.446      167.044       48.797    15736.664    27903.759     2381.113        4.007        2.301      183.762       57.604        0.098      344.344       21.092      858.192
10/24/2014  19:06:00     -138.867     -238.674      -16.887       91.439      109.842       52.278     8361.022    12065.245     2733.025        4.984        1.158      276.133       46.253        0.028      344.428       21.237      858.270
10/24/2014  19:07:00      -36.302     -115.891       -1.848       88.030       60.963       44.253     7749.323     3716.528     1958.353        1.409        0.671      121.443       29.599        0.059      344.305       21.030      858.279
10/24/2014  19:08:00      -95.891      -68.069       -9.474       60.861       52.185       29.705     3704.117     2723.240      882.374        1.061        0.365      117.595        9.515        0.007      344.298       21.016      858.261
10/24/2014  19:09:00      -61.184      -24.195      -21.555       82.031       57.746       32.956     6729.030     3334.635     1086.087        0.797        0.557       65.794       40.195        0.373      344.154       20.772      858.232
10/24/2014  19:10:00     -197.932      -53.404      -14.292       74.512       58.554       31.654     5552.019     3428.589     1001.990        2.611        0.499      205.010       34.369        0.028      344.375       21.147      858.183
10/24/2014  19:11:00     -199.214     -146.478       -4.296      111.695      118.231       50.862    12475.678    13978.634     2586.907        4.509        1.452      247.269       53.480        0.047      344.349       21.102      858.179
10/24/2014  19:12:00     -236.970     -144.415       -8.500      109.753       87.850       50.835    12045.682     7717.676     2584.177        4.971        1.117      277.508       58.231        0.044      344.403       21.192      858.230
10/24/2014  19:13:00      -50.460      -95.688        9.561      105.651       41.580       43.900    11162.227     1728.917     1927.252        1.330        0.741      108.178       56.730        0.275      344.367       21.134      858.269
10/24/2014  19:14:00     -107.865     -131.271       -8.043       78.821       86.956       38.734     6212.751     7561.298     1500.354        2.210        0.764      169.903       43.495        0.066      344.331       21.073      858.299
10/24/2014  19:15:00     -130.028      -91.372       -3.225      114.916       91.114       41.430    13205.704     8301.672     1716.479        2.424        1.161      158.922       43.771        0.076      344.104       20.685      858.336
10/24/2014  19:16:00      -63.474     -119.326       -3.591      105.406       99.729       32.704    11110.366     9945.877     1069.556        2.020        1.106      135.158       34.664        0.066      344.046       20.585      858.341
10/24/2014  19:17:00      -67.156      -73.654        1.965       70.622       64.894       30.463     4987.517     4211.175      927.970        1.003        0.506       99.674       35.313        0.126      343.906       20.347      858.348
10/24/2014  19:18:00      -42.555       -5.924       10.218       47.840       35.138       25.819     2288.636     1234.684      666.621        0.307        0.209       42.965       25.799        0.361      343.731       20.049      858.320
10/24/2014  19:19:00      -12.927       -5.591        2.067       46.619       36.747       22.673     2173.377     1350.318      514.068        0.212        0.202       14.084       20.830        2.187      343.225       19.189      858.302
10/24/2014  19:20:00     -173.024      -34.058       -6.848      102.483       78.754       44.155    10502.745     6202.209     1949.628        2.490        0.933      176.344       48.012        0.074      344.003       20.510      858.290
10/24/2014  19:21:00     -173.451      -65.431        3.168      122.955       69.684       46.183    15117.853     4855.796     2132.898        2.824        1.105      185.382       46.801        0.064      344.082       20.646      858.257
10/24/2014  19:22:00       -2.091      -96.276       -9.137       90.957       52.703       42.504     8273.229     2777.638     1806.593        1.110        0.643       96.299       34.911        0.131      343.848       20.249      858.291
10/24/2014  19:23:00       22.081     -197.672      -21.632       92.519      103.328       43.945     8559.818    10676.689     1931.121        3.059        1.058      198.901       39.391        0.039      343.972       20.458      858.396
10/24/2014  19:24:00       -8.035      -36.785        6.615       46.029       65.307       32.829     2118.676     4264.982     1077.731        0.446        0.373       37.652       35.971        0.913      343.726       20.042      858.335
10/24/2014  19:25:00       15.893      -37.490       15.371       59.339       51.947       37.870     3521.110     2698.439     1434.171        0.477        0.383       40.720       41.282        1.028      343.365       19.424      858.252
10/24/2014  19:26:00     -250.759     -162.820       18.271      120.833       74.574       56.090    14600.697     5561.210     3146.114        5.651        1.165      298.983       61.316        0.042      344.244       20.922      858.311
10/24/2014  19:27:00     -335.015     -213.042       -4.206      126.819      145.088       73.635    16083.038    21050.598     5422.127       10.009        2.128      397.016       77.293        0.038      344.112       20.695      858.361
10/24/2014  19:28:00     -302.964     -239.088      -21.257      157.052       97.803       71.358    24665.325     9565.334     5091.974        9.435        1.966      385.940       54.742        0.020      344.081       20.644      858.334
10/24/2014  19:29:00     -120.484     -150.392        9.316      122.851       98.392       51.486    15092.309     9681.045     2650.780        3.232        1.371      192.702       55.198        0.082      344.092       20.663      858.301
10/24/2014  19:30:00     -157.887      -73.667        6.243      146.378      115.201       55.234    21426.623    13271.373     3050.757        3.406        1.887      174.227       66.717        0.147      344.185       20.823      858.292
10/24/2014  19:31:00       44.221     -107.823      -23.986       78.422       68.335       52.050     6149.946     4669.633     2709.168        1.384        0.676      116.538       55.626        0.228      343.965       20.449      858.351
10/24/2014  19:32:00       17.940     -209.727      -17.672      100.221       61.119       55.192    10044.292     3735.589     3046.159        3.072        0.841      210.493       26.760        0.016      344.173       20.801      858.425
10/24/2014  19:33:00       51.630      -85.434       12.141       74.469      117.994       61.173     5545.585    13922.573     3742.187        1.666        1.161       99.823       59.840        0.359      343.893       20.324      858.447
10/24/2014  19:34:00      -89.806      -55.865        8.205       79.336       98.857       50.432     6294.183     9772.679     2543.398        1.493        0.931      105.764       36.887        0.122      343.946       20.415      858.422
10/24/2014  19:35:00     -165.076     -194.807        6.839      159.681      159.143       68.927    25498.060    25326.601     4750.904        6.040        2.779      255.343       70.884        0.077      344.053       20.597      858.415
10/24/2014  19:36:00      -61.869      -54.213        8.821       69.312       89.399       35.976     4804.190     7992.096     1294.237        1.046        0.705       82.261       37.646        0.209      343.822       20.204      858.426
10/24/2014  19:37:00      -71.461     -189.082       11.803       65.937      102.439       42.181     4347.673    10493.799     1779.250        2.881        0.831      202.135       47.330        0.055      343.944       20.410      858.433
10/24/2014  19:38:00     -199.704     -175.056      -12.704      112.643       88.182       56.925    12688.409     7776.021     3240.471        4.719        1.185      265.568       51.156        0.037      344.019       20.538      858.460
10/24/2014  19:39:00     -156.268     -178.912        6.106       92.850       78.917       43.135     8621.150     6227.879     1860.595        3.658        0.835      237.549       22.015        0.009      344.069       20.623      858.508
10/24/2014  19:40:00      -13.753     -194.070       -3.285      115.653       78.443       62.500    13375.567     6153.363     3906.312        3.064        1.172      194.556       34.763        0.032      344.051       20.592      858.510
10/24/2014  19:41:00       74.834     -190.842      -20.920      109.609       89.497       57.842    12014.151     8009.706     3345.695        3.291        1.168      204.989       45.636        0.050      343.894       20.325      858.515
10/24/2014  19:42:00       14.629      -95.287       14.403       88.727       94.418       55.328     7872.532     8914.814     3061.147        1.467        0.992       96.403       49.044        0.259      343.767       20.110      858.564
10/24/2014  19:43:00       60.860      -45.294       18.636       63.724       85.671       55.209     4060.714     7339.585     3047.994        1.027        0.722       75.865       58.791        0.601      343.545       19.732      858.576
10/24/2014  19:44:00       39.787        4.936       33.814      144.823       96.668       71.754    20973.603     9344.726     5148.647        1.910        1.773       40.092       66.381        2.741      343.865       20.277      858.485
10/24/2014  19:45:00        1.613       -9.029       23.480       90.136      103.308       64.767     8124.439    10672.641     4194.787        1.181        1.150        9.172       36.510       15.847      343.649       19.909      858.460
10/24/2014  19:46:00      114.479     -123.899        9.814       87.635       83.898       60.049     7679.906     7038.823     3605.890        2.343        0.916      168.690       59.355        0.124      343.732       20.049      858.502
10/24/2014  19:47:00       54.705      -46.544       35.431       56.275       72.865       61.628     3166.895     5309.289     3797.984        0.934        0.614       71.826       35.592        0.246      343.642       19.897      858.552
10/24/2014  19:48:00      103.294     -126.939      -13.967       66.953       77.995       46.224     4482.725     6083.257     2136.659        1.984        0.635      163.656       36.669        0.050      343.696       19.986      858.568
10/24/2014  19:49:00       38.470       28.932       34.679       37.485       71.222       40.428     1405.132     5072.614     1634.396        0.581        0.406       48.135       36.180        0.565      342.959       18.734      858.562
10/24/2014  19:50:00       15.990        5.523       30.128       42.160       49.018       43.989     1777.486     2402.742     1935.061        0.365        0.306       16.917       44.161        6.814      342.986       18.780      858.564
10/24/2014  19:51:00      101.985       66.167       27.289       27.366       32.958       25.902      748.887     1086.241      670.911        0.901        0.125      121.569       15.259        0.016      343.290       19.299      858.585
10/24/2014  19:52:00       25.337      -17.261       10.182       27.678       38.053       33.507      766.090     1448.040     1122.699        0.219        0.167       30.658       24.658        0.647      343.339       19.381      858.586
10/24/2014  19:53:00       24.182      -45.719       -8.936       45.359       42.168       36.619     2057.446     1778.146     1340.987        0.396        0.259       51.720       31.561        0.372      342.651       18.208      858.604
10/24/2014  19:54:00       11.235      -63.152        5.708       48.310       55.963       39.804     2333.883     3131.845     1584.360        0.560        0.353       64.144       31.445        0.240      343.355       19.407      858.638
10/24/2014  19:55:00       28.456     -106.485        0.271       45.503       60.313       49.966     2070.547     3637.605     2496.651        1.018        0.410      110.222       40.972        0.138      343.424       19.525      858.657
10/24/2014  19:56:00       27.173      -17.859        6.909       38.142       40.120       38.102     1454.833     1609.594     1451.741        0.281        0.226       32.517       26.811        0.680      343.015       18.830      858.645
10/24/2014  19:57:00       36.839       46.300        9.480       29.871       33.267       18.711      892.254     1106.683      350.104        0.297        0.117       59.167       17.822        0.091      342.678       18.256      858.592
10/24/2014  19:58:00       51.099       33.167        2.678       33.445       20.571       16.171     1118.586      423.175      261.496        0.276        0.090       60.919        8.061        0.018      343.076       18.933      858.557
10/24/2014  19:59:00       12.336       -6.156      -10.418       31.084       26.703       14.691      966.203      713.073      215.819        0.110        0.095       13.787        9.536        0.478      343.128       19.022      858.591
10/24/2014  20:00:00       56.970      -74.282       -2.947       36.830       41.294       16.736     1356.479     1705.210      280.081        0.606        0.167       93.613       20.470        0.048      343.094       18.964      858.658
10/24/2014  20:01:00       -8.850      -81.979        1.875       64.957       64.782       47.164     4219.400     4196.707     2224.437        0.872        0.532       82.456       39.939        0.235      342.972       18.755      858.682
10/24/2014  20:02:00       38.739      -77.837      -10.943       50.720       57.304       47.019     2572.559     3283.789     2210.774        0.787        0.403       86.944       41.540        0.228      343.036       18.865      858.701
10/24/2014  20:03:00       33.557     -114.213       -6.797       33.279       42.344       40.877     1107.517     1793.048     1670.909        0.939        0.229      119.041       22.586        0.036      343.186       19.121      858.717
10/24/2014  20:04:00       47.138      -79.057       -0.726       47.523       52.423       42.444     2258.423     2748.161     1801.535        0.764        0.340       92.043       36.552        0.158      343.006       18.814      858.718
10/24/2014  20:05:00       71.260      -35.159       17.522       72.961       65.619       36.495     5323.277     4305.836     1331.855        0.879        0.548       79.462       42.017        0.280      342.887       18.611      858.705
10/24/2014  20:06:00       14.756      -86.594       -8.253       67.475       56.275       30.681     4552.860     3166.907      941.350        0.822        0.433       87.842       31.099        0.125      343.129       19.021      858.731
10/24/2014  20:07:00       17.921      -24.859       18.977       33.746       71.898       26.865     1138.790     5169.273      721.717        0.416        0.351       30.646       22.956        0.561      342.758       18.392      858.743
10/24/2014  20:08:00        6.728       13.560       22.718       25.542       25.792       16.568      652.369      665.252      274.487        0.117        0.080       15.137       15.185        1.006      342.182       17.413      858.712
10/24/2014  20:09:00       -9.910      -28.178        1.712       31.723       32.917       31.024     1006.376     1083.534      962.461        0.197        0.153       29.870       23.973        0.644      342.720       18.329      858.752
10/24/2014  20:10:00      -15.266       17.375       31.067       13.222       46.077       29.741      174.830     2123.095      884.524        0.234        0.159       23.128       31.338        1.836      342.647       18.204      858.754
10/24/2014  20:11:00       33.242        1.079       36.194       46.078       38.125       29.675     2123.172     1453.483      880.602        0.344        0.223       33.259       29.483        0.786      342.321       17.648      858.750
10/24/2014  20:12:00       29.561      -32.533       12.799       41.368       49.430       32.553     1711.318     2443.349     1059.690        0.365        0.261       43.958       29.483        0.450      342.438       17.847      858.751
10/24/2014  20:13:00      -21.075      -77.630      -12.635       22.819       37.345       18.925      520.709     1394.682      358.163        0.445        0.114       80.440       10.198        0.016      342.736       18.354      858.764
10/24/2014  20:14:00        8.358      -53.435        9.161       47.056       53.856       29.482     2214.253     2900.466      869.187        0.450        0.299       54.085       30.671        0.322      343.112       18.995      858.778
10/24/2014  20:15:00       34.109      -58.803        3.102       36.757       47.644       26.877     1351.046     2269.925      722.400        0.449        0.217       67.980       24.914        0.134      343.203       19.149      858.772
10/24/2014  20:16:00       52.780      -67.451        5.097       38.008       48.268       26.871     1444.586     2329.790      722.068        0.593        0.225       85.647       26.592        0.096      343.211       19.162      858.747
10/24/2014  20:17:00       23.985      -49.600        0.536       31.523       44.767       33.301      993.697     2004.062     1108.982        0.357        0.205       55.095       27.368        0.247      342.859       18.563      858.729
10/24/2014  20:18:00       43.158     -107.869      -14.285       34.222       42.022       25.452     1171.134     1765.825      647.811        0.864        0.179      116.183       21.226        0.033      343.207       19.155      858.747
10/24/2014  20:19:00       21.766      -86.266      -10.994       36.634       32.977       17.414     1342.035     1087.481      303.235        0.538        0.137       88.970       13.364        0.023      343.261       19.247      858.765
10/24/2014  20:20:00       -8.752      -20.412        4.349       30.996       28.194       15.921      960.729      794.903      253.480        0.126        0.100       22.210        7.668        0.119      342.937       18.696      858.764
10/24/2014  20:21:00      -30.583        4.651        1.347       27.047       25.303       16.819      731.531      640.225      282.874        0.131        0.083       30.935       13.573        0.193      342.687       18.272      858.744
10/24/2014  20:22:00      -73.430       35.873        0.426       22.651       16.091       14.354      513.068      258.925      206.032        0.383        0.049       81.724       12.103        0.022      342.879       18.597      858.729
10/24/2014  20:23:00      -44.871       24.505        1.341       29.244       15.662       11.315      855.187      245.283      128.039        0.192        0.061       51.127        7.510        0.022      342.889       18.616      858.729
10/24/2014  20:24:00       27.508       16.975       12.471       11.671       17.538       14.712      136.215      307.575      216.443        0.093        0.033       32.324        9.934        0.094      342.489       17.935      858.722
10/24/2014  20:25:00       53.673      -24.533        8.691       24.410       18.962       17.514      595.864      359.568      306.754        0.241        0.063       59.014       14.320        0.059      342.087       17.253      858.754
10/24/2014  20:26:00       42.299      -21.112       17.457       29.496       19.247       22.096      870.021      370.432      488.228        0.213        0.086       47.275       12.855        0.074      342.178       17.407      858.801
10/24/2014  20:27:00       -9.373      -11.905        9.539       44.693       16.486       18.218     1997.497      271.802      331.911        0.146        0.130       15.152       22.586        2.222      342.045       17.179      858.819
10/24/2014  20:28:00      -99.063      -49.265        0.464       45.974       39.826       23.409     2113.618     1586.077      547.959        0.824        0.212      110.637       25.008        0.051      343.180       19.110      858.823
10/24/2014  20:29:00      -93.730     -101.281        3.418       62.465       37.070       28.147     3901.899     1374.181      792.248        1.256        0.303      137.997       32.573        0.056      343.158       19.073      858.837
10/24/2014  20:30:00      -83.704     -116.001       -7.343       33.348       38.173       23.900     1112.062     1457.150      571.197        1.183        0.157      143.047       19.045        0.018      343.218       19.175      858.842
10/24/2014  20:31:00     -105.369     -191.826       -2.158       40.968       41.309       32.406     1678.394     1706.430     1050.168        2.617        0.222      218.860       23.860        0.012      343.274       19.268      858.826
10/24/2014  20:32:00      -86.580     -114.273       -0.538       44.320       67.756       26.520     1964.230     4590.815      703.310        1.391        0.363      143.368       25.318        0.031      343.225       19.185      858.827
10/24/2014  20:33:00      -90.075     -138.528        1.713       69.732       81.608       41.780     4862.492     6659.874     1745.593        2.028        0.663      165.237       40.798        0.061      343.307       19.324      858.836
10/24/2014  20:34:00      -70.812      -75.565       10.047       66.337       81.141       34.882     4400.626     6583.796     1216.778        1.151        0.610      103.559       43.427        0.176      343.088       18.952      858.855
10/24/2014  20:35:00      -96.171     -150.269       -1.990       74.221       73.333       48.663     5508.692     5377.710     2368.120        2.254        0.663      178.409       43.095        0.058      343.349       19.397      858.867
10/24/2014  20:36:00     -113.512     -160.336       -4.408       75.017       73.740       39.011     5627.606     5437.562     1521.858        2.560        0.629      196.451       42.566        0.047      343.334       19.371      858.858
10/24/2014  20:37:00      -92.601     -135.912        1.640       85.078       59.856       42.039     7238.256     3582.730     1767.288        1.982        0.629      164.460       35.741        0.047      343.283       19.283      858.839
10/24/2014  20:38:00     -132.662     -168.726        6.112       95.638       88.067       43.181     9146.594     7755.770     1864.625        3.243        0.938      214.634       52.677        0.060      343.253       19.231      858.843
10/24/2014  20:39:00     -123.999     -199.694       -5.915       69.744       99.246       44.214     4864.242     9849.685     1954.842        3.598        0.833      235.061       41.938        0.032      343.193       19.130      858.883
10/24/2014  20:40:00      -83.446      -91.848        5.279       48.816       63.131       23.967     2382.981     3985.460      574.439        1.118        0.347      124.093       18.182        0.021      343.122       19.012      858.898
10/24/2014  20:41:00     -106.353     -113.684      -12.078       55.662       51.907       26.964     3098.289     2694.369      727.058        1.545        0.326      155.676       28.971        0.035      343.062       18.908      858.903
10/24/2014  20:42:00     -128.136     -127.817        2.260       81.764       72.762       35.000     6685.399     5294.241     1225.016        2.298        0.660      180.987       36.937        0.042      342.985       18.776      858.954
10/24/2014  20:43:00     -104.788     -218.952        5.531       93.124      109.143       42.080     8672.032    11912.207     1770.759        4.065        1.118      242.735       40.734        0.028      343.033       18.857      858.997
10/24/2014  20:44:00      -78.846      -99.362        8.437       79.625       66.774       44.143     6340.217     4458.833     1948.590        1.445        0.637      126.844       44.403        0.123      342.904       18.639      858.989
10/24/2014  20:45:00     -118.928      -58.312       -2.261       55.984       37.606       30.506     3134.188     1414.210      930.617        1.151        0.274      132.454       31.452        0.056      342.868       18.580      858.973
10/24/2014  20:46:00     -125.522       -6.894       -9.068       38.904       37.773       25.617     1513.552     1426.790      656.238        0.974        0.180      125.711       23.680        0.035      342.845       18.538      858.940
10/24/2014  20:47:00     -146.660      -79.810       -3.096       46.709       52.181       26.600     2181.756     2722.860      707.552        1.675        0.281      166.969       22.506        0.018      342.804       18.469      858.920
10/24/2014  20:48:00     -134.868      -90.868        4.599       75.782       53.679       35.704     5742.863     2881.482     1274.748        1.818        0.495      162.623       40.447        0.062      342.790       18.443      858.943
10/24/2014  20:49:00     -114.903      -61.994        3.332       63.061       66.974       42.920     3976.642     4485.568     1842.112        1.368        0.515      130.560       40.186        0.095      342.698       18.288      858.993
10/24/2014  20:50:00     -103.281      -56.135       -2.061       61.126       40.006       28.386     3736.405     1600.477      805.790        0.998        0.307      117.550       28.512        0.059      342.723       18.331      859.004
10/24/2014  20:51:00      -82.051      -50.542       -4.960       50.291       35.153       17.235     2529.183     1235.737      297.050        0.669        0.203       96.369       19.306        0.040      342.875       18.592      858.978
10/24/2014  20:52:00        9.642      -16.673       -1.108       35.770       20.822       13.714     1279.494      433.549      188.073        0.114        0.095       19.260        9.340        0.235      342.326       17.658      858.971
10/24/2014  20:53:00       47.994      -18.975       11.057       30.610       36.377       29.328      936.975     1323.304      860.161        0.295        0.156       51.609       19.087        0.137      341.741       16.663      858.990
10/24/2014  20:54:00       16.833       -7.623       26.389       27.181       26.419       16.103      738.823      697.950      259.298        0.137        0.085       18.479       12.937        0.490      341.618       16.455      859.007
10/24/2014  20:55:00       -4.459        0.808       20.632       20.028       23.846       16.179      401.120      568.612      261.770        0.084        0.062        4.531       13.532        8.918      341.893       16.924      859.010
10/24/2014  20:56:00       -2.318        6.627        4.369       18.855       23.349       15.791      355.516      545.197      249.364        0.061        0.058        7.021       11.254        2.570      341.624       16.466      859.009
10/24/2014  20:57:00       27.143      -29.804       -0.333       19.701       15.220       15.364      388.138      231.646      236.048        0.124        0.043       40.312        6.467        0.026      341.832       16.819      859.028
10/24/2014  20:58:00        5.090      -24.299       11.189       34.809       18.741       16.680     1211.701      351.232      278.216        0.129        0.092       24.827       16.152        0.423      342.185       17.419      859.051
10/24/2014  20:59:00     -102.525      -44.517        1.206       23.780       13.353       11.888      565.467      178.312      141.324        0.669        0.044      111.772        8.301        0.006      342.225       17.485      859.081
10/24/2014  21:00:00      -36.653      -20.102        3.165       31.077       25.778       12.769      965.764      664.501      163.050        0.178        0.090       41.803       12.679        0.092      342.108       17.287      859.086
10/24/2014  21:01:00      -25.968      -13.694        3.939       15.271       21.579       11.419      233.194      465.640      130.387        0.085        0.041       29.357       13.145        0.200      342.076       17.233      859.109
10/24/2014  21:02:00     -104.269      -33.597      -10.753       31.736       15.736       10.815     1007.155      247.611      116.964        0.674        0.069      109.548       13.023        0.014      342.262       17.548      859.104
10/24/2014  21:03:00      -84.055      -31.595        2.486       40.718       25.343       18.164     1657.943      642.259      329.919        0.535        0.132       89.796       19.040        0.045      342.210       17.460      859.088
10/24/2014  21:04:00      -73.505      -30.290        2.381       31.571       35.097       19.974      996.722     1231.799      398.957        0.448        0.131       79.501       16.417        0.043      342.351       17.699      859.072
10/24/2014  21:05:00     -128.861      -36.515        5.801       33.969       31.041       16.452     1153.868      963.544      270.661        1.018        0.119      133.935       14.344        0.011      342.293       17.600      859.077
10/24/2014  21:06:00     -158.789      -89.257        5.073       64.281       44.155       29.488     4131.988     1949.660      869.554        2.008        0.348      182.156       31.497        0.030      342.506       17.962      859.088
10/24/2014  21:07:00     -122.051      -37.021       13.416       90.159       65.248       37.060     8128.558     4257.260     1373.451        1.510        0.688      127.542       42.678        0.112      342.277       17.573      859.081
10/24/2014  21:08:00     -129.214      -54.675        4.048       68.295       53.247       31.578     4664.190     2835.232      997.200        1.410        0.425      140.305       30.305        0.047      342.315       17.637      859.091
10/24/2014  21:09:00      -94.580      -62.002        6.114       47.152       50.919       28.262     2223.309     2592.703      798.733        0.922        0.281      113.092       23.196        0.042      342.400       17.784      859.109
10/24/2014  21:10:00     -127.729      -39.319        1.999       43.493       36.275       26.847     1891.609     1315.910      720.762        1.090        0.196      133.643       26.041        0.038      342.450       17.868      859.122
10/24/2014  21:11:00      -63.632      -31.115        8.571       57.137       37.018       29.502     3264.664     1370.300      870.389        0.530        0.275       70.832       29.365        0.172      342.330       17.664      859.143
10/24/2014  21:12:00     -146.423      -72.032        0.933       83.119       60.136       37.357     6908.740     3616.398     1395.532        1.927        0.596      163.182       39.150        0.058      342.585       18.095      859.139
10/24/2014  21:13:00     -142.170      -45.673       -8.047       64.516       52.308       30.887     4162.251     2736.089      954.005        1.511        0.393      149.326       30.226        0.041      342.743       18.364      859.120
10/24/2014  21:14:00     -118.299      -62.151        4.320       94.197       53.964       30.220     8873.093     2912.100      913.219        1.528        0.635      133.632       43.158        0.104      342.648       18.205      859.113
10/24/2014  21:15:00     -103.571      -58.456       15.294       73.627       58.711       35.282     5420.974     3446.934     1244.827        1.224        0.506      118.929       36.174        0.093      342.643       18.196      859.118
10/24/2014  21:16:00      -58.227      -18.242       12.394       45.641       37.965       28.418     2083.130     1441.365      807.557        0.410        0.217       61.018       25.012        0.168      342.468       17.899      859.124
10/24/2014  21:17:00      -67.121      -44.714       -2.412       34.828       33.909       18.950     1212.955     1149.826      359.090        0.462        0.136       80.651       13.457        0.028      342.747       18.373      859.139
10/24/2014  21:18:00     -100.699      -42.992        1.324       47.122       42.355       24.094     2220.458     1793.984      580.501        0.829        0.230      109.493       19.816        0.033      342.595       18.115      859.150
10/24/2014  21:19:00     -116.818      -94.341        3.705       64.410       40.121       29.283     4148.587     1609.724      857.480        1.459        0.331      150.155       35.068        0.055      342.681       18.260      859.137
10/24/2014  21:20:00     -149.662      -96.463      -13.183       58.360       45.988       27.195     3405.892     2114.923      739.583        1.907        0.313      178.056       28.269        0.025      342.790       18.444      859.142
10/24/2014  21:21:00     -108.763      -83.537        2.734       59.189       45.160       25.882     3503.288     2039.409      669.886        1.251        0.311      137.141       22.719        0.027      342.645       18.200      859.155
10/24/2014  21:22:00     -169.862      -83.153       -2.477       51.738       59.618       27.737     2676.870     3554.358      769.339        2.139        0.350      189.123       26.331        0.019      342.834       18.519      859.140
10/24/2014  21:23:00     -185.191      -90.842       -1.598       52.579       53.569       34.013     2764.563     2869.689     1156.895        2.467        0.340      206.272       32.332        0.025      342.791       18.445      859.148
10/24/2014  21:24:00     -122.181      -80.754       -1.655       40.774       37.846       19.432     1662.533     1432.319      377.587        1.246        0.174      146.456       14.744        0.010      342.619       18.156      859.170
10/24/2014  21:25:00      -80.050      -73.606        2.672       51.170       42.156       22.489     2618.363     1777.108      505.766        0.837        0.245      108.747       24.183        0.049      342.544       18.027      859.196
10/24/2014  21:26:00      -80.551      -84.216       -8.226       43.652       46.581       23.282     1905.491     2169.832      542.057        0.913        0.231      116.537       23.341        0.040      342.663       18.230      859.234
10/24/2014  21:27:00      -64.909      -67.748       -3.523       36.730       46.569       24.387     1349.111     2168.659      594.712        0.646        0.206       93.824       18.470        0.039      342.524       17.994      859.245
10/24/2014  21:28:00      -74.250      -81.057        2.019       34.657       27.557       19.258     1201.116      759.411      370.886        0.721        0.117      109.923       15.930        0.021      342.578       18.086      859.249
10/24/2014  21:29:00     -107.887     -131.159      -12.969       47.677       28.030       24.265     2273.080      785.707      588.784        1.633        0.182      169.831       19.726        0.013      342.599       18.121      859.256
10/24/2014  21:30:00     -134.413     -152.420       -7.399       36.621       28.926       22.487     1341.124      836.741      505.645        2.202        0.134      203.220       20.738        0.010      342.599       18.120      859.280
10/24/2014  21:31:00     -130.660     -130.089       -2.571       48.427       51.586       34.462     2345.162     2661.114     1187.618        2.010        0.310      184.378       29.280        0.025      342.641       18.191      859.288
10/24/2014  21:32:00     -117.088     -112.383      -13.664       36.225       47.310       18.359     1312.257     2238.259      337.042        1.521        0.194      162.295       13.633        0.007      342.624       18.163      859.281
10/24/2014  21:33:00      -78.619      -92.105        3.904       37.301       64.338       25.059     1391.370     4139.385      627.972        1.042        0.308      121.096       27.583        0.052      342.515       17.979      859.268
10/24/2014  21:34:00      -91.641      -55.785       -2.093       54.356       50.837       28.064     2954.593     2584.395      787.585        0.892        0.316      107.285       24.768        0.053      342.471       17.903      859.264
10/24/2014  21:35:00     -126.358      -76.753      -10.962       31.218       29.805       17.904      974.581      888.368      320.547        1.208        0.109      147.842       11.737        0.006      342.423       17.822      859.239
10/24/2014  21:36:00      -87.609     -103.502       -0.284       53.388       46.580       27.286     2850.260     2169.717      744.547        1.208        0.288      135.602       27.777        0.042      342.444       17.857      859.234
10/24/2014  21:37:00      -86.097      -45.289        3.897       51.843       42.620       32.667     2687.696     1816.471     1067.110        0.752        0.279       97.282       32.380        0.111      342.310       17.630      859.220
10/24/2014  21:38:00     -110.061      -87.266        1.637       50.057       39.712       27.853     2505.740     1577.011      775.803        1.229        0.243      140.460       20.875        0.022      342.525       17.995      859.208
10/24/2014  21:39:00      -72.812      -51.473        4.257       31.076       23.568       18.340      965.723      555.468      336.371        0.491        0.093       89.169       14.385        0.026      342.487       17.931      859.196
10/24/2014  21:40:00     -102.891      -72.172       -2.784       18.402       22.408       12.850      338.651      502.125      165.114        0.840        0.050      125.680        9.438        0.006      342.560       18.053      859.188
10/24/2014  21:41:00      -88.084      -77.149      -10.792       24.804       19.994       13.190      615.246      399.776      173.965        0.751        0.059      117.093       10.585        0.008      342.558       18.053      859.197
10/24/2014  21:42:00      -67.449      -52.623        3.459       38.445       28.047       19.758     1478.032      786.652      390.398        0.499        0.133       85.548       17.074        0.040      342.379       17.747      859.231
10/24/2014  21:43:00      -71.873      -58.197       -5.164       39.853       32.448       19.735     1588.242     1052.872      389.463        0.580        0.152       92.480       20.128        0.047      342.456       17.878      859.273
10/24/2014  21:44:00      -84.611      -82.724        7.139       42.334       39.947       22.605     1792.175     1595.766      511.003        0.898        0.195      118.331       22.868        0.037      342.690       18.275      859.292
10/24/2014  21:45:00      -86.611      -96.611        2.535       40.985       37.265       21.996     1679.778     1388.675      483.802        1.020        0.178      129.750       22.298        0.030      342.610       18.141      859.306
10/24/2014  21:46:00      -53.761      -39.089       -0.736       54.598       27.652       23.755     2980.964      764.608      564.277        0.436        0.215       66.469       25.239        0.144      342.397       17.779      859.321
10/24/2014  21:47:00      -97.332      -91.599       -9.778       43.602       40.556       25.144     1901.092     1644.804      632.228        1.107        0.209      133.656       23.665        0.031      342.389       17.765      859.328
10/24/2014  21:48:00     -105.775      -55.692       -0.695       41.174       24.322       18.615     1695.330      591.567      346.505        0.846        0.132      119.540       17.813        0.022      342.273       17.567      859.345
10/24/2014  21:49:00      -80.859      -72.393        0.593       35.936       35.072       21.507     1291.370     1230.024      462.553        0.738        0.149      108.531       15.792        0.021      342.182       17.412      859.344
10/24/2014  21:50:00     -113.617      -45.019       -2.003       47.360       25.473       19.722     2242.960      648.869      388.945        0.911        0.164      122.211       21.494        0.031      342.277       17.573      859.319
10/24/2014  21:51:00     -105.580      -63.294        7.680       58.126       37.129       27.566     3378.642     1378.537      759.905        1.036        0.276      123.098       31.356        0.065      342.150       17.357      859.294
10/24/2014  21:52:00     -142.583      -80.032        1.576       53.621       48.806       25.803     2875.176     2382.049      665.804        1.633        0.296      163.509       28.069        0.029      342.320       17.647      859.287
10/24/2014  21:53:00     -115.901      -82.503       -2.281       44.660       48.911       26.799     1994.539     2392.293      718.176        1.267        0.255      142.266       25.869        0.033      342.289       17.594      859.282
10/24/2014  21:54:00     -137.113      -86.944       -1.998       57.609       48.831       29.833     3318.834     2384.444      890.025        1.648        0.330      162.356       24.230        0.022      342.384       17.757      859.271
10/24/2014  21:55:00     -101.742      -40.651        3.474       40.550       44.201       23.701     1644.294     1953.692      561.738        0.809        0.208      109.563       17.555        0.026      342.270       17.562      859.272
10/24/2014  21:56:00      -85.200      -28.465        1.707       45.614       23.204       19.697     2080.635      538.441      387.983        0.554        0.150       89.829       21.010        0.055      342.207       17.454      859.268
10/24/2014  21:57:00      -52.253      -33.572       11.185       28.608       33.087       18.392      818.425     1094.726      338.267        0.312        0.113       62.108       12.938        0.043      342.132       17.328      859.269
10/24/2014  21:58:00     -112.228      -79.583       -3.636       40.868       36.764       24.664     1670.220     1351.607      608.304        1.129        0.182      137.581       16.379        0.014      342.269       17.561      859.291
10/24/2014  21:59:00      -98.339      -80.564       -1.036       34.095       35.132       23.715     1162.482     1234.223      562.424        0.956        0.148      127.127       21.041        0.027      342.172       17.394      859.297
10/24/2014  22:00:00     -122.233      -75.919       -5.688       29.220       28.252       16.295      853.780      798.168      265.525        1.133        0.096      143.891       13.470        0.009      342.214       17.468      859.297
10/24/2014  22:01:00     -150.056      -81.945       -9.393       40.617       39.543       23.674     1649.741     1563.667      560.480        1.655        0.189      170.973       21.880        0.016      342.109       17.289      859.300
10/24/2014  22:02:00     -185.287      -84.604       -9.216       43.094       39.809       28.694     1857.120     1584.743      823.332        2.292        0.213      203.689       24.620        0.015      342.145       17.347      859.300
10/24/2014  22:03:00     -185.319      -35.728      -14.450       39.015       35.510       32.744     1522.155     1260.975     1072.160        1.984        0.193      188.732       26.006        0.019      342.048       17.186      859.305
10/24/2014  22:04:00     -151.076      -43.357       -4.141       56.205       48.622       22.850     3158.950     2364.142      522.136        1.538        0.302      157.175       28.249        0.032      342.198       17.439      859.304
10/24/2014  22:05:00     -144.688      -21.416       -4.623       55.450       37.445       24.297     3074.739     1402.135      590.340        1.324        0.253      146.264       24.400        0.028      341.976       17.062      859.288
10/24/2014  22:06:00      -90.916      -42.332        5.972       58.468       30.718       21.503     3418.470      943.579      462.399        0.746        0.241      100.289       15.496        0.024      341.811       16.782      859.296
10/24/2014  22:07:00      -78.022      -55.417       -4.530       41.141       40.952       16.520     1692.592     1677.083      272.924        0.641        0.182       95.700       14.432        0.023      342.144       17.348      859.312
10/24/2014  22:08:00      -88.686        8.287       -9.421       21.570       28.131       11.255      465.259      791.377      126.677        0.470        0.069       89.073        9.843        0.012      342.257       17.541      859.302
10/24/2014  22:09:00     -110.731      -40.692       -4.610       44.766       22.895       18.949     2003.994      524.202      359.075        0.841        0.144      117.971       17.793        0.023      341.481       16.225      859.290
10/24/2014  22:10:00     -108.570      -14.826      -10.782       15.783       28.673       11.974      249.107      822.159      143.384        0.667        0.061      109.578        8.960        0.007      341.379       16.050      859.279
10/24/2014  22:11:00      -79.755       17.471       -3.109       18.822       16.946       12.450      354.269      287.178      154.999        0.374        0.040       81.646        5.820        0.005      341.327       15.963      859.283
10/24/2014  22:12:00      -97.088        3.746      -11.252       26.238       14.729       15.816      688.437      216.934      250.157        0.536        0.058       97.160       11.466        0.014      341.168       15.692      859.291
10/24/2014  22:13:00      -82.486        4.901       -4.490       40.446       36.477       22.267     1635.911     1330.546      495.798        0.515        0.173       82.631       23.069        0.078      341.194       15.739      859.283
10/24/2014  22:14:00      -50.394       -2.800        8.919       30.166       42.483       21.512      909.978     1804.794      462.784        0.290        0.159       50.472       24.306        0.232      340.904       15.247      859.268
10/24/2014  22:15:00     -126.324       33.507      -11.686       20.330       20.329       14.963      413.312      413.288      223.906        0.913        0.053      130.692        9.373        0.005      341.057       15.505      859.266
10/24/2014  22:16:00     -132.598       38.172       -8.181       34.044       25.085       16.762     1158.998      629.241      280.977        1.059        0.103      137.983       15.231        0.012      341.123       15.616      859.252
10/24/2014  22:17:00      -71.722       -1.863       -8.576       32.722       21.700       13.174     1070.757      470.882      173.561        0.347        0.086       71.746        7.668        0.011      340.987       15.385      859.238
10/24/2014  22:18:00      -78.276      -16.879       -8.929       24.209       20.488       14.503      586.056      419.772      210.335        0.385        0.061       80.075       15.417        0.037      340.938       15.305      859.247
10/24/2014  22:19:00     -116.112      -45.156      -12.818       30.601       34.792       20.419      936.408     1210.460      416.938        0.912        0.128      124.584       18.957        0.023      341.074       15.536      859.262
10/24/2014  22:20:00     -140.056     -107.544      -16.549       42.266       63.743       35.359     1786.373     4063.131     1250.284        1.928        0.355      176.582       32.537        0.034      342.841       18.532      859.259
10/24/2014  22:21:00        3.848      -12.223       16.630       40.673       43.529       21.315     1654.332     1894.817      454.329        0.222        0.200       12.814       23.445        3.348      341.823       16.805      859.266
10/24/2014  22:22:00        9.271      -20.192        3.090       25.848       14.177       11.393      668.137      200.984      129.790        0.075        0.050       22.219       11.615        0.273      342.077       17.233      859.259
10/24/2014  22:23:00      -28.142      -12.061        3.696       41.438       22.397       15.324     1717.104      501.630      234.821        0.170        0.123       30.618       20.967        0.469      341.433       16.141      859.268
10/24/2014  22:24:00     -130.958      -19.914      -20.543       37.873       33.079       23.645     1434.378     1094.196      559.071        1.053        0.154      132.464       22.427        0.029      340.345       14.301      859.277
10/24/2014  22:25:00      -86.307       17.848       -4.810       72.422       32.044       28.800     5245.007     1026.814      829.434        0.744        0.355       88.133       33.575        0.145      340.258       14.153      859.281
10/24/2014  22:26:00     -117.075       -7.074       -4.044       65.978       59.189       36.412     4353.118     3503.295     1325.840        1.148        0.459      117.289       30.472        0.068      340.972       15.361      859.297
10/24/2014  22:27:00     -118.829      -44.277       -2.310       39.252       40.392       21.633     1540.701     1631.489      467.997        0.986        0.182      126.810       16.947        0.018      340.635       14.792      859.328
10/24/2014  22:28:00     -109.917        3.380      -10.798       46.091       39.786       21.166     2124.348     1582.950      447.979        0.818        0.208      109.969       23.433        0.045      340.404       14.401      859.317
10/24/2014  22:29:00     -156.586       30.585      -16.763       50.585       30.088       23.767     2558.858      905.300      564.849        1.488        0.201      159.545       17.830        0.012      340.450       14.479      859.292
10/24/2014  22:30:00      -89.589      -14.638      -12.446       26.475       33.396       21.459      700.921     1115.324      460.507        0.534        0.114       90.776       12.827        0.020      340.391       14.378      859.304
10/24/2014  22:31:00     -101.675       20.229      -10.947       47.078       39.218       25.806     2216.318     1538.041      665.952        0.764        0.221      103.668       22.888        0.049      340.629       14.782      859.274
10/24/2014  22:32:00     -149.523       68.959      -17.523       68.472       45.076       29.434     4688.477     2031.850      866.359        1.750        0.379      164.659       29.758        0.033      340.803       15.074      859.261
10/24/2014  22:33:00     -183.584       23.980      -15.531       72.106       56.211       29.203     5199.328     3159.658      852.812        2.186        0.461      185.144       25.627        0.019      340.477       14.522      859.271
10/24/2014  22:34:00     -141.444       22.283      -11.229       60.192       49.544       28.577     3623.035     2454.603      816.626        1.376        0.345      143.189       23.546        0.027      340.434       14.452      859.292
10/24/2014  22:35:00      -86.309      -33.105       -0.789       48.064       39.025       34.773     2310.117     1522.918     1209.146        0.679        0.252       92.440       29.416        0.101      340.365       14.335      859.291
10/24/2014  22:36:00      -82.035       -6.236      -13.678       20.962       22.114       21.428      439.396      489.046      459.155        0.417        0.069       82.272       18.666        0.051      340.494       14.553      859.294
10/24/2014  22:37:00     -133.886        7.014       -5.814       43.847       33.872       17.927     1922.516     1147.279      321.381        1.070        0.170      134.070       15.430        0.013      340.345       14.301      859.280
10/24/2014  22:38:00     -143.639       -2.975       -4.506       48.609       38.423       21.412     2362.870     1476.360      458.466        1.248        0.215      143.670       20.910        0.021      341.049       15.493      859.259
10/24/2014  22:39:00      -31.275      -18.116        7.284       51.733       35.832       17.536     2676.276     1283.967      307.526        0.281        0.213       36.143       24.227        0.449      340.895       15.234      859.271
10/24/2014  22:40:00     -133.892      -37.735      -12.713       15.908       34.257       13.428      253.053     1173.555      180.321        1.056        0.080      139.107       11.350        0.007      341.096       15.572      859.280
10/24/2014  22:41:00      -92.040        4.117      -10.861       34.451       23.738       21.558     1186.888      563.505      464.732        0.541        0.111       92.132       16.540        0.032      341.363       16.024      859.261
10/24/2014  22:42:00      -77.125      -15.174       -7.951       18.634       25.655       11.806      347.230      658.162      139.378        0.369        0.057       78.604        5.271        0.004      340.640       14.801      859.274
10/24/2014  22:43:00      -85.839      -11.971       -6.807       30.866       17.548       13.931      952.723      307.926      194.078        0.451        0.073       86.670       13.295        0.024      340.609       14.748      859.264
10/24/2014  22:44:00     -125.133      -15.687       -6.773       40.571       38.251       19.341     1646.043     1463.136      374.056        0.972        0.174      126.112       16.895        0.018      340.376       14.355      859.268
10/24/2014  22:45:00      -63.631       10.114       -1.874       59.314       65.826       22.280     3518.181     4333.051      496.393        0.625        0.417       64.430       25.919        0.162      340.414       14.419      859.255
10/24/2014  22:46:00      -84.777      -16.229       -2.495       28.152       34.086       18.696      792.550     1161.881      349.546        0.488        0.115       86.316       19.374        0.050      340.879       15.204      859.265
10/24/2014  22:47:00      -61.013       11.026       -5.906       23.587       15.700        9.950      556.343      246.482       99.006        0.239        0.045       62.001        9.998        0.026      341.079       15.544      859.247
10/24/2014  22:48:00     -105.516      -10.279      -18.098       15.159       13.719       11.603      229.801      188.217      134.635        0.606        0.028      106.015        7.870        0.006      340.982       15.380      859.222
10/24/2014  22:49:00     -121.223      -43.805      -18.452       25.855       15.308       15.261      668.503      234.322      232.906        0.904        0.057      128.895       14.693        0.013      340.275       14.184      859.220
10/24/2014  22:50:00      -73.540      -30.083       -5.648      116.765       71.493       23.091    13634.172     5111.235      533.212        1.281        0.964       79.456       38.681        0.237      340.600       14.732      859.224
10/24/2014  22:51:00      -49.689      -57.930        0.747       61.348       37.471       20.603     3763.576     1404.093      424.484        0.571        0.280       76.320       27.516        0.130      340.878       15.203      859.264
10/24/2014  22:52:00     -120.486       -6.388      -13.630       19.107       16.963       10.441      365.068      287.754      109.013        0.775        0.038      120.655        5.037        0.002      340.981       15.377      859.254
10/24/2014  22:53:00      -80.729      -16.184       -3.109       35.336       21.116       13.485     1248.653      445.903      181.836        0.433        0.094       82.335       17.737        0.046      340.488       14.544      859.266
10/24/2014  22:54:00      -48.710      -12.638        3.890       16.319       14.229        9.036      266.303      202.455       81.650        0.155        0.028       50.323        5.806        0.013      340.281       14.193      859.259
10/24/2014  22:55:00      -67.417      -23.668      -11.251       30.282        9.740        9.469      917.029       94.872       89.661        0.317        0.055       71.451       14.030        0.039      340.664       14.841      859.255
10/24/2014  22:56:00     -141.708        7.060      -13.345       21.978       20.241       13.339      483.053      409.714      177.921        1.069        0.054      141.884       12.300        0.008      341.291       15.902      859.244
10/24/2014  22:57:00      -80.510      -23.280       -9.980       29.417       24.067       13.093      865.383      579.218      171.415        0.437        0.081       83.808        8.100        0.009      340.643       14.806      859.251
10/24/2014  22:58:00      -34.611        1.498        1.254       20.103       17.723       11.905      404.124      314.106      141.718        0.103        0.043       34.643       12.104        0.122      340.641       14.802      859.250
10/24/2014  22:59:00       -1.087       20.041        2.642       17.112       14.585       13.045      292.830      212.721      170.165        0.054        0.034       20.070        7.139        0.127      340.686       14.877      859.240
10/24/2014  23:00:00      -18.437        8.641       -1.079       10.634       13.914        9.288      113.071      193.607       86.275        0.040        0.020       20.361        9.340        0.210      341.492       16.242      859.231
10/24/2014  23:01:00      -18.483       40.003        0.703       24.422       12.114        7.932      596.432      146.747       62.913        0.137        0.040       44.066        1.684        0.001      341.455       16.181      859.204
10/24/2014  23:02:00      -30.830       -8.826      -10.152        9.924       31.276        8.418       98.484      978.188       70.871        0.114        0.057       32.068        6.544        0.042      341.466       16.198      859.212
10/24/2014  23:03:00       29.915       27.036       14.671       21.212       14.215       20.977      449.966      202.068      440.042        0.147        0.055       40.322        9.212        0.052      341.175       15.706      859.193
10/24/2014  23:04:00       31.107       -1.907        5.449       17.187       16.855       15.885      295.400      284.079      252.346        0.092        0.042       31.166        7.159        0.053      341.288       15.897      859.185
10/24/2014  23:05:00       -6.966       30.259       -0.866       17.350       12.007       12.178      301.020      144.179      148.309        0.078        0.030       31.050       10.307        0.110      342.287       17.592      859.159
10/24/2014  23:06:00      -29.134       -9.666       -2.779       20.399       26.526        8.966      416.135      703.650       80.382        0.107        0.060       30.695       11.499        0.140      341.242       15.820      859.135
10/24/2014  23:07:00      -68.192      -35.143      -13.483       11.295       10.844        8.384      127.575      117.596       70.286        0.319        0.016       76.715        4.476        0.003      340.025       13.760      859.112
10/24/2014  23:08:00      -62.115      -60.678       -8.006       18.119       15.995       10.771      328.316      255.849      116.010        0.415        0.035       86.833        3.597        0.002      340.001       13.722      859.123
10/24/2014  23:09:00      -83.506     -103.776        5.189       65.705       69.349       44.175     4317.131     4809.291     1951.427        1.442        0.554      133.202       41.633        0.098      340.305       14.232      859.163
10/24/2014  23:10:00     -167.396     -117.699       -7.158       64.424       55.887       33.074     4150.417     3123.363     1093.878        2.515        0.418      204.633       17.969        0.008      340.322       14.259      859.173
10/24/2014  23:11:00     -184.900      -29.320      -17.446       52.050       51.905       23.129     2709.176     2694.109      534.934        2.064        0.297      187.210       12.556        0.004      340.337       14.286      859.152
10/24/2014  23:12:00     -134.676        5.446      -18.175       38.130       22.519       13.391     1453.879      507.100      179.312        1.032        0.107      134.786       11.993        0.008      340.209       14.072      859.147
10/24/2014  23:13:00     -150.698      -10.328      -20.099       29.189       26.001       22.442      851.976      676.054      503.623        1.263        0.102      151.051       17.844        0.014      340.131       13.940      859.145
10/24/2014  23:14:00     -151.940      -53.479      -12.752       22.328       20.396       16.778      498.549      416.002      281.486        1.365        0.060      161.077       13.200        0.007      340.245       14.133      859.157
10/24/2014  23:15:00      -57.510      -70.978        4.177       48.345       25.442       16.347     2337.211      647.272      267.240        0.581        0.163       91.353       17.989        0.039      340.270       14.175      859.142
10/24/2014  23:16:00      -37.178      -85.036       -4.745       57.251       18.934       19.194     3277.621      358.485      368.421        0.632        0.200       92.808       27.582        0.088      340.399       14.393      859.148
10/24/2014  23:17:00     -124.626      -86.567       -7.210       53.662       41.937       28.386     2879.622     1758.724      805.793        1.426        0.272      151.742       18.636        0.015      340.390       14.377      859.127
10/24/2014  23:18:00      -82.885       -4.008       -9.353       32.413       25.253       20.178     1050.619      637.710      407.139        0.453        0.105       82.981       12.732        0.024      340.447       14.474      859.088
10/24/2014  23:19:00      -67.824        4.257      -17.676       18.593       15.704       11.030      345.688      246.618      121.660        0.282        0.036       67.958        9.322        0.019      341.077       15.540      859.083
10/24/2014  23:20:00      -95.422       12.125      -15.632        8.011        7.365        8.401       64.181       54.246       70.582        0.484        0.009       96.190        2.839        0.001      341.506       16.265      859.058
10/24/2014  23:21:00      -47.625      -31.699        4.320       46.890       19.474       16.876     2198.637      379.238      284.801        0.308        0.143       57.210       24.851        0.189      340.501       14.565      859.052
10/24/2014  23:22:00      -36.969      -27.237       -2.745       28.622       34.602       19.555      819.237     1197.278      382.400        0.226        0.120       45.919       11.736        0.065      340.101       13.889      859.067
10/24/2014  23:23:00     -127.446      -77.285      -11.765       42.748       40.234       26.060     1827.430     1618.813      679.099        1.324        0.206      149.049       19.931        0.018      340.190       14.039      859.072
10/24/2014  23:24:00     -120.403      -61.986       -4.205       34.451       23.700       18.546     1186.883      561.698      343.949        1.022        0.105      135.422       19.995        0.022      339.998       13.715      859.064
10/24/2014  23:25:00      -66.923      -69.255       -4.136       33.828       23.915       17.027     1144.330      571.914      289.910        0.565        0.100       96.307       17.903        0.035      340.089       13.869      859.053
10/24/2014  23:26:00     -103.229      -64.923       -6.088       25.885       20.338       12.383      670.046      413.648      153.329        0.807        0.062      121.948       10.545        0.007      340.127       13.931      859.043
10/24/2014  23:27:00     -134.201      -10.440      -24.780       14.567       19.754        8.771      212.198      390.221       76.931        0.971        0.034      134.607        7.558        0.003      340.118       13.918      859.033
10/24/2014  23:28:00     -146.627      -53.736      -10.327       47.810       44.086       25.994     2285.823     1943.593      675.711        1.470        0.245      156.163       18.585        0.014      339.832       13.435      859.006
10/24/2014  23:29:00     -104.558      -72.826        1.927       69.821       45.420       27.258     4874.937     2063.016      742.981        1.196        0.384      127.421       27.853        0.048      339.816       13.408      859.024
10/24/2014  23:30:00     -184.961     -106.276        1.909       59.327       41.249       28.442     3519.732     1701.520      808.921        2.577        0.302      213.320       26.298        0.015      340.182       14.025      859.033
10/24/2014  23:31:00     -121.268      -79.712       -9.877       33.441       35.078       19.923     1118.327     1230.468      396.943        1.195        0.137      145.121       21.831        0.023      340.062       13.824      859.026
10/24/2014  23:32:00     -128.058      -23.137      -17.797       30.386       14.943       10.784      923.288      223.296      116.295        0.926        0.063      130.132       14.803        0.013      340.754       14.993      858.991
10/24/2014  23:33:00     -166.102      -27.565      -24.782       35.626       25.975       19.837     1269.185      674.717      393.517        1.565        0.117      168.374       19.262        0.013      340.546       14.641      858.977
10/24/2014  23:34:00      -97.159      -53.657       -6.354       25.985       31.454       19.884      675.220      989.348      395.372        0.721        0.103      110.991       16.310        0.022      340.104       13.895      858.994
10/24/2014  23:35:00     -218.336      -42.972      -25.278       44.095       36.704       22.120     1944.370     1347.179      489.298        2.697        0.189      222.524       21.695        0.010      339.890       13.530      858.968
10/24/2014  23:36:00     -146.557      -24.368      -11.287       48.512       28.837       20.889     2353.373      831.585      436.334        1.291        0.181      148.569       21.610        0.021      339.744       13.287      858.964
10/24/2014  23:37:00      -66.773      -29.894        6.749       48.960       31.296       20.036     2397.072      979.456      401.442        0.459        0.189       73.159       19.580        0.072      339.750       13.297      858.989
10/24/2014  23:38:00     -103.470      -62.365       -7.445       55.694       20.218       22.199     3101.820      408.765      492.812        0.933        0.200      120.812       26.370        0.048      339.980       13.685      859.017
10/24/2014  23:39:00     -191.480       15.350      -16.311       20.595       33.588       14.962      424.170     1128.166      223.866        1.947        0.089      192.094       10.239        0.003      340.021       13.754      858.969
10/24/2014  23:40:00     -182.694      -37.626      -16.934       35.277       52.449       28.257     1244.473     2750.852      798.447        1.994        0.240      186.529       20.311        0.012      340.000       13.719      858.933
10/24/2014  23:41:00      -37.345      -90.598       -1.776       74.749       65.915       32.963     5587.477     4344.807     1086.583        1.031        0.551       97.993       24.005        0.060      340.844       15.146      858.951
10/24/2014  23:42:00      -13.210      -96.479      -20.169       44.569       27.051       25.512     1986.378      731.760      650.877        0.663        0.168       97.379       18.793        0.037      340.558       14.661      858.993
10/24/2014  23:43:00      -73.657     -129.327      -15.066       38.295       55.426       21.306     1466.493     3072.031      453.939        1.368        0.250      148.832       10.549        0.005      340.935       15.299      858.978
10/24/2014  23:44:00     -109.851      -60.666       -0.632       47.425       52.310       31.433     2249.126     2736.354      988.037        1.086        0.299      125.489       31.654        0.064      340.936       15.300      858.920
10/24/2014  23:45:00     -191.053      -75.380       -4.663       92.520       54.669       27.909     8559.927     2988.719      778.915        2.726        0.616      205.386       34.340        0.028      340.646       14.808      858.915
10/24/2014  23:46:00      -88.757      -49.842        8.879       66.080       32.370       28.095     4366.620     1047.827      789.332        0.832        0.310      101.795       35.870        0.124      340.532       14.617      858.880
10/24/2014  23:47:00      -32.986      -35.148       14.934       44.756       32.737       19.823     2003.114     1071.740      392.958        0.301        0.173       48.202       22.914        0.226      340.489       14.546      858.873
10/24/2014  23:48:00      -55.582      -53.715        0.537       59.151       31.319       24.698     3498.866      980.895      610.003        0.553        0.254       77.296       22.381        0.084      340.970       15.358      858.872
10/24/2014  23:49:00     -100.218      -34.208       -7.205       37.593       22.997       15.751     1413.263      528.845      248.094        0.673        0.110      105.895       12.995        0.015      340.526       14.606      858.878
10/24/2014  23:50:00     -171.776      -40.986      -10.399       42.079       27.208       18.660     1770.663      740.285      348.177        1.708        0.143      176.598       18.947        0.012      340.574       14.687      858.828
10/24/2014  23:51:00     -155.581      -62.339       -2.663       38.720       40.466       23.343     1499.249     1637.497      544.913        1.589        0.184      167.605       22.046        0.017      340.341       14.295      858.798
10/24/2014  23:52:00     -215.100      -75.867      -14.824       93.595       41.783       36.038     8760.099     1745.847     1298.717        3.202        0.590      228.087       40.777        0.032      340.373       14.347      858.799
10/24/2014  23:53:00     -140.200      -44.972        8.459       87.376       57.395       39.599     7634.629     3294.164     1568.072        1.712        0.625      147.236       48.649        0.109      340.131       13.939      858.784
10/24/2014  23:54:00      -40.094       -1.562        4.093       44.063       26.416       25.833     1941.557      697.789      667.348        0.247        0.165       40.124       30.952        0.595      340.119       13.920      858.814
10/24/2014  23:55:00     -124.070      -49.191       -4.418       60.828       46.095       33.064     3700.022     2124.715     1093.224        1.237        0.346      133.466       26.368        0.039      340.389       14.377      858.786
10/24/2014  23:56:00     -129.983      -42.436        8.990       55.467       57.767       29.807     3076.609     3337.076      888.447        1.304        0.365      136.735       31.269        0.052      339.985       13.694      858.796
10/24/2014  23:57:00      -80.839      -21.603        4.201       70.462       36.669       23.032     4964.963     1344.604      530.493        0.693        0.342       83.676       17.846        0.045      339.928       13.597      858.774
10/24/2014  23:58:00       32.187      -35.702       12.871       35.104       75.293       35.246     1232.321     5669.090     1242.311        0.531        0.407       48.069       42.855        0.795      339.973       13.673      858.787
10/24/2014  23:59:00     -100.522        2.617       11.425      153.721       88.161       60.192    23630.138     7772.374     3623.030        2.263        1.751      100.556       92.904        0.854      340.276       14.182      858.766
